[[{"header":{"parameterUnit":"m.s-1","parameterCategory":1,"la1":30.6,"la2":28.766,"lo1":-90.7593,"lo2":-88.6598,"dy":0.0162,"dx":0.0183,"nx":116,"ny":114,"refTime":"2023-08-15T18:00:00:Z","depth":0,"parameterNumber":2,"parameterNumberName":"U-component_of_WINDS"},"data":[0.0,0.0,0.0,0.0,0.0,0.0,0.0,0.0,0.0,0.0,0.0,0.0,0.0,0.0,0.0,0.0,0.0,0.0,0.0,0.0,0.0,0.0,0.0,0.0,0.0,0.0,0.0,0.0,0.0,0.0,0.0,0.0,0.0,0.0,0.0,0.0,0.0,0.0,0.0,0.0,0.0,0.0,0.0,0.0,0.0,0.0,0.0,0.0,0.0,0.0,0.0,0.0,0.0,0.0,0.0,0.0,0.0,0.0,0.0,0.0,0.0,0.0,0.0,0.0,0.0,0.0,0.0,0.0,0.0,0.0,0.0,0.0,0.0,0.0,0.0,0.0,0.0,0.0,0.0,0.0,0.0,0.0,0.0,0.0,0.0,0.0,0.0,0.0,0.0,0.0,0.0,0.0,0.0,0.0,0.0,0.0,0.0,0.0,0.0,0.0,0.0,0.0,0.0,0.0,0.0,0.0,0.0,0.0,0.0,0.0,0.0,0.0,0.0,0.0,0.0,0.0,0.0,0.0,0.0,0.0,0.0,0.0,0.0,0.0,0.0,0.0,0.0,0.0,0.0,0.0,0.0,0.0,0.0,0.0,0.0,0.0,0.0,0.0,0.0,0.0,0.0,0.0,0.0,0.0,0.0,0.0,0.0,0.0,0.0,0.0,0.0,0.0,0.0,0.0,0.0,0.0,0.0,0.0,0.0,0.0,0.0,0.0,0.0,0.0,0.0,0.0,0.0,0.0,0.0,0.0,0.0,0.0,0.0,0.0,0.0,0.0,0.0,0.0,0.0,0.0,0.0,0.0,0.0,0.0,0.0,0.0,0.0,0.0,0.0,0.0,0.0,0.0,0.0,0.0,0.0,0.0,0.0,0.0,0.0,0.0,0.0,0.0,0.0,0.0,0.0,0.0,0.0,0.0,0.0,0.0,0.0,0.0,0.0,0.0,0.0,0.0,0.0,0.0,0.0,0.0,0.0,0.0,0.0,0.0,0.0,0.0,0.0,0.0,0.0,0.0,0.0,0.0,0.0,0.0,0.0,0.0,0.0,0.0,0.0,0.0,0.0,0.0,0.0,0.0,0.0,0.0,0.0,0.0,0.0,0.0,0.0,0.0,0.0,0.0,0.0,0.0,0.0,0.0,0.0,0.0,0.0,0.0,0.0,0.0,0.0,0.0,0.0,0.0,0.0,0.0,0.0,0.0,0.0,0.0,0.0,0.0,0.0,0.0,0.0,0.0,0.0,0.0,0.0,0.0,0.0,0.0,0.0,0.0,0.0,0.0,0.0,0.0,0.0,0.0,0.0,0.0,0.0,0.0,0.0,0.0,0.0,0.0,0.0,0.0,0.0,0.0,0.0,0.0,0.0,0.0,0.0,0.0,0.0,0.0,0.0,0.0,0.0,0.0,0.0,0.0,0.0,0.0,0.0,0.0,0.0,0.0,0.0,0.0,0.0,0.0,0.0,0.0,0.0,0.0,0.0,0.0,0.0,0.0,0.0,0.0,0.0,0.0,0.0,0.0,0.0,0.0,0.0,0.0,0.0,0.0,0.0,0.0,0.0,0.0,0.0,0.0,0.0,0.0,0.0,0.0,0.0,0.0,0.0,0.0,0.0,0.0,0.0,0.0,0.0,0.0,0.0,0.0,0.0,0.0,0.0,0.0,0.0,0.0,0.0,0.0,0.0,0.0,0.0,0.0,0.0,0.0,0.0,0.0,0.0,0.0,0.0,0.0,0.0,0.0,0.0,0.0,0.0,0.0,0.0,0.0,0.0,0.0,0.0,0.0,0.0,0.0,0.0,0.0,0.0,0.0,0.0,0.0,0.0,0.0,0.0,0.0,0.0,0.0,0.0,0.0,0.0,0.0,0.0,0.0,0.0,0.0,0.0,0.0,0.0,0.0,0.0,0.0,0.0,0.0,0.0,0.0,0.0,0.0,0.0,0.0,0.0,0.0,0.0,0.0,0.0,0.0,0.0,0.0,0.0,0.0,0.0,0.0,0.0,0.0,0.0,0.0,0.0,0.0,0.0,0.0,0.0,0.0,0.0,0.0,0.0,0.0,0.0,0.0,0.0,0.0,0.0,0.0,0.0,0.0,0.0,0.0,0.0,0.0,0.0,0.0,0.0,0.0,0.0,0.0,0.0,0.0,0.0,0.0,0.0,0.0,0.0,0.0,0.0,0.0,0.0,0.0,0.0,0.0,0.0,0.0,0.0,0.0,0.0,0.0,0.0,0.0,0.0,0.0,0.0,0.0,0.0,0.0,0.0,0.0,0.0,0.0,0.0,0.0,0.0,0.0,0.0,0.0,0.0,0.0,0.0,0.0,0.0,0.0,0.0,0.0,0.0,0.0,0.0,0.0,0.0,0.0,0.0,0.0,0.0,0.0,0.0,0.0,0.0,0.0,0.0,0.0,0.0,0.0,0.0,0.0,0.0,0.0,0.0,0.0,0.0,0.0,0.0,0.0,0.0,0.0,0.0,0.0,0.0,0.0,0.0,0.0,0.0,0.0,0.0,0.0,0.0,0.0,0.0,0.0,0.0,0.0,0.0,0.0,0.0,0.0,0.0,0.0,0.0,0.0,0.0,0.0,0.0,0.0,0.0,0.0,0.0,0.0,0.0,0.0,0.0,0.0,0.0,0.0,0.0,0.0,0.0,0.0,0.0,0.0,0.0,0.0,0.0,0.0,0.0,0.0,0.0,0.0,0.0,0.0,0.0,0.0,0.0,0.0,0.0,0.0,0.0,0.0,0.0,0.0,0.0,0.0,0.0,0.0,0.0,0.0,0.0,0.0,0.0,0.0,0.0,0.0,0.0,0.0,0.0,0.0,0.0,0.0,0.0,0.0,0.0,0.0,0.0,0.0,0.0,0.0,0.0,0.0,0.0,0.0,0.0,0.0,0.0,0.0,0.0,0.0,0.0,0.0,0.0,0.0,0.0,0.0,0.0,0.0,0.0,0.0,0.0,0.0,0.0,0.0,0.0,0.0,0.0,0.0,0.0,0.0,0.0,0.0,0.0,0.0,0.0,0.0,0.0,0.0,0.0,0.0,0.0,0.0,0.0,0.0,0.0,0.0,0.0,0.0,0.0,0.0,0.0,0.0,0.0,0.0,0.0,0.0,0.0,0.0,0.0,0.0,0.0,0.0,0.0,0.0,0.0,0.0,0.0,0.0,0.0,0.0,0.0,0.0,0.0,0.0,0.0,0.0,0.0,0.0,0.0,0.0,0.0,0.0,0.0,0.0,0.0,0.0,0.0,0.0,0.0,0.0,0.0,0.0,0.0,0.0,0.0,0.0,0.0,0.0,0.0,0.0,0.0,0.0,0.0,0.0,0.0,0.0,0.0,0.0,0.0,0.0,0.0,0.0,0.0,0.0,0.0,0.0,0.0,0.0,0.0,0.0,0.0,0.0,0.0,0.0,0.0,0.0,0.0,0.0,0.0,0.0,0.0,0.0,0.0,0.0,0.0,0.0,0.0,0.0,0.0,0.0,0.0,0.0,0.0,0.0,0.0,0.0,0.0,0.0,0.0,0.0,0.0,0.0,0.0,0.0,0.0,0.0,0.0,0.0,0.0,0.0,0.0,0.0,0.0,0.0,0.0,0.0,0.0,0.0,0.0,0.0,0.0,0.0,0.0,0.0,0.0,0.0,0.0,0.0,0.0,0.0,0.0,0.0,0.0,0.0,0.0,0.0,0.0,0.0,0.0,0.0,0.0,0.0,0.0,0.0,0.0,0.0,0.0,0.0,0.0,0.0,0.0,0.0,0.0,0.0,0.0,0.0,0.0,0.0,0.0,0.0,0.0,0.0,0.0,0.0,0.0,0.0,0.0,0.0,0.0,0.0,0.0,0.0,0.0,0.0,0.0,0.0,0.0,0.0,0.0,0.0,0.0,0.0,0.0,0.0,0.0,0.0,0.0,0.0,0.0,0.0,0.0,0.0,0.0,0.0,0.0,0.0,0.0,0.0,0.0,0.0,0.0,0.0,0.0,0.0,0.0,0.0,0.0,0.0,0.0,0.0,0.0,0.0,0.0,0.0,0.0,0.0,0.0,0.0,0.0,0.0,0.0,0.0,0.0,0.0,0.0,0.0,0.0,0.0,0.0,0.0,0.0,0.0,0.0,0.0,0.0,0.0,0.0,0.0,0.0,0.0,0.0,0.0,0.0,0.0,0.0,0.0,0.0,0.0,0.0,0.0,0.0,0.0,0.0,0.0,0.0,0.0,0.0,0.0,0.0,0.0,0.0,0.0,0.0,0.0,0.0,0.0,0.0,0.0,0.0,0.0,0.0,0.0,0.0,0.0,0.0,0.0,0.0,0.0,0.0,0.0,0.0,0.0,0.0,0.0,0.0,0.0,0.0,0.0,0.0,0.0,0.0,0.0,0.0,0.0,0.0,0.0,0.0,0.0,0.0,0.0,0.0,0.0,0.0,0.0,0.0,0.0,0.0,0.0,0.0,0.0,0.0,0.0,0.0,0.0,0.0,0.0,0.0,0.0,0.0,0.0,0.0,0.0,0.0,0.0,0.0,0.0,0.0,0.0,0.0,0.0,0.0,0.0,0.0,0.0,0.0,0.0,0.0,0.0,0.0,0.0,0.0,0.0,0.0,0.0,0.0,0.0,0.0,0.0,0.0,0.0,0.0,0.0,0.0,0.0,0.0,0.0,0.0,0.0,0.0,0.0,0.0,0.0,0.0,0.0,0.0,0.0,0.0,0.0,0.0,0.0,0.0,0.0,0.0,0.0,0.0,0.0,0.0,0.0,0.0,0.0,0.0,0.0,0.0,0.0,0.0,0.0,0.0,0.0,0.0,0.0,0.0,0.0,0.0,0.0,0.0,0.0,0.0,0.0,0.0,0.0,0.0,0.0,0.0,0.0,0.0,0.0,0.0,0.0,0.0,0.0,0.0,0.0,0.0,0.0,0.0,0.0,0.0,0.0,0.0,0.0,0.0,0.0,0.0,0.0,0.0,0.0,0.0,0.0,0.0,0.0,0.0,0.0,0.0,0.0,0.0,0.0,0.0,0.0,0.0,0.0,0.0,0.0,0.0,0.0,0.0,0.0,0.0,0.0,0.0,0.0,0.0,0.0,0.0,0.0,0.0,0.0,0.0,0.0,0.0,0.0,0.0,0.0,0.0,0.0,0.0,0.0,0.0,0.0,0.0,0.0,0.0,0.0,0.0,0.0,0.0,0.0,0.0,0.0,0.0,0.0,0.0,0.0,0.0,0.0,0.0,0.0,0.0,0.0,0.0,0.0,0.0,0.0,0.0,0.0,0.0,0.0,0.0,0.0,0.0,0.0,0.0,0.0,0.0,0.0,0.0,0.0,0.0,0.0,0.0,0.0,0.0,0.0,0.0,0.0,0.0,0.0,0.0,0.0,0.0,0.0,0.0,0.0,0.0,0.0,0.0,0.0,0.0,0.0,0.0,0.0,0.0,0.0,0.0,0.0,0.0,0.0,0.0,0.0,0.0,0.0,0.0,0.0,0.0,0.0,0.0,0.0,0.0,0.0,0.0,0.0,0.0,0.0,0.0,0.0,0.0,0.0,0.0,0.0,0.0,0.0,0.0,0.0,0.0,0.0,0.0,0.0,0.0,0.0,0.0,0.0,0.0,0.0,0.0,0.0,0.0,0.0,0.0,0.0,0.0,0.0,0.0,0.0,0.0,0.0,0.0,0.0,0.0,0.0,0.0,0.0,0.0,0.0,0.0,0.0,0.0,0.0,0.0,0.0,0.0,0.0,0.0,0.0,0.0,0.0,0.0,0.0,0.0,0.0,0.0,0.0,0.0,0.0,0.0,0.0,0.0,0.0,0.0,0.0,0.0,0.0,0.0,0.0,0.0,0.0,0.0,0.0,0.0,0.0,0.0,0.0,0.0,0.0,0.0,0.0,0.0,0.0,0.0,0.0,0.0,0.0,0.0,0.0,0.0,0.0,0.0,0.0,0.0,0.0,0.0,0.0,0.0,0.0,0.0,0.0,0.0,0.0,0.0,0.0,0.0,0.0,0.0,0.0,0.0,0.0,0.0,0.0,0.0,0.0,0.0,0.0,0.0,0.0,0.0,0.0,0.0,0.0,0.0,0.0,0.0,0.0,1.3865,0.0,0.0,0.0,0.0,0.0,0.0,0.0,0.0,0.0,0.0,0.0,0.0,0.0,0.0,0.0,0.0,0.0,0.0,0.0,0.0,0.0,0.0,0.0,0.0,0.0,0.0,0.0,0.0,0.0,0.0,0.0,0.0,0.0,0.0,0.0,0.0,0.0,0.0,0.0,0.0,0.0,0.0,0.0,0.0,0.0,0.0,0.0,0.0,0.0,0.0,0.0,0.0,0.0,0.0,0.0,0.0,0.0,0.0,0.0,0.0,0.0,0.0,0.0,0.0,0.0,0.0,0.0,0.0,0.0,0.0,0.0,0.0,0.0,0.0,0.0,0.0,0.0,0.0,0.0,0.0,0.0,0.0,0.0,0.0,0.0,0.0,0.0,0.0,0.0,0.0,0.0,0.0,0.0,0.0,0.0,0.0,0.0,0.0,0.0,0.0,0.0,0.0,0.0,0.0,0.0,0.0,0.0,0.0,0.0,0.0,0.0,0.0,0.0,0.0,0.0,0.0,1.4234,0.0,0.0,0.0,0.0,0.0,0.0,0.0,0.0,0.0,0.0,0.0,0.0,0.0,0.0,0.0,0.0,0.0,0.0,0.0,0.0,0.0,0.0,0.0,0.0,0.0,0.0,0.0,0.0,0.0,0.0,0.0,0.0,0.0,0.0,0.0,0.0,0.0,0.0,0.0,0.0,0.0,0.0,0.0,0.0,0.0,0.0,0.0,0.0,0.0,0.0,0.0,0.0,0.0,0.0,0.0,0.0,0.0,0.0,0.0,0.0,0.0,0.0,0.0,0.0,0.0,0.0,0.0,0.0,0.0,0.0,0.0,0.0,0.0,0.0,0.0,0.0,0.0,0.0,0.0,0.0,0.0,0.0,0.0,0.0,0.0,0.0,0.0,0.0,0.0,0.0,0.0,0.0,0.0,0.0,0.0,0.0,0.0,0.0,0.0,0.0,0.0,0.0,0.0,0.0,0.0,0.0,0.0,0.0,1.498,1.4976,1.3718,1.4373,1.4256,1.3626,1.519,1.5666,1.53,1.4627,0.0,0.0,0.0,0.0,0.0,0.0,0.0,0.0,0.0,0.0,0.0,0.0,0.0,0.0,0.0,0.0,0.0,0.0,0.0,0.0,0.0,0.0,0.0,0.0,0.0,0.0,0.0,0.0,0.0,0.0,0.0,0.0,0.0,0.0,0.0,0.0,0.0,0.0,1.9749,1.9416,1.9149,1.8964,1.8522,0.0,0.0,0.0,0.0,0.0,0.0,0.0,0.0,0.0,0.0,0.0,0.0,0.0,0.0,0.0,0.0,0.0,0.0,0.0,0.0,0.0,0.0,0.0,0.0,0.0,0.0,0.0,0.0,0.0,0.0,0.0,0.0,0.0,0.0,0.0,0.0,0.0,0.0,0.0,0.0,0.0,0.0,0.0,1.2383,1.3549,0.0,0.0,0.0,0.0,0.0,0.0,0.0,0.0,0.0,0.0,0.0,0.0,0.0,1.322,1.332,1.4431,1.4981,1.4928,1.5918,1.6263,1.6063,1.6149,1.6143,1.6,1.5565,0.0,1.5155,1.5106,0.0,0.0,0.0,0.0,0.0,0.0,0.0,0.0,0.0,0.0,0.0,0.0,0.0,0.0,0.0,0.0,0.0,0.0,0.0,0.0,0.0,0.0,0.0,0.0,0.0,0.0,0.0,0.0,0.0,0.0,0.0,0.0,0.0,0.0,0.0,0.0,1.9578,2.082,2.1678,2.1523,2.1523,2.1698,2.1665,2.0409,1.8333,1.844,0.0,0.0,0.0,0.0,0.0,0.0,0.0,0.0,0.0,0.0,0.0,0.0,0.0,0.0,0.0,0.0,0.0,0.0,0.0,0.0,0.0,0.0,0.0,0.0,0.0,0.0,0.0,0.0,0.0,0.0,0.0,0.0,0.0,0.0,0.0,0.0,0.0,0.0,0.0,1.2041,1.2987,1.3798,1.3773,1.3349,0.0,0.0,0.0,0.0,0.0,0.0,0.0,0.0,0.0,1.3588,1.4056,1.4353,1.4447,1.5328,1.579,1.5814,1.6215,1.6395,1.6395,1.6395,1.6395,1.6373,1.6034,1.5825,1.5769,1.5552,1.5629,1.5756,0.0,0.0,0.0,0.0,1.2665,1.2915,0.0,0.0,0.0,0.0,0.0,0.0,0.0,0.0,0.0,0.0,0.0,0.0,0.0,0.0,0.0,1.6692,0.0,0.0,0.0,0.0,0.0,0.0,0.0,0.0,0.0,0.0,0.0,1.998,2.1347,2.2496,2.3413,2.3413,2.3413,2.3435,2.3654,2.2335,1.998,2.0017,1.9223,0.0,0.0,0.0,0.0,0.0,0.0,0.0,0.0,0.0,0.0,0.0,0.0,0.0,0.0,0.0,0.0,0.0,0.0,0.0,0.0,0.0,0.0,0.0,0.0,0.0,0.0,0.0,0.0,0.0,0.0,0.0,0.0,0.0,0.0,0.0,0.0,0.0,0.0,1.2697,1.3586,1.422,1.4304,1.3969,0.0,0.0,0.0,0.0,0.0,0.0,1.377,1.3927,1.4182,1.4583,1.5122,1.5446,1.5478,1.6017,1.6312,1.6312,1.6312,1.6312,1.6312,1.6312,1.6312,1.6281,1.6377,1.6409,1.6375,1.6024,1.5952,1.6045,1.5642,1.5009,1.4238,1.3799,1.3732,1.383,0.0,0.0,0.0,0.0,0.0,0.0,0.0,0.0,0.0,0.0,0.0,0.0,0.0,0.0,1.8726,1.8907,1.8856,1.8323,0.0,0.0,0.0,0.0,0.0,0.0,0.0,0.0,0.0,2.1778,2.3437,2.4274,2.4332,2.4332,2.4332,2.4332,2.4355,2.3379,2.1778,2.1983,2.099,1.9174,0.0,0.0,0.0,0.0,0.0,0.0,0.0,0.0,0.0,0.0,0.0,0.0,0.0,0.0,0.0,0.0,0.0,0.0,0.0,0.0,0.0,0.0,0.0,0.0,0.0,0.0,0.0,0.0,0.0,0.0,0.0,0.0,0.0,0.0,0.0,0.0,0.0,0.0,0.0,1.527,1.6022,0.0,0.0,0.0,0.0,1.3667,1.3693,1.4155,1.5071,1.4941,1.5261,1.616,1.6235,1.6226,1.6237,1.6291,1.6312,1.6312,1.6312,1.6312,1.6312,1.6312,1.6312,1.6292,1.658,1.6678,1.6656,1.6386,1.6278,1.6212,1.5293,1.4915,1.4731,1.356,1.3836,1.4783,0.0,0.0,0.0,0.0,0.0,0.0,0.0,0.0,0.0,0.0,0.0,0.0,0.0,1.8709,2.0294,2.045,2.1289,2.123,1.9828,0.0,0.0,0.0,0.0,0.0,0.0,0.0,2.1424,2.2285,2.3711,2.4391,2.4391,2.4391,2.4391,2.4414,2.4575,2.4398,2.3948,2.3722,2.2765,2.1345,2.0772,1.9412,0.0,0.0,0.0,0.0,0.0,0.0,0.0,0.0,0.0,0.0,0.0,0.0,0.0,0.0,0.0,0.0,0.0,0.0,0.0,0.0,0.0,0.0,0.0,0.0,0.0,0.0,0.0,0.0,0.0,0.0,0.0,0.0,0.0,0.0,0.0,0.0,0.0,1.5224,1.5768,0.0,1.5611,1.5378,1.5094,1.4684,1.5128,1.5539,1.5875,1.5836,1.6032,1.6559,1.657,1.6614,1.6754,1.6754,1.6754,1.6754,1.6754,1.6754,1.6754,1.6754,1.6754,1.6764,1.685,1.6883,1.6872,1.6541,1.6573,1.6721,1.6377,1.6124,1.5865,1.5454,1.5408,1.5587,0.0,0.0,0.0,0.0,0.0,0.0,0.0,0.0,0.0,0.0,0.0,1.7037,1.7869,2.0196,2.1772,2.1958,2.2965,2.277,2.0801,0.0,0.0,0.0,0.0,0.0,0.0,2.1325,2.2495,2.3113,2.4098,2.4581,2.4581,2.4581,2.4581,2.4581,2.4746,2.4949,2.5154,2.4839,2.4283,2.3532,2.3012,2.1564,1.9498,0.0,0.0,0.0,0.0,0.0,0.0,0.0,0.0,0.0,0.0,0.0,0.0,0.0,0.0,0.0,0.0,0.0,0.0,0.0,0.0,0.0,0.0,0.0,0.0,0.0,0.0,0.0,0.0,0.0,0.0,0.0,0.0,0.0,0.0,0.0,1.4529,1.5331,1.5818,1.6065,1.6065,1.5851,1.5718,1.5718,1.6201,1.6549,1.6549,1.6549,1.6614,1.6807,1.6807,1.6882,1.7001,1.7001,1.6936,1.6818,1.6818,1.6785,1.6645,1.6645,1.6477,1.6139,1.6508,1.6466,1.6139,1.6272,1.6461,1.6645,1.6645,1.6526,1.6331,1.6331,1.6201,1.6006,0.0,0.0,0.0,0.0,0.0,0.0,0.0,0.0,0.0,0.0,1.6955,1.909,1.9877,2.1859,2.323,2.3491,2.371,2.2645,1.9864,2.0005,0.0,0.0,0.0,0.0,2.1671,2.2224,2.3078,2.4311,2.4708,2.4917,2.4917,2.4917,2.4917,2.4917,2.4917,2.5039,2.5284,2.5303,2.545,2.5557,2.4061,2.2843,2.1758,0.0,0.0,0.0,0.0,0.0,0.0,0.0,0.0,0.0,0.0,0.0,0.0,0.0,0.0,0.0,0.0,0.0,0.0,0.0,0.0,0.0,0.0,0.0,0.0,0.0,0.0,0.0,0.0,0.0,0.0,0.0,0.0,0.0,1.2745,1.4469,1.5705,1.5739,1.6362,1.6819,1.6819,1.6758,1.671,1.671,1.6883,1.7001,1.7001,1.698,1.6958,1.6926,1.6926,1.6926,1.6926,1.6958,1.6818,1.6472,1.6472,1.6299,1.6006,1.6006,1.5436,1.452,1.5568,1.5416,1.454,1.5546,1.5974,1.6006,1.6006,1.6006,1.5974,1.5974,1.5974,1.5931,0.0,0.0,0.0,0.0,0.0,0.0,0.0,0.0,0.0,0.0,1.6556,1.8546,1.9278,2.1902,2.3636,2.3702,2.4208,2.3643,2.155,0.0,0.0,0.0,0.0,0.0,2.256,2.3477,2.4194,2.4746,2.486,2.4917,2.4917,2.4917,2.4917,2.4917,2.4917,2.4941,2.5034,2.5319,2.5501,2.5544,2.5188,2.4339,2.3159,0.0,0.0,0.0,0.0,0.0,0.0,0.0,0.0,0.0,0.0,0.0,0.0,0.0,0.0,0.0,0.0,0.0,0.0,0.0,0.0,0.0,0.0,0.0,0.0,0.0,0.0,0.0,0.0,0.0,0.0,0.0,1.3318,1.4143,1.4471,1.5099,1.5759,1.6372,1.6738,1.6935,1.6935,1.6936,1.6915,1.6915,1.6969,1.7001,1.7001,1.6355,1.5837,1.5502,1.5552,1.5461,1.5126,1.5905,1.6234,1.6136,1.6136,1.6104,1.6006,1.6006,1.5843,1.5588,1.5863,1.5832,1.5556,1.5624,1.5626,1.5658,1.5909,1.5844,1.5593,1.5323,1.5062,1.4772,0.0,0.0,0.0,0.0,0.0,0.0,0.0,0.0,0.0,0.0,1.6976,1.8975,2.0139,2.2535,2.4108,2.4221,2.4753,2.4006,2.1391,0.0,0.0,0.0,0.0,2.1178,2.3453,2.4078,2.4449,2.4621,2.4621,2.469,2.4858,2.4858,2.4952,2.512,2.512,2.517,2.5289,2.554,2.566,2.5768,2.5842,2.4719,2.2935,2.2355,2.0879,1.9082,1.867,1.81,1.7318,1.5788,0.0,0.0,0.0,0.0,0.0,0.0,0.0,0.0,0.0,0.0,0.0,0.0,0.0,0.0,0.0,0.0,0.0,0.0,0.0,0.0,0.0,0.0,0.0,0.0,1.3617,1.4776,1.5622,1.5953,1.6306,1.6775,1.6926,1.7001,1.7001,1.7001,1.7001,1.7001,1.6882,1.6785,1.6785,1.6139,1.5431,1.4719,1.5187,1.5136,1.4401,1.5466,1.5941,1.5779,1.5779,1.5681,1.5551,1.5551,1.529,1.4903,1.5329,1.528,1.4881,1.5145,1.5267,0.0,0.0,0.0,0.0,0.0,1.4768,1.454,0.0,0.0,0.0,0.0,0.0,0.0,0.0,0.0,0.0,0.0,0.0,1.9792,2.1617,2.331,2.441,2.4677,2.5006,2.3698,0.0,0.0,0.0,2.1916,2.1798,2.2451,2.4189,2.4225,2.4269,2.4349,2.4349,2.4532,2.4874,2.4874,2.5058,2.5388,2.5388,2.5518,2.577,2.5808,2.593,2.6086,2.6097,2.4605,2.2354,2.2017,2.0264,1.7988,1.8018,1.7144,1.5942,1.592,0.0,0.0,0.0,0.0,0.0,0.0,0.0,0.0,0.0,0.0,0.0,0.0,0.0,0.0,0.0,0.0,0.0,0.0,0.0,0.0,0.0,0.0,0.0,0.0,1.3658,1.4842,1.6261,1.6688,1.6904,1.7001,1.7001,1.7001,1.6936,1.6936,1.6936,1.6872,1.6623,1.6439,1.6439,0.0,0.0,0.0,0.0,1.5281,1.4291,1.5339,1.5714,1.543,1.543,1.5267,1.4898,1.4898,1.4366,1.3539,1.445,1.4293,1.3487,1.4437,1.4866,1.4898,1.4898,1.4866,1.4824,1.4762,1.4758,1.4824,0.0,0.0,0.0,0.0,0.0,0.0,0.0,0.0,0.0,1.6,1.7814,1.9579,2.11,2.2799,2.3918,2.407,2.3626,2.2251,0.0,0.0,1.8376,2.1029,2.1239,2.227,2.4307,2.4361,2.4634,2.5168,2.5168,2.5205,2.5278,2.5278,2.5315,2.5388,2.5388,2.5433,2.5503,2.5816,2.5972,2.6035,2.608,2.5758,2.5219,2.4569,2.3957,2.3392,2.2782,2.2194,2.1416,1.9184,1.8286,1.7908,1.6521,0.0,0.0,0.0,0.0,0.0,0.0,0.0,0.0,0.0,0.0,0.0,0.0,0.0,0.0,0.0,0.0,0.0,0.0,0.0,0.0,1.381,1.4649,1.5443,1.6009,1.6136,1.6386,1.6936,1.7001,1.6872,1.6623,1.6591,1.6494,1.6201,1.6136,1.6104,1.6104,1.5328,1.459,1.4032,1.4238,1.4126,1.3513,1.4579,1.5094,1.5029,0.0,0.0,1.4898,1.4898,1.4781,1.4608,1.453,1.4382,1.4189,1.4409,1.467,1.4898,1.4898,1.4735,1.4423,1.3834,1.3978,1.4405,0.0,0.0,0.0,0.0,0.0,0.0,0.0,0.0,0.0,0.0,1.7027,1.8674,2.0336,2.1493,2.2408,2.3041,2.1783,0.0,0.0,1.9668,2.0042,2.2291,2.2511,2.316,2.4414,2.4432,2.4617,2.4945,2.4945,2.5053,2.5252,2.5252,2.536,2.554,2.554,2.554,2.5558,2.5766,2.5856,2.5793,2.5233,2.4994,2.4932,2.4401,2.3712,2.291,2.1907,2.1457,2.0999,1.8791,1.8077,1.7963,1.7069,1.6398,1.5806,0.0,0.0,0.0,0.0,0.0,0.0,0.0,0.0,0.0,0.0,0.0,0.0,0.0,0.0,1.2374,1.2261,0.0,1.3209,1.3713,1.4114,1.4617,1.5362,1.5323,1.5443,1.6159,1.6256,1.6191,1.6039,1.6006,1.6006,1.6006,1.5844,1.5756,1.5756,1.5116,1.4304,1.3373,1.3905,1.3738,1.2823,1.4039,1.4637,1.4637,1.4637,1.4637,1.4637,1.4473,1.4408,1.4408,1.4211,1.42,1.4298,1.4372,1.4508,1.4642,1.4642,1.4657,1.4623,1.4246,1.4414,1.4753,0.0,0.0,0.0,0.0,0.0,0.0,0.0,0.0,0.0,0.0,1.6262,1.774,1.9523,2.0042,2.0521,0.0,0.0,0.0,0.0,2.1132,2.1819,2.3796,2.3867,2.4069,2.4536,2.4553,2.4615,2.4739,2.4739,2.4898,2.5218,2.5218,2.5395,2.5706,2.5706,2.5706,2.5706,2.5706,2.5706,2.5624,2.464,2.4067,2.376,2.3508,2.2366,2.0773,1.9618,1.9179,1.893,1.7742,1.7292,1.722,1.7013,1.7119,1.694,1.5225,1.5606,0.0,0.0,0.0,0.0,0.0,0.0,0.0,0.0,1.2786,1.2849,1.2673,1.2781,1.2834,1.2662,1.2724,1.2956,1.352,1.3453,1.3669,1.4577,1.4473,1.4497,1.502,1.5248,1.5346,1.528,1.528,1.5378,1.5583,1.5323,1.5202,1.5202,1.4866,1.4203,1.3062,1.3838,1.3795,1.2675,1.379,1.4382,1.4394,1.4394,1.4394,1.4394,1.4121,1.3989,1.3989,1.3923,1.3986,1.4143,1.4266,1.4336,1.4404,1.4404,1.4583,1.479,1.479,1.4926,1.5032,0.0,0.0,0.0,0.0,0.0,0.0,0.0,0.0,0.0,0.0,0.0,0.0,0.0,0.0,0.0,0.0,0.0,0.0,1.9791,2.0612,2.1869,2.3668,2.3719,2.4024,2.4664,2.4664,2.4974,2.5582,2.5582,2.5572,2.5626,2.5626,2.5671,2.5706,2.5706,2.5706,2.5706,2.5706,2.5706,2.5679,2.5541,2.4667,2.3452,2.3424,2.2112,2.017,1.9214,1.8694,1.8506,1.8501,1.8344,1.8037,1.7309,1.6981,1.6611,1.5273,1.4709,1.4125,1.2249,1.1134,1.0621,1.1033,1.1977,1.2722,0.0,1.3582,1.4405,1.3696,1.4133,1.4613,1.4581,1.4345,1.4199,1.429,1.4026,1.3876,1.3997,1.3973,1.3884,1.3663,1.4408,1.4866,1.4539,1.4539,1.4432,1.4137,1.4104,1.4071,1.4071,1.4039,1.3938,1.3784,1.3896,1.3952,1.3982,1.4137,1.4269,1.4402,1.4402,1.4402,1.4402,1.4368,1.4334,1.4334,1.4028,1.39,1.3925,1.3951,1.413,1.4404,1.4404,1.4412,1.4479,1.4479,1.4488,1.4505,0.0,0.0,0.0,0.0,0.0,0.0,0.0,0.0,0.0,0.0,0.0,0.0,0.0,0.0,0.0,0.0,0.0,0.0,1.8977,2.0652,2.2336,2.3912,2.4008,2.4233,2.4737,2.4765,2.4906,2.5173,2.5173,2.5173,2.5173,2.5173,2.5173,2.5173,2.5173,2.5173,2.5173,2.5173,2.5173,2.5135,2.4626,2.4031,2.3393,2.2719,2.129,1.9486,1.8501,1.8039,0.0,0.0,1.6206,1.5968,1.6386,1.6077,1.5464,1.5124,1.4564,1.3816,1.2806,1.2269,1.2061,1.2427,1.3289,1.3983,1.3892,1.4598,1.5096,1.4519,1.4856,1.5137,1.4702,1.412,1.3798,1.4065,1.341,1.3026,1.3528,1.3424,1.3194,1.3071,1.3082,1.3079,1.3027,1.3494,1.3623,1.3115,1.3705,1.4084,1.4084,1.4165,1.4083,1.3915,1.3881,1.3857,1.373,1.3942,1.4044,1.4096,1.4096,1.4096,1.4096,1.3925,1.3822,1.3822,1.3758,1.3739,1.3747,1.3846,1.4001,1.4097,1.4097,1.4097,1.4142,1.4311,1.4474,1.4561,0.0,0.0,0.0,0.0,0.0,0.0,0.0,0.0,0.0,0.0,0.0,0.0,0.0,0.0,0.0,0.0,0.0,0.0,0.0,2.0961,2.2757,2.4306,2.4374,2.4494,2.4785,2.4785,2.4785,2.4785,2.4785,2.4785,2.4785,2.4785,2.4785,2.4785,2.4785,2.4785,2.4802,2.4932,2.4967,2.4917,2.4392,2.3918,2.3441,2.2631,2.0823,1.8652,1.7934,1.731,0.0,0.0,1.4543,1.4604,1.5074,1.4867,1.443,1.4317,1.3652,1.2957,1.2857,1.2727,1.2795,1.3438,1.4099,1.4616,1.4851,1.5137,1.5234,1.4833,1.4996,1.5006,1.4375,1.3703,1.339,1.3722,1.2984,1.2605,1.3235,1.312,1.2873,1.2548,1.2134,1.167,1.1234,1.2289,1.2929,1.2763,1.3518,1.3983,1.3983,1.4087,1.4028,1.3788,1.3753,1.3675,1.3449,1.3691,1.3854,1.3904,1.3904,1.3904,1.3904,1.3653,1.3549,1.3522,1.3625,1.3682,1.369,1.3634,1.3619,1.3575,1.3361,1.3253,1.3294,1.3542,1.3874,1.4193,0.0,0.0,0.0,0.0,0.0,0.0,0.0,0.0,0.0,0.0,0.0,0.0,0.0,0.0,0.0,0.0,0.0,0.0,2.0092,2.1527,2.303,2.4727,2.4768,2.4785,2.4785,2.4785,2.4785,2.4785,2.4785,2.4785,2.4785,2.4785,2.4785,2.4785,2.4785,2.4785,2.4819,2.5234,2.5389,2.5423,2.5714,2.4932,2.3579,2.3565,2.109,1.7642,1.7618,0.0,0.0,0.0,1.4554,1.5077,1.3514,1.3521,0.0,1.2577,1.1485,1.0863,1.163,1.128,1.1119,1.2937,1.3561,1.3939,1.4719,1.4898,1.4833,1.4473,1.4408,1.4342,1.3973,1.3637,1.3407,1.34,1.3228,1.3093,1.3117,1.3272,1.3003,1.1961,1.1939,1.1244,0.0,1.0915,1.2402,1.3322,1.3412,1.3428,1.3428,1.3437,1.3437,1.3402,1.3402,1.3457,1.3601,1.3601,1.3717,1.3888,1.3888,1.3888,1.3888,1.3888,1.3888,1.3888,1.3888,1.3896,1.3825,1.3146,1.2824,1.2753,1.1965,1.1678,1.1671,1.1664,1.2166,1.2853,0.0,0.0,0.0,0.0,0.0,0.0,0.0,0.0,0.0,0.0,0.0,0.0,0.0,0.0,0.0,0.0,1.5256,1.6236,1.7549,1.9479,2.1281,2.2877,2.3878,2.4528,2.4785,2.4785,2.4785,2.4785,2.4785,2.4785,2.4785,2.4785,2.4785,2.4802,2.5069,2.5217,2.5206,2.5583,2.5725,2.5743,2.6148,2.586,2.5064,2.3971,2.1444,1.8257,0.0,0.0,0.0,1.2063,1.1877,1.1843,1.1938,1.1786,1.138,1.0357,1.0779,1.1514,1.1114,1.1725,1.2625,1.34,1.3868,1.4166,1.4246,1.4235,1.4137,1.3809,1.3428,1.3039,1.2712,1.2179,1.1933,1.2283,1.1867,1.1914,1.3142,1.2304,1.1929,1.2767,1.1969,0.0,0.0,0.0,0.0,1.1644,1.2808,1.352,1.352,1.366,1.3725,1.3725,1.3725,1.375,1.3815,1.3815,1.3847,1.3904,1.3904,1.3904,1.3868,1.3396,1.3182,1.3154,1.2691,1.2518,1.2489,1.234,1.2272,1.2236,1.1978,1.1868,1.1868,1.1868,1.1683,1.151,0.0,0.0,0.0,0.0,0.0,0.0,0.0,0.0,0.0,0.0,0.0,0.0,0.0,0.0,0.0,0.0,0.0,1.5189,1.6272,0.0,1.9358,2.0832,2.1803,2.2459,2.2792,2.3381,2.3722,2.3819,2.446,2.4785,2.4785,2.4785,2.4898,2.5018,2.5286,2.5474,2.56,2.5715,2.5809,2.5909,2.543,2.511,2.4684,2.2646,1.9971,0.0,0.0,0.0,0.0,1.0082,1.0045,1.0146,1.0329,1.0133,0.9892,1.0214,1.0889,1.1596,1.174,1.2492,1.3327,1.3821,1.4089,1.417,1.394,1.3969,1.3914,1.3551,1.3221,1.2785,1.206,1.159,1.1407,1.1739,1.1435,1.1711,1.3254,1.2532,1.2125,1.2897,1.2165,1.1872,0.0,0.0,0.0,1.1432,1.254,1.3228,1.3228,1.336,1.3571,1.3888,1.3904,1.3904,1.3904,1.3904,1.3793,1.3526,1.3526,1.3413,1.3186,1.2714,1.238,1.2111,1.1946,1.1728,1.1499,1.1553,1.1575,1.1538,1.1276,1.1164,1.1164,1.1164,1.0485,0.9671,0.0,0.0,0.0,0.0,0.0,0.0,0.0,0.0,0.0,0.0,0.0,0.0,0.0,0.0,0.0,0.0,0.0,0.0,1.6126,0.0,0.0,1.8684,1.8836,1.8952,1.9157,2.0714,2.1613,2.1826,2.3612,2.4501,2.4528,2.4545,2.475,2.5138,2.5127,2.5321,2.561,2.5369,2.5446,2.5536,2.3582,2.2765,2.2435,1.9712,0.0,0.0,0.0,0.0,0.8675,0.8486,0.9242,1.0077,0.894,0.8836,0.9584,1.185,1.1696,1.1191,1.3254,1.3411,1.3192,1.4139,1.4104,1.3875,1.386,1.4009,1.3989,1.357,1.3604,1.3294,1.1916,1.1627,1.1635,1.1733,1.1825,1.2273,1.3399,1.3658,1.3409,1.2434,1.2467,0.0,0.0,0.0,0.0,1.2596,0.0,1.2661,1.2661,1.2661,1.3052,1.3872,1.3904,1.3904,1.3912,1.392,1.3578,1.2904,1.2904,1.2581,1.1986,1.1948,1.1556,1.0926,1.1586,1.1471,1.0853,1.0777,1.0696,1.0546,0.9876,0.9537,0.9462,0.9462,0.8469,0.7406,0.0,0.0,0.0,0.0,0.0,0.0,0.0,0.0,0.0,0.0,0.0,0.0,0.0,0.0,0.0,0.0,0.0,0.0,1.3867,0.0,0.0,0.0,0.0,0.0,0.0,0.0,0.0,1.9306,2.0211,2.0698,2.0857,2.1111,2.1329,2.1527,2.1687,2.185,2.2032,2.2217,2.1964,2.1362,0.0,1.9664,1.8592,0.0,0.0,0.0,0.0,0.0,0.8694,0.8637,0.9272,1.0178,1.076,1.1004,1.1153,1.1445,1.221,1.2856,1.2575,1.3231,1.4025,1.4042,1.3785,1.35,1.3328,1.316,1.2773,1.1996,1.1345,1.0628,0.972,0.916,0.929,1.0756,1.0558,1.0823,1.2596,1.2304,1.2052,1.2482,1.2572,1.2751,1.3116,1.3401,0.0,0.0,1.3181,1.3563,1.3563,1.3563,1.3669,1.3896,1.3904,1.3969,1.4107,1.4229,1.3877,1.3119,1.3119,1.2733,1.1986,1.1388,1.1008,1.0826,1.0502,1.0251,1.009,1.0155,0.9459,0.8336,0.8143,0.7293,0.6206,0.6206,0.5936,0.5665,0.0,0.0,0.0,0.0,0.0,0.0,0.0,0.0,0.0,0.0,0.0,0.0,0.0,0.0,0.0,0.0,0.0,0.0,0.0,1.3688,0.0,0.0,0.0,0.0,0.0,0.0,0.0,0.0,0.0,0.0,1.9468,1.9645,1.9906,2.0265,2.0346,2.0547,2.0761,2.0203,0.0,0.0,0.0,0.0,0.0,0.0,0.0,0.0,0.0,0.0,0.8968,0.979,1.0039,1.0324,1.2158,1.23,1.2039,1.3184,1.3454,1.3381,1.3508,1.3726,1.3916,1.372,1.3451,1.312,1.2547,1.2355,1.2044,1.0991,1.0426,0.982,0.888,0.8446,0.8739,1.0296,1.0306,1.0672,1.236,1.2157,1.1996,1.2539,1.2596,1.2946,1.3815,1.3904,1.3693,0.0,1.3288,1.3311,1.3311,1.3311,1.3565,1.401,1.4026,1.4107,1.4286,1.4346,1.3841,1.2756,1.2756,1.2189,1.1112,1.0656,1.0286,0.9954,0.0,0.9699,0.9444,0.9823,0.9431,0.853,0.779,0.6928,0.5991,0.5287,0.4544,0.3916,0.0,0.0,0.0,0.0,0.0,0.0,0.0,0.0,0.0,0.0,0.0,0.0,0.0,0.0,0.0,0.0,0.0,0.0,0.0,0.0,0.0,0.0,0.0,0.0,0.0,0.0,0.0,0.0,0.0,0.0,0.0,0.0,0.0,0.0,0.0,0.0,0.0,0.0,0.0,0.0,0.0,0.0,0.0,0.0,0.0,0.0,0.0,0.8656,0.925,1.1155,1.1113,1.0724,1.3237,1.3183,1.2724,1.5328,1.4669,1.3398,1.4734,1.4261,1.3375,1.3368,1.3219,1.2865,1.1987,1.1898,1.1654,1.0471,1.0193,0.9834,0.8818,0.8723,0.9162,1.0264,1.059,1.1057,1.2034,1.2393,1.2515,1.2401,1.2507,1.2946,1.3815,1.379,1.3782,1.3928,1.3248,1.2808,1.2808,1.2808,1.3256,1.418,1.4237,1.4318,1.4427,1.4452,1.3717,1.2222,1.2222,1.1453,0.998,0.998,0.9645,0.9092,0.971,0.9628,0.9103,0.9726,0.9747,0.9197,0.7751,0.6889,0.6342,0.4857,0.3409,0.2156,0.0,0.0,0.0,0.0,0.0,0.0,0.0,0.0,0.0,0.0,1.3712,1.3895,0.0,0.0,0.0,0.0,0.0,0.0,0.0,0.0,0.0,0.0,0.0,0.0,0.0,1.2696,1.282,1.2786,1.376,0.0,0.0,0.0,0.0,0.0,0.0,0.0,0.0,0.0,0.0,0.0,0.0,0.0,0.0,0.0,0.0,0.0,0.8646,0.8694,0.9072,1.1098,1.1768,1.2096,1.4073,1.4566,1.4326,1.4087,1.4073,1.3979,1.3212,1.321,1.3368,1.3178,1.3143,1.3124,1.3212,1.2515,1.1549,1.0563,0.9592,0.8891,0.8787,0.8781,0.9202,1.0452,1.0672,1.0536,1.0041,1.135,1.2077,1.1367,1.2059,1.2946,1.3815,1.3264,0.0,0.0,1.4021,1.3932,1.3932,1.3932,1.405,1.4375,1.4538,1.4627,1.4659,1.4797,1.4084,1.2461,1.2461,1.1586,0.998,0.998,0.9915,0.9802,0.9926,0.0,0.9807,0.9932,0.8375,0.5835,0.5561,0.3722,0.1255,0.0981,0.0667,0.0432,0.0,0.0,0.0,0.0,0.0,0.0,0.0,0.0,1.3437,1.3496,1.3573,1.3658,1.3672,1.3932,0.0,0.0,0.0,0.0,0.0,0.0,0.0,0.0,0.0,0.0,0.0,1.2351,1.2352,1.2459,0.0,1.2921,1.3016,1.3325,1.3429,1.3343,0.0,0.0,0.0,0.0,0.0,0.0,0.0,0.0,0.0,0.0,0.0,0.0,0.0,0.877,0.9071,1.0527,1.1227,1.1872,1.4172,1.4898,1.4738,1.395,1.3895,1.3935,1.2935,1.2923,1.3228,1.3109,1.3238,1.3099,1.2159,1.1479,1.0607,0.8958,0.8094,0.7605,0.755,0.7631,0.8308,1.0145,1.0493,1.0672,1.1008,1.1872,1.2311,1.188,1.2287,1.2767,1.3199,1.2849,1.2849,1.3433,1.3482,1.3725,1.4278,1.4399,1.4489,1.4533,1.4749,1.4838,1.4838,1.4506,1.3698,1.2501,1.2076,1.1223,0.998,0.998,0.998,0.998,0.998,0.0,0.9455,0.9829,0.8307,0.5682,0.5171,0.3488,0.1177,0.0314,0.0,0.0,0.0,0.0,0.0,0.0,0.0,0.0,0.0,1.345,1.345,1.345,1.345,1.3401,1.325,1.3607,1.3799,0.0,0.0,0.0,0.0,0.0,0.0,0.0,0.0,0.0,0.0,0.0,0.0,1.2694,1.2611,0.0,0.0,0.0,0.0,0.0,1.291,1.2325,1.1312,0.0,0.0,0.0,0.0,0.0,0.0,0.0,0.0,0.0,0.0,0.8807,0.9071,1.0001,1.0513,1.1161,1.3417,1.4226,1.4276,1.3765,1.362,1.3518,1.299,1.2974,1.3116,1.3189,1.3399,1.3115,1.1236,1.0571,0.9786,0.7763,0.6962,0.6676,0.678,0.6936,0.7768,0.995,1.0168,1.0563,1.2051,1.2222,1.2279,1.2515,1.2572,1.2686,1.2922,1.2767,0.0,1.3172,1.3277,1.365,1.4411,1.4667,1.4765,1.4765,1.4933,1.5006,1.5006,1.4122,1.3312,1.2501,1.1688,1.0835,0.998,0.998,0.998,0.998,0.998,0.0,0.0,0.9699,0.837,0.5838,0.522,0.3762,0.1803,0.0471,0.0,0.0,0.0,0.0,0.0,0.0,0.0,0.0,0.0,1.3317,1.3317,1.3317,1.3317,1.3243,1.3045,1.3654,1.4146,0.0,0.0,0.0,0.0,0.0,0.0,0.0,0.0,0.0,0.0,0.0,0.0,1.2352,1.2632,0.0,0.0,0.0,0.0,0.0,0.0,1.1418,0.9849,1.039,0.0,0.0,0.0,0.0,0.0,0.0,0.0,0.0,0.0,0.8713,0.8892,0.9944,1.0323,1.0508,1.135,1.2076,1.2637,1.2696,1.2725,1.2768,1.2996,1.3094,1.3173,1.348,1.3585,1.3342,1.2369,1.1155,0.9877,0.871,0.7366,0.6772,0.791,0.813,0.869,1.0371,0.0,0.947,1.0943,1.1,1.1232,1.2215,1.2499,1.2987,1.3972,1.3287,1.3261,1.4448,1.48,1.4881,1.4692,1.4846,1.4982,1.4982,1.4998,1.5006,1.5006,1.4122,1.3312,1.2501,1.1688,1.0835,0.998,0.998,0.998,0.998,0.998,0.0,0.0,0.9731,0.777,0.4371,0.4817,0.3057,0.0196,0.0039,0.0,0.0,0.0,0.0,0.0,0.0,0.0,0.0,0.0,1.359,1.3522,1.376,1.3558,1.3392,1.3316,1.3877,1.4181,0.0,0.0,0.0,0.0,0.0,0.0,0.0,0.0,0.0,0.0,0.0,1.2567,1.2475,1.2601,0.0,0.0,0.0,0.0,0.0,0.0,1.0471,0.9416,0.9359,0.0,0.0,0.0,0.0,0.0,0.0,0.0,0.0,0.0,0.0,0.877,0.9185,0.9327,0.9363,0.9502,0.9748,1.0067,1.0503,1.1478,1.2328,1.1787,1.2434,1.3319,1.3544,1.3682,1.3301,1.1552,1.0655,0.9673,0.7833,0.6895,0.6553,0.7074,0.7244,0.78,0.0,0.0,0.0,1.1668,1.1896,1.2254,1.3303,1.3685,1.3766,1.3547,0.0,1.3536,1.418,1.4351,1.4659,1.5171,1.526,1.5293,1.5293,1.5187,1.4897,1.4384,1.3433,1.2579,1.1766,1.0913,1.033,0.998,0.998,0.998,0.998,0.998,0.0,0.0,0.9595,0.7426,0.3557,0.4587,0.2939,0.0,0.0,0.0,0.0,0.0,0.0,0.0,0.0,0.0,1.3773,1.4053,1.3861,1.3769,1.4011,1.372,1.3496,1.3496,1.4037,1.4247,1.3867,0.0,0.0,0.0,0.0,0.0,0.0,0.0,0.0,0.0,0.0,1.2598,1.2598,1.2598,1.2521,0.0,0.0,1.2026,1.1865,0.0,0.0,0.0,0.0,0.0,0.0,0.0,0.0,0.0,0.0,0.0,0.0,0.0,0.0,0.0,0.0,0.0,0.8562,0.8262,0.8188,0.8367,0.9074,1.0501,1.174,1.1216,1.2247,1.3498,1.3642,1.3571,1.2905,1.0863,1.0046,0.9144,0.7106,0.6529,0.64,0.64,0.6562,0.7133,0.0,0.0,0.9648,1.1823,1.2124,1.2547,1.3644,1.4002,1.4042,1.3758,1.3974,1.4209,1.4367,1.4424,1.4789,1.5553,1.5593,1.5545,1.5439,1.527,1.4899,1.4298,1.3099,1.2231,1.165,1.0525,0.9888,0.9726,0.9899,0.9888,0.9731,0.9905,0.0,0.0,0.9563,0.7355,0.345,0.4554,0.2955,0.0,0.0,0.0,0.0,0.0,0.0,0.0,0.0,0.0,0.0,0.0,1.4108,1.4046,1.3919,1.3674,1.3496,1.3496,1.4037,1.4412,1.4379,0.0,0.0,0.0,0.0,0.0,0.0,0.0,0.0,0.0,0.0,1.2598,1.2598,1.2598,1.2598,1.2598,1.2259,1.2131,1.2142,0.0,0.0,0.0,0.0,0.0,0.0,0.0,0.0,0.0,0.0,0.0,0.0,0.0,0.0,0.0,0.0,0.0,0.0,0.0,0.7691,0.7988,0.0,0.996,1.1,1.1758,1.2775,1.365,1.3855,1.31,1.1996,1.0693,0.9478,0.8248,0.696,0.6529,0.64,0.64,0.657,0.7163,0.8562,0.8974,0.0,1.0837,1.1017,1.1451,1.2669,1.2823,1.3447,1.5027,1.5343,1.5496,1.5496,1.5658,0.0,1.5812,1.5812,1.561,1.5213,1.5197,1.5116,1.5006,1.3312,1.2501,1.2463,1.0796,0.9677,0.913,0.9715,0.9661,0.9141,0.0,0.0,0.0,0.9737,0.7661,0.4164,0.4766,0.2952,0.0,0.0,0.0,0.0,0.0,0.0,0.0,0.0,0.0,0.0,0.0,1.4081,1.3829,1.4014,1.3641,1.3463,1.3747,1.427,1.4646,1.4732,0.0,0.0,0.0,0.0,0.0,0.0,0.0,0.0,0.0,0.0,1.2508,1.2743,1.2648,1.2598,1.2598,1.2351,1.1885,1.1185,1.0032,0.9066,0.0,0.0,0.0,0.0,0.0,0.0,0.0,0.0,0.0,0.0,0.0,0.0,0.0,0.0,0.0,0.0,0.0,0.0,0.0,0.7377,0.8415,0.9535,0.9763,1.0534,1.1305,1.1454,1.1183,1.0536,0.9259,0.8666,0.8045,0.6765,0.644,0.64,0.64,0.6685,0.732,0.8587,0.9072,0.0,1.2125,1.245,1.2889,1.414,1.4513,1.4921,1.5675,0.0,1.5043,1.578,1.5205,1.5122,1.578,1.5812,1.5723,1.561,1.5327,1.4938,1.4329,1.3092,1.2231,1.1688,1.0525,0.9672,0.9119,0.971,0.9661,0.0,0.0,0.0,0.0,0.9867,0.8488,0.5898,0.5335,0.3793,0.1699,0.0451,0.0,0.0,0.0,0.0,0.0,0.0,0.0,0.0,0.0,1.4213,1.3949,1.4347,1.3894,1.3702,1.4153,1.4609,1.4916,1.5019,0.0,0.0,0.0,0.0,0.0,0.0,0.0,0.0,0.0,1.2289,1.2352,1.2616,1.2196,1.2072,1.2209,1.1635,1.1094,1.0555,0.9353,0.8514,0.0,0.0,0.0,0.0,0.0,0.0,0.8532,0.0,0.0,0.0,0.0,0.0,0.0,0.0,0.0,0.0,0.0,0.0,0.0,0.0,0.7258,0.8164,0.8583,0.9429,1.0219,1.0306,0.9966,0.9364,0.8509,0.7975,0.7447,0.6578,0.678,0.6958,0.6489,0.7098,0.7776,0.8065,0.9233,1.0463,1.1562,1.2238,1.2913,1.3758,1.4594,1.5325,0.0,1.5359,1.5278,1.595,1.5318,1.5179,1.578,1.5642,1.5569,1.5569,1.5318,1.493,1.4392,1.3131,1.2269,1.1727,1.0563,0.9672,0.9119,0.971,0.9661,0.0,0.0,0.0,0.0,1.0019,0.8638,0.6135,0.5445,0.3756,0.1556,0.0415,0.0,0.0,0.0,0.0,0.0,0.0,0.0,0.0,0.0,0.0,0.0,1.4815,1.4327,1.4137,1.4659,1.5018,1.5206,1.524,0.0,0.0,0.0,0.0,0.0,0.0,0.0,0.0,0.0,1.2197,1.2166,1.2228,1.1464,1.1229,1.1451,1.0364,0.9978,1.0116,0.8818,0.8162,0.0,0.0,0.0,0.0,0.0,0.0,0.0,0.0,0.0,0.0,0.0,0.0,0.0,0.0,0.0,0.0,0.0,0.0,0.0,0.0,0.0,0.0,0.0,0.914,0.9942,0.9942,0.9185,0.8395,0.8195,0.7391,0.0,0.6553,0.748,0.7935,0.6748,0.785,0.8544,0.7331,0.9421,1.0834,0.9698,1.0919,1.1947,1.2021,1.348,1.4814,1.5625,1.5829,1.5975,1.5983,1.5853,1.5796,1.5796,1.5423,1.5197,1.5181,1.5181,1.5139,1.5006,1.3351,1.2474,1.242,1.0773,0.965,0.9054,0.9693,0.9661,0.0,0.0,0.0,0.0,1.0221,0.8318,0.5364,0.5262,0.3142,0.0166,0.0042,0.0,0.0,0.0,0.0,0.0,0.0,0.0,0.0,0.0,0.0,0.0,0.0,1.448,1.4445,1.4883,1.5104,1.5326,0.0,0.0,0.0,0.0,0.0,0.0,0.0,0.0,0.0,0.0,1.2423,1.2167,1.1542,1.1734,1.1338,1.0379,1.0409,0.9887,0.8914,0.8685,0.8154,0.7403,0.0,0.0,0.0,0.0,0.0,0.0,0.0,0.0,0.0,0.842,0.8203,0.0,0.0,0.0,0.0,0.0,0.0,0.0,0.0,0.6538,0.6731,0.6861,0.0,0.7532,0.7532,0.7212,0.6911,0.0,0.6643,0.6724,0.7659,0.8081,0.8203,0.7902,0.9169,0.9843,0.8584,1.0095,1.133,1.1037,1.2272,1.3011,1.2531,1.4107,1.5074,1.464,1.5212,1.5691,1.5829,1.5675,1.5577,1.5577,1.5327,1.5132,1.5033,1.5033,1.5047,1.5006,1.3351,1.2285,1.1798,1.0594,0.9434,0.8448,0.9504,0.9661,0.0,0.0,0.0,1.0215,1.044,0.9214,0.7151,0.5864,0.4015,0.1885,0.0505,0.0,0.0,0.0,0.0,0.0,0.0,0.0,0.0,0.0,0.0,0.0,0.0,0.0,0.0,0.0,0.0,0.0,0.0,0.0,0.0,0.0,0.0,0.0,0.0,0.0,0.0,1.1729,1.1761,1.1395,1.0607,1.0502,1.0193,0.9725,0.9354,0.8867,0.8307,0.8193,0.7851,0.7333,0.745,0.7738,0.8102,0.8102,0.0,0.0,0.0,0.0,0.0,0.8288,0.8069,0.0,0.7927,0.7764,0.7477,0.0,0.0,0.0,0.0,0.6474,0.6536,0.642,0.6474,0.6708,0.7285,0.692,0.6553,0.7147,0.6813,0.6756,0.8032,0.8292,0.8292,0.8292,0.9137,0.9608,0.8911,0.9818,1.0899,1.1638,1.2451,1.2881,1.2523,1.3465,1.4131,0.0,1.4944,1.5553,1.565,1.5488,1.5351,1.5351,1.5212,1.5065,1.5006,1.5006,1.5006,1.5006,1.3698,1.2578,1.16,1.0938,0.9905,0.8643,0.9563,0.984,0.0,0.0,0.0,1.0391,1.0189,0.9247,0.79,0.6989,0.5036,0.2564,0.1598,0.0715,0.0,0.0,0.0,0.0,0.0,0.0,0.0,0.0,0.0,0.0,0.0,0.0,0.0,0.0,0.0,0.0,0.0,0.0,0.0,0.0,0.0,0.0,0.0,0.0,1.2047,1.0986,1.0821,1.0346,0.9544,0.8966,0.8814,0.9094,0.8069,0.7773,0.808,0.7753,0.7575,0.7556,0.7605,0.7814,0.8102,0.814,0.0,0.0,0.0,0.0,0.0,0.0,0.0,0.0,0.7747,0.7605,0.7381,0.7278,0.0,0.0,0.0,0.0,0.0,0.6439,0.6435,0.6749,0.7983,0.7391,0.6814,0.8016,0.7342,0.6845,0.8284,0.8598,0.8606,0.8617,0.9178,0.9478,0.8927,0.9429,1.0377,1.1803,1.228,1.2426,1.232,1.2678,0.0,1.3798,1.4814,1.5447,1.5432,1.5262,1.5173,1.5197,1.5065,1.5006,1.5006,1.5006,1.5006,1.5006,1.4122,1.3065,1.1776,1.1578,1.0726,0.9333,0.9921,1.0224,1.0172,0.0,0.0,1.0549,0.9921,0.9071,0.8094,0.7801,0.5664,0.2646,0.2396,0.1304,0.0,0.0,0.0,0.0,0.0,0.0,0.0,0.0,0.0,0.0,0.0,0.0,0.0,0.0,0.0,0.0,0.0,0.0,0.0,0.0,0.0,0.0,0.0,1.1718,1.1136,1.0843,1.0526,0.9741,0.8436,0.9102,0.8864,0.7791,0.7929,0.8031,0.8097,0.8027,0.7915,0.7777,0.8119,0.8197,0.8121,0.8293,0.0,0.0,0.0,0.0,0.0,0.0,0.0,0.0,0.7536,0.729,0.6994,0.6966,0.0,0.0,0.0,0.0,0.0,0.665,0.6651,0.6921,0.8016,0.7597,0.7159,0.8094,0.7439,0.7269,0.9453,0.9901,0.995,1.0053,1.1973,1.2548,0.9551,1.0266,1.1403,1.1924,1.271,1.2986,1.2377,0.0,1.4359,1.3706,1.4513,1.5114,1.5229,1.5114,1.5074,1.5189,1.5065,1.5006,1.5006,1.5006,1.5006,1.5006,1.4122,1.3327,1.262,1.2405,1.1583,1.0207,1.0882,1.0814,1.021,0.0,1.0462,1.0599,1.0547,0.954,0.7968,0.6417,0.4533,0.2522,0.0968,0.0253,0.0,0.0,0.0,0.0,0.0,0.0,0.0,0.0,0.0,0.0,0.0,0.0,0.0,0.0,0.0,0.0,0.0,0.0,0.0,0.0,0.0,0.0,1.1259,1.0115,0.9504,0.9548,0.961,0.8985,0.7652,0.83,0.8293,0.7669,0.7955,0.7974,0.7792,0.8002,0.7988,0.7816,0.8102,0.8255,0.8274,0.0,0.0,0.0,0.0,0.0,0.0,0.0,0.0,0.0,0.0,0.7273,0.7035,0.6889,0.0,0.0,0.0,0.0,0.0,0.6546,0.6598,0.708,0.8885,0.8155,0.7584,0.9795,0.8503,0.7678,1.0574,0.9632,0.8731,1.0142,1.0863,1.1037,1.0355,1.2004,1.323,1.2816,1.3197,1.3401,0.0,0.0,1.4055,1.365,1.4448,1.5039,1.5082,1.5017,1.5039,1.509,1.5009,1.5006,1.5006,1.5006,1.5006,1.5006,1.4584,1.385,1.2803,1.3042,1.2449,1.121,1.1357,1.1305,1.1062,0.0,1.0237,1.0628,1.0297,0.99,0.9434,0.8595,0.6585,0.3822,0.1009,0.0,0.0,0.0,0.0,0.0,0.0,0.0,0.0,0.0,0.0,0.0,0.0,0.0,0.0,0.0,0.0,0.0,0.0,0.0,0.0,0.0,0.0,1.1462,1.0054,0.8738,0.815,0.8371,0.8513,0.8117,0.7138,0.7493,0.7713,0.7804,0.7899,0.7844,0.7651,0.7958,0.8025,0.7888,0.8139,0.8312,0.8399,0.0,0.0,0.0,0.0,0.0,0.0,0.0,0.0,0.0,0.0,0.0,0.0,0.0,0.0,0.0,0.6441,0.64,0.6408,0.6456,0.6579,0.7213,0.934,0.8455,0.791,1.1244,0.9462,0.8037,1.1317,0.9681,0.8292,1.045,0.9989,0.982,1.1459,1.3376,1.444,1.3866,1.3863,1.3917,1.3917,1.3917,1.3917,1.3917,1.457,1.5006,1.5006,1.5006,1.5006,1.5006,1.5006,1.5006,1.5006,1.5006,1.5006,1.5006,1.5006,1.4431,1.3308,1.3778,1.346,1.2369,1.2153,1.2002,1.183,1.0624,1.0341,1.0652,1.0144,1.0242,1.0654,1.0232,0.7927,0.4365,0.1178,0.0,0.0,0.0,0.0,0.0,0.0,0.0,0.0,0.0,0.0,0.0,0.0,0.0,0.0,0.0,0.0,0.0,0.0,0.0,0.0,0.0,0.0,1.0124,0.9145,0.8112,0.7698,0.8032,0.7386,0.7001,0.6925,0.714,0.7439,0.7794,0.7622,0.7737,0.8061,0.8085,0.8098,0.8096,0.8504,0.8551,0.8418,0.8608,0.0,0.0,0.0,0.0,0.0,0.0,0.0,0.0,0.0,0.0,0.0,0.0,0.0,0.626,0.6367,0.64,0.644,0.6627,0.6831,0.7287,0.8584,0.8031,0.8026,1.1271,0.9648,0.8338,1.1365,1.1159,1.0769,1.1955,1.1687,1.1711,1.3044,1.3506,1.3966,1.4787,0.0,1.4909,1.4909,1.4909,1.4909,1.4909,1.4966,1.5006,1.5006,1.5006,1.5006,1.5006,1.5006,1.5006,1.5006,1.5006,1.5006,1.5006,1.5006,1.4935,1.4832,1.4897,1.4523,1.3854,1.3951,1.3218,1.1908,1.1899,1.147,1.069,1.0641,1.0647,1.0529,0.8933,0.6083,0.2646,0.0715,0.0,0.0,0.0,0.0,0.0,0.0,0.0,0.0,0.0,0.0,0.0,0.0,0.0,0.0,0.0,0.0,0.0,0.0,0.0,0.0,0.0,0.0,0.9512,0.7944,0.7625,0.7443,0.7318,0.7213,0.7026,0.6778,0.7315,0.7719,0.7998,0.8167,0.8264,0.8293,0.8295,0.8225,0.8116,0.8383,0.8458,0.8403,0.8477,0.8514,0.0,0.0,0.0,0.0,0.0,0.0,0.0,0.0,0.6947,0.6778,0.6592,0.6428,0.6327,0.6383,0.64,0.6416,0.6489,0.6629,0.722,0.9178,0.8327,0.7926,1.1401,1.0184,0.9242,1.2515,1.133,0.9809,1.0193,1.1374,1.2459,1.2906,1.3805,1.4578,1.4958,1.5006,1.5006,1.5006,1.5006,1.5006,1.5006,1.5006,1.5006,1.5006,1.5006,1.5006,1.5006,1.5006,1.5006,1.5006,1.5006,1.5006,1.5006,1.5006,1.5025,1.5139,1.5139,1.5072,1.494,1.4551,1.4109,1.3597,1.2542,1.2193,1.2353,1.1772,1.1896,1.2056,0.8586,0.6411,0.4782,0.1262,0.0,0.0,0.0,0.0,0.0,0.0,0.0,0.0,0.0,0.0,0.0,0.0,0.0,0.0,0.0,0.0,0.0,0.0,0.0,0.0,1.1472,1.0758,0.946,0.7437,0.756,0.7461,0.7038,0.7276,0.7241,0.6949,0.7557,0.8003,0.8284,0.8425,0.8459,0.839,0.831,0.8211,0.8104,0.8254,0.83,0.8297,0.8297,0.8297,0.0,0.0,0.0,0.0,0.0,0.0,0.0,0.0,0.6912,0.6792,0.0,0.6431,0.64,0.64,0.64,0.6416,0.6481,0.6604,0.7217,0.9251,0.8424,0.801,1.1511,1.0515,0.9778,1.2848,1.1996,1.0601,1.027,1.1728,1.2976,1.2928,1.3845,1.4643,1.4966,1.5006,1.5006,1.5006,1.5006,1.5006,1.5006,1.5006,1.5006,1.5006,1.5006,1.5006,1.5006,1.5006,1.5006,1.5006,1.5006,1.5006,1.5006,1.5025,1.5114,1.5205,1.5318,1.5472,1.5561,1.5118,1.4809,1.4631,1.3431,1.31,1.3342,1.2768,1.2519,1.2175,0.8244,0.6369,0.5365,0.143,0.0,0.0,0.0,0.0,0.0,0.0,0.0,0.0,0.0,0.0,0.0,0.0,0.0,0.0,0.0,0.0,0.0,0.0,0.0,0.0,1.0496,1.0698,0.9936,0.7794,0.7887,0.7785,0.7317,0.7496,0.7563,0.7505,0.7841,0.8253,0.8697,0.8216,0.8147,0.8401,0.8133,0.8049,0.8098,0.8112,0.8107,0.8097,0.8097,0.8097,0.8069,0.0,0.0,0.0,0.0,0.0,0.0,0.0,0.6704,0.6629,0.6229,0.0,0.0,0.6416,0.6408,0.644,0.666,0.6857,0.729,0.8503,0.8154,0.8354,1.1549,1.0639,0.977,1.2124,1.3451,1.3888,1.2961,1.3133,0.0,1.341,1.353,1.3925,1.4876,1.5006,1.5006,1.5006,1.5006,1.5006,1.5006,1.5006,1.5006,1.5006,1.5006,1.5006,1.5006,1.5006,1.5006,1.5006,1.5006,1.5006,1.5006,1.5147,1.5205,1.5205,1.5601,1.5812,1.5812,1.5812,1.538,1.4713,1.4713,1.4217,1.3424,1.3424,1.2341,1.0471,0.7789,0.5616,0.3694,0.1009,0.0,0.0,0.0,0.0,0.0,0.0,0.0,0.0,0.0,0.0,0.0,0.0,0.0,0.0,0.0,0.0,0.0,0.0,0.0,0.0,1.0743,0.9916,0.9008,0.8094,0.8012,0.7959,0.7853,0.8151,0.8172,0.7918,0.8253,0.8493,0.8627,0.8631,0.8633,0.8635,0.9272,0.8923,0.7962,0.8987,0.8846,0.7906,0.8,0.7966,0.7878,0.0,0.0,0.0,0.0,0.0,0.0,0.0,0.0,0.0,0.64,0.0,0.6578,0.7472,0.7106,0.6634,0.7735,0.7437,0.7108,0.8449,0.8528,0.8647,1.0087,1.0314,1.0704,1.2402,1.2977,1.2936,1.2003,1.3166,0.0,1.3232,1.3942,1.4667,1.4966,1.5006,1.5006,1.5006,1.5006,1.5006,1.5006,1.5006,1.5006,1.5006,1.5006,1.5006,1.5006,1.5006,1.5006,1.5006,1.509,1.5155,1.5155,1.5302,1.5496,1.5618,1.5723,1.5812,1.5821,1.5902,1.5827,1.5587,1.4961,1.4878,1.5216,1.5216,1.4176,1.2341,0.9665,0.7497,0.5496,0.2144,0.0926,0.0842,0.0,0.0,0.0,0.0,0.0,0.0,0.0,0.0,0.0,0.0,0.0,0.0,0.0,0.0,0.0,0.0,0.0,0.0,0.0,0.988,0.9158,0.836,0.8265,0.8303,0.8442,0.871,0.8702,0.8422,0.8524,0.8575,0.8602,0.8616,0.8552,0.8449,0.8978,0.8683,0.7851,0.8666,0.8495,0.7688,0.7839,0.7839,0.7762,0.0,0.0,0.0,0.0,0.0,0.0,0.0,0.0,0.0,0.6482,0.674,0.7228,0.7572,0.7472,0.7472,0.8414,0.8113,0.7959,0.9754,0.9592,0.921,1.0037,1.059,1.137,1.3027,1.339,1.3291,1.2794,1.3853,0.0,1.391,1.4471,1.5006,1.5006,1.5006,1.5006,1.5006,1.5006,1.5006,1.5006,1.5006,1.5006,1.5006,1.5006,1.5006,1.5006,1.5006,1.5039,1.5074,1.514,1.5237,1.531,1.5528,1.5666,1.5812,1.5845,1.5886,1.5886,1.5958,1.6007,1.5966,1.5422,1.5505,1.6007,1.6007,1.4548,1.2127,1.0164,0.7873,0.5332,0.2774,0.164,0.122,0.0,0.0,0.0,0.0,0.0,0.0,0.0,0.0,0.0,0.0,1.2585,0.0,0.0,0.0,0.0,0.0,0.0,0.0,0.0,0.0,0.9839,0.8576,0.8612,0.8765,0.9006,0.9136,0.9105,0.8912,0.8657,0.8575,0.861,0.8362,0.8158,0.801,0.7928,0.7837,0.7757,0.7695,0.7591,0.7505,0.7658,0.7717,0.7694,0.7727,0.0,0.0,0.0,0.0,0.0,0.0,0.0,0.0,0.6498,0.7204,0.7951,0.7092,0.7662,0.8631,0.887,0.8862,0.9315,1.1492,1.0826,0.9931,1.1179,1.1398,1.1876,1.3807,1.427,1.4379,1.4684,1.4901,1.5006,1.5006,1.5006,1.5006,1.5006,1.5006,1.5006,1.5006,1.5006,1.5006,1.5006,1.5006,1.5006,1.5006,1.5006,1.5006,1.5031,1.5031,1.5074,1.5221,1.5237,1.5327,1.5536,1.5707,1.5837,1.5796,1.5926,1.6007,1.6007,1.6007,1.6007,1.6007,1.6007,1.5917,1.5752,1.5752,1.3666,1.0377,0.9582,0.7167,0.3994,0.3071,0.2146,0.1388,0.0,0.0,0.0,0.0,0.0,0.0,0.0,0.0,0.0,0.0,0.0,0.0,0.0,0.0,0.0,0.0,0.0,0.0,0.0,0.0,0.8843,0.8585,0.8939,0.9097,0.9006,0.9136,0.9157,0.9052,0.8941,0.8846,0.8755,0.8589,0.8395,0.8181,0.8893,0.858,0.7629,0.8482,0.831,0.7528,0.7763,0.7803,0.7727,0.7993,0.8056,0.0,0.0,0.0,0.0,0.0,0.0,0.0,0.6416,0.6586,0.695,0.7724,0.8159,0.8601,0.9745,0.9372,0.8867,0.9787,0.9811,1.0288,1.2946,1.2961,1.2815,1.4079,1.3961,1.3907,1.4787,1.4982,1.5006,1.5006,1.5006,1.5006,1.5006,1.5006,1.5006,1.5006,1.5006,1.5006,1.5006,1.5006,1.5006,1.5006,1.5006,1.5063,1.5132,1.514,1.5229,1.5408,1.5585,1.5675,1.5755,1.5894,1.595,1.595,1.5983,1.6007,1.6007,1.6007,1.6007,1.6007,1.6007,1.5216,1.3962,1.3962,1.1837,0.8549,0.8382,0.7007,0.492,0.3281,0.2566,0.2188,0.0,0.0,0.0,0.0,0.0,0.0,0.0,0.0,0.0,0.0,0.0,0.0,0.0,0.0,0.0,0.0,0.0,0.0,0.0,0.0,0.8772,0.8939,0.9076,0.914,0.9094,0.9133,0.9096,0.8953,0.8929,0.8765,0.8506,0.8438,0.8203,0.7877,0.8386,0.8135,0.74,0.8082,0.8021,0.7471,0.7673,0.7832,0.7951,0.8026,0.8151,0.8242,0.7993,0.0,0.0,0.0,0.0,0.0,0.0,0.0,0.7342,0.7488,0.8008,0.8706,0.9437,0.9624,0.982,1.0699,1.1318,1.2004,1.3254,1.3536,1.3747,1.4395,1.427,1.4205,1.4884,1.5006,1.5006,1.5006,1.5006,1.5006,1.5006,1.5006,1.5006,1.5006,1.5006,1.5006,1.5006,1.5006,1.5006,1.5006,1.5049,1.5139,1.5197,1.5286,1.5455,1.5634,1.5764,1.5813,1.5902,1.5958,1.6007,1.6007,1.6007,1.6007,1.6007,1.6007,1.6007,1.6007,1.6007,1.5002,1.3383,1.3383,1.1256,0.7968,0.7547,0.6295,0.4584,0.3197,0.2398,0.1892,0.0,0.0,0.0,0.0,0.0,0.0,0.0,0.0,0.0,0.0,0.0,0.0,0.0,0.0,0.0,0.0,0.0,0.0,0.0,0.0,0.0,0.9285,0.9182,0.9154,0.9241,0.915,0.9009,0.8808,0.8808,0.8701,0.849,0.849,0.8307,0.7971,0.7843,0.7598,0.7258,0.7388,0.7409,0.7361,0.7556,0.7834,0.8131,0.8033,0.8253,0.8522,0.7984,0.7839,0.7812,0.7162,0.0,0.0,0.0,0.0,0.7789,0.6911,0.7634,0.8708,0.8708,0.9689,1.1017,1.2246,1.2986,1.3384,1.3131,1.3642,1.431,1.4676,1.4757,1.4797,1.4982,1.5006,1.5006,1.5006,1.5006,1.5006,1.5006,1.5006,1.5006,1.5006,1.5006,1.5006,1.5006,1.5006,1.5015,1.5047,1.5155,1.5229,1.5286,1.548,1.5642,1.5813,1.5821,1.5894,1.5999,1.6007,1.6007,1.6007,1.6007,1.6007,1.6007,1.6007,1.6007,1.6007,1.6007,1.4837,1.2921,1.2921,1.0798,0.7467,0.6585,0.5332,0.3868,0.2819,0.1976,0.1262,0.0,0.0,0.0,0.0,0.0,0.0,0.0,0.0,0.0,0.0,0.0,0.0,0.0,0.0,0.0,0.0,0.0,0.0,0.9228,0.0,0.0,0.9296,0.9449,0.9504,0.9455,0.9219,0.9009,0.8808,0.8808,0.9106,0.9676,0.9676,0.9737,0.9816,0.9242,0.8415,0.7445,0.7305,0.7194,0.7175,0.761,0.7837,0.7981,0.8302,0.8457,0.8446,0.7907,0.7651,0.7487,0.6928,0.6614,0.0,0.0,0.0,0.6626,0.6481,0.7358,0.8357,0.8357,0.9502,1.0956,1.2069,1.1955,1.2013,1.3779,1.369,1.3587,1.4738,1.4966,1.4974,1.4998,1.5006,1.5006,1.5006,1.5006,1.5006,1.5006,1.5006,1.5006,1.5006,1.5006,1.5006,1.5006,1.5006,1.5033,1.5148,1.5189,1.5335,1.5683,1.5764,1.5821,1.5966,1.5966,1.5983,1.6007,1.6007,1.6007,1.6007,1.6007,1.6007,1.6007,1.6007,1.6007,1.6007,1.6007,1.4128,1.1042,1.1042,0.8966,0.5633,0.4707,0.4204,0.3784,0.2103,0.1388,0.1178,0.0,0.0,0.0,0.0,0.0,0.0,0.0,0.0,0.0,0.0,0.0,0.0,0.0,0.0,0.0,1.0017,0.9562,0.9254,0.9195,0.9232,0.9314,0.9452,0.9407,0.9413,0.949,0.9355,0.9125,0.8808,0.8695,0.9408,1.0897,1.0716,1.0355,0.989,1.0394,0.9418,0.7506,0.8314,0.8168,0.7389,0.7483,0.7835,0.8278,0.8074,0.8232,0.8474,0.7907,0.0,0.7423,0.6975,0.663,0.64,0.64,0.0,0.0,0.0,0.6879,0.7711,0.9104,0.9543,1.0241,1.2735,1.2207,1.1695,1.405,1.3815,1.3449,1.4746,1.5006,1.5006,1.5006,1.5006,1.5006,1.5006,1.5006,1.5006,1.5006,1.5006,1.5006,1.5006,1.5006,1.5006,1.5006,1.5057,1.5155,1.5197,1.5423,1.561,1.5804,1.5869,1.5918,1.5999,1.6007,1.6007,1.6007,1.6007,1.6007,1.6007,1.6007,1.6007,1.6007,1.6007,1.6007,1.5966,1.4961,1.3087,1.0627,0.9586,0.7379,0.4542,0.3616,0.2943,0.2313,0.1052,0.0589,0.0505,0.0,0.0,0.0,0.0,0.0,0.0,0.0,0.0,0.0,0.0,0.0,0.0,0.0,0.0,0.0,0.0,0.9453,0.9174,0.9292,0.9238,0.9314,0.959,0.9334,0.9276,0.9477,0.9405,0.919,0.8799,0.8652,0.9495,1.1267,1.1274,1.091,1.0337,1.1287,1.0477,0.8515,0.956,0.9259,0.8098,0.8152,0.8288,0.8453,0.8013,0.8168,0.8518,0.7866,0.0,0.0,0.0,0.0,0.64,0.64,0.64,0.0,0.0,0.0,0.709,0.9267,0.9275,0.9429,1.2523,1.1945,1.1171,1.3384,1.3303,1.3134,1.4347,1.4811,1.5006,1.5006,1.5006,1.5006,1.5006,1.5006,1.5006,1.5006,1.5006,1.5006,1.5006,1.5006,1.5023,1.5033,1.5155,1.5237,1.5327,1.5618,1.5796,1.5837,1.5934,1.6007,1.6007,1.6007,1.6007,1.6007,1.6007,1.6007,1.6007,1.6007,1.6007,1.6007,1.6007,1.5752,1.5257,1.3962,1.2376,1.0544,0.8757,0.6546,0.4246,0.3155,0.2272,0.1514,0.0421,0.0,0.0,0.0,0.0,0.0,0.0,0.0,0.0,0.0,0.0,0.0,0.0,0.0,0.0,1.0031,0.9699,0.9438,0.928,0.9046,0.9111,0.9547,0.9335,0.9314,0.959,0.9276,0.0,0.9411,0.9339,0.9148,0.8806,0.8788,0.9236,1.0124,1.1052,1.1736,1.2159,1.1845,1.1555,1.1247,0.0,0.0,0.0,1.0212,0.9604,0.8238,0.8469,0.0,0.0,0.0,0.0,0.0,0.0,0.0,0.0,0.0,0.64,0.64,0.0,0.0,0.0,0.804,0.8357,0.8731,1.0444,1.0178,0.9852,1.1321,1.176,1.2181,1.3264,1.4298,1.5006,1.5006,1.5006,1.5006,1.5006,1.5006,1.5006,1.5006,1.5006,1.5006,1.5006,1.5006,1.5033,1.5164,1.5197,1.5382,1.5764,1.5804,1.5845,1.5983,1.5999,1.6007,1.6007,1.6007,1.6007,1.6007,1.6007,1.6007,1.6007,1.6007,1.6007,1.6007,1.6007,1.5092,1.3549,1.3424,1.2376,1.0544,0.8757,0.6926,0.5132,0.3407,0.265,0.2398,0.0631,0.0,0.0,0.0,0.0,0.0,0.0,0.0,0.0,0.0,0.0,0.0,0.0,0.0,0.0,0.0,0.9564,0.9285,0.9381,0.9172,0.9172,0.9512,0.9167,0.9097,0.9461,0.9236,0.9237,0.9517,0.9417,0.912,0.8602,0.8484,0.8745,0.9356,0.9775,1.0543,1.1673,1.3506,1.2997,1.0842,1.2536,0.0,0.0,0.0,0.0,0.0,0.0,0.0,0.0,0.0,0.0,0.0,0.0,0.0,0.0,0.0,0.0,0.0,0.64,0.64,0.6699,0.8118,0.798,0.798,1.017,0.9583,0.8991,1.0891,1.1549,1.1937,1.241,1.3815,1.4827,1.4221,1.4578,1.5006,1.5006,1.5006,1.5006,1.5006,1.5006,1.5006,1.5006,1.5065,1.5171,1.5197,1.5447,1.5634,1.5804,1.5177,1.513,1.5958,1.5285,1.522,1.5983,1.6007,1.6007,1.6007,1.6007,1.6007,1.6007,1.6007,1.6007,1.5966,1.4837,1.4011,1.3259,1.0923,0.955,0.8841,0.7052,0.5295,0.3617,0.2945,0.1977,0.0884,0.0253,0.0,0.0,0.0,0.0,0.0,0.0,0.0,0.0,0.0,0.0,0.0,0.0,0.0,0.0,0.0,0.0,0.9136,0.9253,0.9097,0.9075,0.9277,0.8981,0.8924,0.9209,0.9086,0.9103,0.9332,0.9235,0.8937,0.8427,0.8205,0.828,0.8609,0.899,0.9773,1.0967,1.3305,1.3364,1.1854,0.0,0.0,1.0762,0.0,0.0,1.0491,0.0,0.0,0.0,0.0,0.0,0.0,0.0,0.0,0.0,0.0,0.0,0.0,0.0,0.64,0.6626,0.7678,0.7445,0.7339,0.9176,0.8714,0.8243,0.9769,1.094,1.1733,1.1795,1.3514,1.4827,1.4196,1.457,1.5006,1.5006,1.5006,1.5006,1.5006,1.5006,1.5031,1.5049,1.5163,1.5245,1.5407,1.5634,1.5837,1.5861,1.5204,0.0,1.5958,1.526,1.5187,1.5983,1.6007,1.6007,1.6007,1.6007,1.6007,1.6007,1.6007,1.5669,1.5092,1.3921,1.2755,1.1463,0.9049,0.801,0.7885,0.6137,0.45,0.3113,0.2819,0.1767,0.0421,0.0126,0.0,0.0,0.0,0.0,0.0,0.0,0.0,0.0,0.0,0.0,0.0,0.0,0.0,0.0,0.0,0.0,0.0,0.8814,0.8808,0.8826,0.8929,0.886,0.8843,0.8918,0.8861,0.88,0.8817,0.8794,0.8631,0.829,0.801,0.7854,0.7785,0.8787,0.9557,1.0166,1.1053,1.2559,1.447,0.0,1.5841,1.5119,0.0,1.3757,1.3252,0.0,0.0,0.0,1.1817,1.1011,0.0,1.0129,0.0,0.0,0.0,0.0,0.0,0.0,0.0,0.0,0.0,0.0,0.0,0.7361,0.7499,0.7597,0.7918,0.9786,1.1443,1.1459,1.3337,1.4949,1.4966,1.499,1.5006,1.5006,1.5006,1.5006,1.5006,1.5006,1.5041,1.5181,1.5205,1.5351,1.578,1.5821,1.5853,1.5991,1.5975,1.5966,1.5999,1.6007,1.6007,1.6007,1.6007,1.6007,1.6007,1.6007,1.6007,1.6007,1.5966,1.5051,1.3383,1.33,1.1297,0.7968,0.7927,0.7885,0.7718,0.6095,0.4836,0.3868,0.3029,0.2103,0.1178,0.0295,0.0,0.0,0.0,0.0,0.0,0.0,0.0,0.0,0.0,0.0,0.0,0.0,0.0,0.0,0.9129,0.886,0.8712,0.8853,0.8826,0.9019,0.9513,0.9163,0.9153,0.9605,0.9231,0.8992,0.8946,0.875,0.8388,0.7877,0.7796,0.7525,0.0,0.0,0.0,0.8245,0.9948,1.1036,1.1748,1.4092,0.0,1.0575,1.4999,1.4337,0.0,0.0,0.0,0.0,0.0,1.2283,1.1626,0.0,0.9671,0.813,0.0,0.0,0.0,0.0,0.0,0.0,0.6824,0.0,0.0,0.0,0.0,0.0,0.7654,0.8934,1.0217,1.0504,1.2205,1.3693,1.3925,1.4529,1.5006,1.5006,1.5006,1.5006,1.5006,1.5082,1.514,1.5197,1.5463,1.5666,1.5804,1.5894,1.595,0.0,1.5212,1.509,1.5958,1.6007,1.6007,1.6007,1.6007,1.6007,1.6007,1.6007,1.6007,1.5966,1.4713,1.388,1.33,1.0674,0.8591,0.7003,0.5667,0.4747,0.4243,0.5046,0.4458,0.3029,0.2777,0.1725,0.0337,0.0084,0.0,0.0,0.0,0.0,0.0,0.0,0.0,0.0,0.0,0.0,0.0,0.0,0.0,0.0,0.8894,0.8861,0.8869,0.8931,0.8984,0.9132,0.9445,0.9042,0.8915,0.9177,0.8674,0.8371,0.8339,0.8131,0.7851,0.0,0.0,0.0,0.0,0.0,0.0,0.0,0.0,0.9268,0.9387,0.0,0.0,0.0,1.4748,0.0,0.0,1.5478,1.5451,0.0,0.0,0.0,1.3045,1.2414,1.0814,0.0,0.0,0.0,0.0,0.0,0.0,0.0,0.0,0.0,0.0,0.0,0.0,0.0,0.7524,0.8942,1.0328,1.0558,1.2345,1.3782,1.3439,1.3839,1.4225,1.4225,1.4282,1.4518,1.5009,1.5132,1.5254,1.5447,1.565,1.5804,1.5878,1.5942,1.6007,1.6007,1.5366,1.5277,1.5966,1.6007,1.6007,1.6007,1.6007,1.6007,1.6007,1.6007,1.5628,1.4878,1.3887,1.2424,1.0544,0.8424,0.6585,0.4954,0.3908,0.3153,0.2777,0.3828,0.3407,0.2104,0.2104,0.1262,0.0,0.0,0.0,0.0,0.0,0.0,0.0,0.0,0.0,0.0,0.0,0.0,0.0,0.0,0.0,0.863,0.884,0.9103,0.9199,0.0,0.9132,0.9164,0.9043,0.8682,0.8396,0.8259,0.7721,0.7425,0.7425,0.7314,0.0,0.0,0.0,0.0,0.0,0.0,0.0,0.0,0.0,0.0,0.0,0.0,0.0,1.4454,1.3929,1.5156,0.0,0.0,1.6263,1.5982,1.6143,1.5216,1.3893,1.3787,1.2279,0.0,0.0,0.0,0.0,0.0,0.7483,0.0,0.0,0.0,0.0,0.0,0.0,0.0,0.7499,0.921,1.0814,1.096,1.2791,1.4078,1.3068,1.2889,1.2889,1.2913,1.3059,1.3604,1.4816,1.5148,1.5366,1.5545,1.5747,1.5869,1.5991,1.6007,1.6007,1.6007,1.6007,1.6007,1.6007,1.6007,1.6007,1.6007,1.6007,1.6007,1.6007,1.5793,1.4919,1.3383,1.288,1.0544,0.671,0.6376,0.4912,0.2524,0.2524,0.2482,0.2398,0.2398,0.1977,0.1304,0.1304,0.0757,0.0,0.0,0.0,0.0,1.2112,0.0,0.0,0.0,0.0,0.0,0.0,0.0,0.0,0.0,0.891,0.899,0.9183,0.9107,0.0,0.0,0.884,0.8884,0.9208,0.8573,0.8304,0.8584,0.7991,0.7648,0.7648,0.7612,0.7532,0.0,0.0,0.0,0.0,0.0,0.0,0.0,0.0,0.0,0.0,0.0,0.0,1.1102,1.3404,0.0,1.4306,1.669,1.5995,1.4015,1.5624,1.5014,1.3366,1.279,1.2296,1.1541,0.0,0.0,0.0,0.7296,0.0,0.0,0.0,0.0,0.0,0.0,0.0,0.0,0.7499,0.7882,0.8517,0.9535,1.0163,1.0707,1.1443,1.156,1.1608,1.1784,1.1841,1.2304,1.3563,1.4854,1.5317,1.4375,1.5285,1.5966,1.5999,1.6007,1.6007,1.6007,1.6007,1.6007,1.6007,1.6007,1.6007,1.6007,1.6007,1.6007,1.6007,1.4631,1.3755,1.3342,0.9753,0.7543,0.6627,0.4451,0.2775,0.1556,0.1556,0.1178,0.0547,0.0547,0.0842,0.1304,0.1304,0.0757,0.0,0.0,0.0,0.0,1.1316,0.0,0.0,0.0,0.0,0.0,0.0,0.0,0.0,0.8877,0.9055,0.9139,0.9139,0.0,0.0,0.0,0.0,0.0,0.0,0.8173,0.7837,0.791,0.7389,0.7151,0.7245,0.7342,0.746,0.0,0.0,0.0,0.0,0.0,0.0,0.0,0.0,0.0,0.756,0.7615,0.8466,0.9962,1.245,0.0,1.4242,1.6473,1.634,1.501,1.5445,1.4789,1.3619,1.2743,1.2434,0.0,0.0,0.9778,0.8584,0.0,0.7467,0.7029,0.0,0.0,0.0,0.7483,0.0,0.0,0.0,0.7988,0.8637,0.9273,0.9877,1.0316,1.029,1.0363,1.0434,1.055,1.0712,1.1082,1.1709,1.3547,1.4871,1.4921,1.557,1.6007,1.6007,1.6007,1.6007,1.6007,1.6007,1.6007,1.6007,1.6007,1.6007,1.6007,1.6007,1.5587,1.4713,1.3838,1.2299,1.0044,0.7793,0.5748,0.3946,0.2606,0.1515,0.0631,0.0631,0.0421,0.0,0.0,0.0253,0.0631,0.0631,0.0379,0.0,0.0,0.0,0.0,1.0972,0.0,0.0,0.0,0.0,0.0,0.0,0.0,0.0,0.8894,0.9089,0.9407,0.9896,0.0,0.0,0.0,0.0,0.0,0.0,0.0,0.7877,0.7116,0.675,0.6644,0.686,0.7091,0.7375,0.7679,0.0,0.0,0.0,0.0,0.0,0.0,0.0,0.0,0.8115,0.823,0.0,1.0113,0.0,1.3332,1.4594,1.607,1.6397,1.6009,1.5186,1.4605,1.4058,1.3012,1.2645,1.2629,1.2475,1.0842,0.0,0.0,0.0,0.0,0.0,0.0,0.0,0.0,0.0,0.7548,0.0,0.0,0.0,0.9045,0.9795,1.0201,0.9273,0.9193,0.9259,0.9283,0.0,0.0,0.0,1.1939,0.0,1.4792,1.514,1.5286,1.5286,1.5505,1.5748,1.5983,1.6007,1.6007,1.6007,1.6007,1.6007,1.6007,1.5669,1.4837,1.3424,1.2714,1.0466,0.671,0.6166,0.4323,0.1304,0.1135,0.0673,0.0,0.0,0.0,0.0,0.0,0.0,0.0,0.0,0.0,0.0,0.0,0.0,0.0,1.1543,1.1514,0.0,0.0,0.0,0.0,0.0,0.0,0.0,0.9231,0.908,1.0064,0.0,0.0,0.0,0.0,0.0,0.0,0.9193,0.0,0.0,0.7129,0.6851,0.6858,0.7067,0.7435,0.7628,0.7617,0.0,0.0,0.0,0.0,0.0,0.0,0.7723,0.0,0.9567,0.9634,1.0295,0.0,1.2751,1.3028,0.0,1.5338,1.5329,1.4065,1.4363,1.442,1.4201,0.0,1.2775,1.258,0.0,1.0341,0.929,0.9137,0.0,0.0,0.0,0.0,0.0,0.0,0.7629,0.0,0.0,0.0,0.7719,0.7719,0.0,0.7931,0.7975,0.0,0.0,0.0,0.0,0.0,1.0031,1.055,1.0863,1.1025,1.2021,1.2735,1.2735,1.3742,1.4854,1.5926,1.6007,1.6007,1.6007,1.6007,1.6007,1.6007,1.4507,1.359,1.3383,1.0216,0.7964,0.6668,0.4285,0.2523,0.1262,0.0505,0.0084,0.0,0.0,0.0,0.0,0.0,0.0,0.0,0.0,0.0,0.0,0.0,0.0,0.0,1.0294,1.0096,0.0,0.0,0.0,0.0,0.0,0.0,0.0,0.8976,0.8853,0.0,0.0,0.0,0.0,0.0,0.0,1.2764,0.0,0.0,0.0,0.8389,0.75,0.7142,0.7389,0.7552,0.767,0.7719,0.7765,0.0,0.0,0.0,0.0,0.0,0.8225,0.0,0.9846,0.0,1.1408,0.0,0.0,0.0,0.0,1.4693,1.4804,1.4047,1.3608,1.3941,1.4318,0.0,1.2831,0.0,0.0,0.0,0.0,0.0,0.0,0.0,0.0,0.0,0.0,0.0,0.0,0.0,0.8629,0.0,0.7532,0.0,0.0,0.0,0.0,0.0,0.0,0.0,0.8354,0.0,0.0,0.0,0.9892,1.1317,0.0,0.0,1.3319,1.3214,1.3612,1.4871,1.496,1.496,1.496,1.561,1.5546,1.4507,1.3797,1.2382,1.0299,0.8257,0.6292,0.4369,0.2691,0.1431,0.0547,0.0168,0.0,0.0,0.0,0.0,0.0,0.0,0.0,0.0,0.0,0.0,0.0,0.0,0.0,0.0,0.9463,0.0,0.0,0.0,0.0,0.0,0.0,0.0,0.0,0.0,0.0,0.0,1.1758,1.138,0.0,0.0,1.4752,1.4575,0.0,0.0,1.1152,0.0,0.0,0.0,0.0,0.0,0.7665,0.764,0.0,0.0,0.0,0.0,0.0,0.0,0.0,0.921,1.0058,0.0,1.241,1.2956,1.3442,1.3627,1.3584,1.4216,1.4458,1.4379,1.365,1.4002,1.4464,1.2426,1.2946,0.0,1.2312,0.0,0.0,0.0,0.0,0.0,0.9681,0.0,0.0,0.0,0.0,0.0,0.0,0.0,0.0,0.0,0.0,0.0,0.0,0.0,0.0,0.0,0.0,0.8574,0.0,0.8558,0.0,0.0,0.0,0.0,0.0,1.2637,1.2686,1.3595,1.3985,1.4217,1.4217,1.4885,1.4713,1.3424,1.2424,1.0674,0.801,0.6627,0.487,0.2692,0.1766,0.0842,0.0,0.0,0.0,0.0,0.0,0.0,0.0,0.0,0.0,0.0,0.0,0.0,0.0,0.0,0.0,0.0,0.9889,1.0034,0.0,0.0,0.0,0.0,0.0,0.0,0.0,0.0,0.0,0.0,0.0,0.0,0.0,0.0,0.0,1.8677,1.7736,0.0,1.5447,0.0,0.0,0.8576,0.0,0.0,0.0,0.7224,0.0,0.0,0.0,0.0,0.0,0.0,0.7573,0.8664,1.0507,1.2289,1.3298,1.3804,1.5441,1.5523,1.4592,0.0,1.4136,1.4716,1.4884,0.0,0.0,1.3465,1.3084,0.0,0.0,0.0,0.0,0.0,0.0,0.0,0.0,0.0,0.0,0.973,0.0,0.0,0.0,0.0,0.7979,0.0,0.0,0.0,0.0,0.0,0.0,0.0,0.0,0.0,0.0,0.0,0.0,0.0,0.0,0.0,0.0,1.1584,1.232,1.2361,1.349,1.4217,1.4217,1.3731,1.3466,1.3383,1.0008,0.8131,0.801,0.5415,0.3616,0.2692,0.1766,0.0842,0.0,0.0,0.0,0.0,0.0,0.0,0.0,0.0,0.0,0.0,0.0,0.0,0.0,0.0,0.0,0.0,0.9357,0.0,0.0,0.0,0.0,0.0,0.0,0.9312,0.0,0.0,1.2312,0.0,0.0,1.7344,1.7481,0.0,0.0,2.0799,1.9528,1.7832,0.0,0.0,0.0,1.1023,0.0,0.0,0.0,0.0,0.0,0.0,0.0,0.0,0.0,0.0,0.0,0.9018,0.0,0.0,0.0,0.0,0.0,1.4535,1.3728,0.0,1.4711,1.4925,1.4982,1.5006,0.0,1.3514,1.3644,1.4225,1.3352,1.2889,1.2865,1.4037,1.2946,0.0,0.0,0.0,1.2653,1.2288,0.0,0.0,0.0,0.0,0.0,0.0,0.0,0.0,0.0,0.0,0.0,0.0,0.0,0.0,0.0,0.0,0.0,0.0,0.0,0.0,0.0,0.0,1.0176,1.0976,1.143,1.1703,1.1703,1.1966,1.1574,1.0382,0.8806,0.7132,0.5373,0.3868,0.2691,0.1766,0.0884,0.0295,0.0,0.0,0.0,0.0,0.0,0.0,0.0,0.0,0.0,0.0,0.0,0.0,0.0,0.0,0.0,0.0,0.987,0.0,0.0,0.0,0.0,0.0,0.0,0.0,0.0,0.0,1.4623,0.0,1.9222,0.0,1.9662,0.0,2.1069,2.1531,2.1762,1.825,0.0,1.8581,1.4743,0.0,0.0,0.0,0.0,0.0,0.0,0.7586,0.0,0.0,0.0,0.0,0.0,0.8949,1.006,1.2822,1.4083,0.0,0.0,1.4008,0.0,0.0,1.4673,1.5006,0.0,1.5006,1.4876,1.407,1.4331,1.486,1.4018,1.3888,1.4172,1.4862,1.405,1.31,1.3912,1.4131,0.0,1.369,1.3084,0.0,1.1955,0.0,0.0,0.0,0.0,0.0,0.0,0.0,0.0,0.0,0.0,0.0,0.0,0.859,0.0,0.0,0.0,0.0,0.0,0.9445,0.938,0.9746,1.0158,1.0249,0.0,1.0313,0.9863,0.8357,0.72,0.5751,0.4036,0.2817,0.1892,0.1304,0.0421,0.0,0.0,0.0,0.0,0.0,0.0,0.0,0.0,0.0,0.0,0.0,0.0,0.0,0.0,0.0,0.0,0.0,1.126,0.9883,0.0,0.0,0.8735,0.0,0.0,0.0,1.4317,0.0,1.7982,1.8181,2.0103,1.9799,2.0004,2.1393,2.0377,2.0946,2.3975,1.8005,0.0,0.0,1.5097,1.3157,1.5569,0.0,0.0,0.0,0.0,0.0,0.0,0.0,0.0,0.0,0.8142,0.0,0.9108,1.1882,1.2898,1.2653,1.3128,1.3964,1.4811,1.3793,1.407,1.5006,1.5006,1.5006,1.5006,1.5015,1.5015,1.5023,1.5031,1.5114,1.5213,1.5213,1.5335,1.552,1.5528,1.5528,1.5244,1.4022,0.0,0.0,0.0,0.0,1.2304,0.0,0.0,0.0,0.0,0.0,0.0,0.0,0.0,0.0,0.0,0.0,0.0,0.0,0.0,0.0,0.8704,0.964,0.9826,0.868,0.9623,0.9857,0.0,0.8738,0.8207,0.7367,0.5154,0.3961,0.3952,0.2178,0.1299,0.122,0.0379,0.0,0.0,0.0,0.0,0.0,0.0,0.0,0.0,0.0,0.0,0.0,0.0,0.0,0.0,0.0,0.0,0.0,1.0029,0.907,0.8585,0.0,0.9293,1.0532,0.0,0.0,0.0,0.0,2.0265,2.1157,2.1782,2.261,2.1992,1.9112,1.9952,0.0,0.0,0.0,0.0,2.0498,1.8069,1.6441,1.5901,1.5049,0.0,1.3171,0.0,0.0,1.0398,0.0,0.0,0.0,0.0,0.872,0.9288,1.1753,1.329,1.3967,1.2726,1.2857,1.3785,0.0,1.407,1.5006,1.5006,1.5006,1.5023,1.5122,1.5171,1.5156,1.5333,1.5407,1.5408,1.5408,1.548,1.5545,1.5675,1.5707,1.5658,1.544,1.4765,1.4026,0.0,0.0,0.0,0.0,0.0,0.0,0.0,0.0,0.0,0.0,0.0,0.0,0.0,0.0,0.0,0.859,0.0,0.894,0.8623,0.8883,0.894,0.8615,0.8193,0.7997,0.8113,0.0,0.6077,0.6496,0.4586,0.3376,0.3024,0.1862,0.0991,0.0337,0.0126,0.0,0.0,0.0,0.0,0.0,0.0,0.0,0.0,0.0,0.0,0.0,0.0,0.0,0.0,0.0,0.0,0.0,0.9878,0.919,0.0,0.9082,0.0,0.0,1.4144,1.5402,0.0,2.0813,2.1729,0.0,2.342,2.4235,2.3712,2.1206,1.9945,0.0,1.9097,0.0,0.0,1.9726,1.8524,1.7324,1.6342,1.632,0.0,1.4643,0.0,0.0,1.1906,0.0,0.0,0.0,0.0,0.8643,0.9005,1.1313,1.293,1.384,1.2881,1.315,0.0,1.3636,1.4156,1.5098,1.5179,1.5155,1.5114,1.5293,1.5318,1.5335,1.544,1.5569,1.5626,1.5626,1.5683,1.5732,1.5869,1.5894,1.5918,1.5983,1.5472,1.4992,1.4992,1.4411,1.3909,0.0,0.0,0.0,0.0,0.0,0.0,0.0,0.0,0.0,0.0,0.0,0.0,0.0,0.9071,0.9004,0.8034,0.834,0.8406,0.7988,0.743,0.0,0.0,0.0,0.5115,0.5011,0.3756,0.2872,0.2453,0.1294,0.0477,0.0,0.0,0.0,0.0,0.0,0.0,0.0,0.0,0.0,0.0,0.0,0.0,0.0,0.0,0.0,0.0,0.0,0.0,0.0,1.0507,0.9974,0.0,0.0,0.0,0.0,0.0,1.7607,0.0,2.3017,0.0,2.3109,2.4492,2.4843,2.4785,2.4233,0.0,1.816,1.9995,1.6053,1.5214,1.8681,1.7841,1.7195,1.7023,1.7055,0.0,0.0,0.0,0.0,0.0,0.0,0.0,0.0,0.0,0.0,0.0,1.075,1.2166,1.3181,1.3344,1.4013,1.4795,1.4131,1.4427,1.5262,1.5488,1.5391,1.5262,1.5488,1.5553,1.5553,1.5577,1.5691,1.5853,1.5853,1.5918,1.6007,1.6007,1.6007,1.6007,1.6007,1.6007,1.6007,1.6007,1.6007,1.6007,1.6007,1.6007,1.5675,0.0,0.0,0.0,0.0,0.0,0.0,0.0,0.0,0.0,0.0,0.0,0.0,0.7312,0.79,0.7988,0.6988,0.6805,0.0,0.0,0.0,0.4647,0.353,0.2879,0.2374,0.2008,0.0682,0.0,0.0,0.0,0.0,0.0,0.0,0.0,0.0,0.0,0.0,0.0,0.0,0.0,0.0,0.0,0.0,0.0,0.0,0.0,0.0,1.1754,0.0,0.0,0.0,0.0,1.7232,1.9234,2.1625,2.3342,2.3821,2.5292,2.541,2.3104,2.4138,2.3638,2.0265,1.9261,0.0,0.0,0.0,0.0,1.8978,1.8849,1.8721,1.8678,1.8907,1.8968,0.0,0.0,0.0,0.0,0.0,0.0,0.0,0.8391,0.9111,1.0699,1.0369,0.0,1.352,1.3544,1.379,1.4172,1.4911,1.527,1.5448,1.5666,1.5618,1.5496,1.5666,1.5772,1.5756,1.5869,1.5934,1.5958,1.5958,1.5983,1.6007,1.6007,1.6007,1.6007,1.6007,1.6007,1.6007,1.6007,1.6007,1.6007,1.6007,1.6007,1.5934,1.5715,0.0,0.0,0.0,0.0,0.0,0.0,0.0,0.0,0.0,0.0,0.868,0.7244,0.7253,0.6966,0.6008,0.0,0.0,0.0,0.0,0.3373,0.0,0.224,0.0,0.0,0.0,0.0,0.0,0.0,0.0,0.0,0.0,0.0,0.0,0.0,0.0,0.0,0.0,0.0,0.0,0.0,0.0,0.0,0.0,0.0,0.0,1.3333,0.0,0.0,0.0,0.0,0.0,0.0,2.3712,2.5529,2.4632,2.5431,2.5462,2.394,2.4653,2.4125,2.1362,2.0103,1.9083,1.8147,1.7658,1.7959,1.9236,1.929,0.0,1.825,1.9187,1.9299,1.8401,0.0,0.0,0.0,0.0,0.0,0.8846,0.8789,0.9366,0.0,0.0,0.0,1.3666,1.4314,1.463,1.4806,1.5415,1.565,1.5675,1.5853,1.5821,1.5764,1.5886,1.591,1.5934,1.5975,1.6007,1.6007,1.6007,1.6007,1.6007,1.6007,1.6007,1.6007,1.6007,1.6007,1.6007,1.6007,1.6007,1.6007,1.6007,1.6007,1.5804,1.5195,1.4091,0.0,0.0,0.0,0.0,0.0,0.0,0.0,0.0,0.0,0.0,0.0,0.0,0.0,0.0,0.0,0.0,0.0,0.0,0.3065,0.0,0.0,0.0,0.1003,0.0,0.0,0.0,0.0,0.0,0.0,0.0,0.0,0.0,0.0,0.0,0.0,0.0,0.0,0.0,0.0,0.0,0.0,0.0,0.0,0.0,0.0,1.464,0.0,0.0,1.7831,2.0373,2.2019,2.4825,2.6487,2.5689,2.5565,2.5614,2.5688,2.5619,2.4839,2.293,2.1171,1.9568,1.8287,1.8035,1.8306,1.909,1.9413,1.9083,1.7961,1.9213,1.9245,0.0,0.0,0.0,0.0,0.0,0.0,0.0,0.0,0.0,0.0,0.0,1.3685,1.4144,1.5171,1.5593,1.5602,1.578,1.5829,1.5853,1.595,1.6007,1.6007,1.6007,1.6007,1.6007,1.6007,1.6007,1.6007,1.6007,1.6007,1.6007,1.6007,1.6007,1.6007,1.6007,1.6007,1.6007,1.6007,1.6007,1.6007,1.6007,1.6007,1.5707,1.4757,1.4359,0.0,0.0,0.0,0.0,0.0,0.0,0.0,0.0,0.0,0.0,0.8125,0.0,0.0,0.0,0.0,0.0,0.3073,0.0,0.0,0.0,0.0,0.1387,0.0548,0.0,0.0,0.0,0.0,0.0,0.0,0.0,0.0,0.0,0.0,0.0,0.0,0.0,0.0,0.0,0.0,0.0,0.0,0.0,0.0,0.0,0.0,0.0,0.0,0.0,0.0,2.2085,2.4704,2.5207,2.5818,2.7268,2.744,2.755,2.7884,2.6683,2.464,2.1644,2.1448,1.9747,1.5579,1.8037,1.9137,1.7904,1.9159,1.9784,1.9655,1.9806,1.9806,0.0,0.0,0.0,0.0,0.0,0.0,0.0,0.0,0.0,0.0,1.3488,1.4375,1.5585,1.5699,1.5845,1.5958,1.5975,1.5983,1.5983,1.5999,1.6007,1.6007,1.6007,1.6007,1.6007,1.6007,1.6007,1.6007,1.6007,1.6007,1.6007,1.6007,1.6007,1.6007,1.6007,1.6007,1.6007,1.6007,1.6007,1.6007,1.6007,1.6007,1.5966,1.5853,1.4944,1.3766,0.0,0.0,0.0,0.0,0.0,0.0,1.0409,0.0,0.0,0.0,0.5303,0.0,0.0,0.3521,0.0,0.0,0.0,0.0,0.2125,0.1271,0.0585,0.0065,0.0032,0.0,0.0,0.0,0.0,0.0,0.0,0.0,0.0,0.0,0.0,0.0,0.0,0.0,0.0,0.0,0.0,0.0,0.0,0.0,0.0,0.0,0.0,0.0,0.0,0.0,0.0,0.0,2.6567,2.7629,2.8551,2.8262,2.8119,2.8519,2.715,2.5397,2.3426,2.2497,2.0836,1.8074,1.9148,1.9633,1.9062,1.9579,1.9881,1.9881,1.9881,1.9655,0.0,0.0,0.0,0.0,0.0,0.0,0.0,0.0,1.323,1.3847,1.4603,1.5317,1.5934,1.5934,1.5942,1.6007,1.6007,1.6007,1.6007,1.6007,1.6007,1.6007,1.6007,1.6007,1.6007,1.6007,1.6007,1.6007,1.6007,1.6007,1.6007,1.6007,1.6007,1.6007,1.6007,1.6007,1.6007,1.6007,1.6007,1.6007,1.6007,1.6007,1.6007,1.6007,1.5594,1.4887,0.0,0.0,0.0,0.0,0.0,0.0,0.0,0.0,1.0524,0.0,0.7815,0.0,0.0,0.0,0.0,0.0,0.0,0.0,0.1267,0.0,0.0459,0.0,0.0,0.0,0.0,0.0,0.0,0.0,0.0,0.0,0.0,0.0,0.0,0.0,0.0,0.0,0.0,0.0,0.0,0.0,0.0,0.0,0.0,2.515,0.0,2.3121,0.0,2.5023,2.5834,2.5786,2.7661,2.8759,2.7831,2.7869,2.8102,2.8386,2.6987,2.5258,2.3323,2.2154,2.0663,1.8657,1.9385,1.9698,1.9277,1.9655,0.0,1.9881,1.9881,1.9498,1.8686,1.6739,0.0,0.0,0.0,0.0,0.0,1.3731,1.4379,1.4586,1.548,1.5926,1.6007,1.6007,1.6007,1.6007,1.6007,1.6007,1.6007,1.6007,1.6007,1.6007,1.6007,1.6007,1.6007,1.6007,1.6007,1.6007,1.6007,1.6007,1.6007,1.6007,1.6007,1.6007,1.6007,1.6007,1.6007,1.6007,1.6007,1.6007,1.6007,1.6007,1.6007,1.6007,1.6007,1.5594,1.4383,0.0,0.0,0.0,0.0,0.0,0.0,1.1763,1.0931,1.1365,0.8294,0.0,0.0,0.0,0.0,0.0,0.0,0.0,0.0,0.0,0.0,0.0,0.0,0.0,0.0,0.0,0.0,0.0,0.0,0.0,0.0,0.0,0.0,0.0,0.0,0.0,0.0,0.0,0.0,0.0,0.0,0.0,0.0,2.758,2.7627,2.7834,2.8602,2.8745,2.8172,2.6438,2.8233,2.8349,2.4379,2.5982,2.7504,2.7504,2.6094,2.3665,2.0068,1.9842,1.8587,1.5446,1.8153,1.9256,0.0,0.0,1.9881,1.9881,1.9881,1.9582,1.8879,0.0,0.0,1.5079,0.0,1.4034,1.3937,1.5335,1.5975,1.5983,1.5991,1.5999,1.6007,1.6007,1.6007,1.6007,1.6007,1.6007,1.6007,1.6007,1.6007,1.6007,1.6007,1.6007,1.6007,1.6007,1.6007,1.6007,1.6007,1.6007,1.6007,1.6007,1.6007,1.6007,1.6007,1.6007,1.6007,1.6007,1.6007,1.6007,1.6007,1.6007,1.6007,1.6007,1.6007,1.5594,1.4383,0.0,0.0,0.0,0.0,0.0,0.0,0.8671,0.7437,0.8099,0.5138,0.0,0.0,0.0,0.0,0.0,0.0,0.0,0.1283,0.0461,0.0,0.0,0.0,0.0,0.0,0.0,0.0,0.0,0.0,0.0,0.0,0.0,0.0,0.0,0.0,0.0,0.0,0.0,0.0,0.0,0.0,0.0,0.0,2.442,2.666,2.8487,2.7536,2.8535,2.9377,2.9043,2.987,2.9601,2.701,2.7555,2.7174,2.4511,2.3567,2.2769,0.0,1.9683,1.839,0.0,1.839,1.8627,1.918,1.867,1.8401,1.8401,1.7986,1.7398,1.6642,0.0,0.0,0.0,1.4293,1.4603,1.5343,1.5804,1.6007,1.6007,1.6007,1.6007,1.6007,1.6007,1.6007,1.6007,1.6007,1.6007,1.6007,1.6007,1.6007,1.6007,1.6007,1.6007,1.6007,1.6007,1.6007,1.6007,1.6007,1.6007,1.6007,1.6007,1.6007,1.6007,1.6007,1.6007,1.6007,1.6007,1.6007,1.6007,1.6007,1.6007,1.6007,1.6007,1.6007,1.5594,1.4383,1.4895,0.0,0.0,0.0,0.0,0.0,1.0547,0.9218,1.0323,0.6423,0.0,0.0,0.0,0.0,0.0,0.0,0.0,0.0,0.0132,0.0,0.0,0.0,0.0,0.0,0.0,0.0,0.0,0.0,0.0,0.0,0.0,0.0,0.0,0.0,0.0,0.0,0.0,0.0,0.0,0.0,0.0,0.0,2.5469,2.7534,2.9234,2.8427,2.9345,3.0013,2.9405,3.0315,2.9787,2.6213,2.672,2.5924,2.2058,2.1456,0.0,2.1621,1.9718,1.8932,1.9827,1.9101,1.9058,1.9979,1.8916,1.8313,1.8313,1.7593,0.0,1.6131,1.5659,1.5257,1.4879,1.4879,1.5293,1.6007,1.6007,1.6007,1.6007,1.6007,1.6007,1.6007,1.6007,1.6007,1.6007,1.6007,1.6007,1.6007,1.6007,1.6007,1.6007,1.6007,1.6007,1.6007,1.6007,1.6007,1.6007,1.6007,1.6007,1.6007,1.6007,1.6007,1.6007,1.6007,1.6007,1.6007,1.6007,1.6007,1.6007,1.6007,1.6007,1.6007,1.6007,1.6007,1.5748,1.5009,1.5497,1.5732,1.4992,0.0,0.0,0.0,0.0,0.0,0.0,0.566,0.3979,0.0,0.0,0.0,0.0,0.0,0.0,0.0,0.0,0.0,0.0,0.0,0.0,0.0,0.0,0.0,0.0,0.0,0.0,0.0,0.0,0.0,0.0,0.0,0.0,0.0,0.0,0.0,0.0,0.0,0.0,0.0045,2.9425,2.9674,3.0092,0.0,3.0845,0.0,2.8246,2.9791,2.9023,2.305,2.4103,2.3998,2.0302,1.9903,1.9914,1.9914,0.0,0.0,0.0,2.0005,2.0096,2.0154,1.9486,1.911,1.9081,1.8152,1.7445,1.6921,1.6327,1.6007,1.6007,1.6007,1.6007,1.6007,1.6007,1.6007,1.6007,1.6007,1.6007,1.6007,1.6007,1.6007,1.6007,1.6007,1.6007,1.6007,1.6007,1.6007,1.6007,1.6007,1.6007,1.6007,1.6007,1.6007,1.6007,1.6007,1.6007,1.6007,1.6007,1.6007,1.6007,1.6007,1.6007,1.6007,1.6007,1.6007,1.6007,1.6007,1.6007,1.6007,1.6007,1.6007,1.6007,1.6007,1.6007,1.5975,1.5885,0.0,0.0,0.0,0.0,0.0,0.362,0.3231,0.2659,0.0,0.0,0.0,0.0,0.0,0.0,0.0,0.0,0.0,0.0,0.0,0.0,0.0,0.0,0.0,0.0,0.0,0.0,0.0,0.0,0.0,0.0,0.0,0.0,0.0,0.0,0.0,0.0,0.0045,0.0045,0.0135,0.0,0.0,3.0553,2.9107,3.0187,3.1093,3.0601,2.9739,2.8116,2.5134,2.3931,2.2497,2.014,2.0054,2.0124,2.0124,1.9133,1.8972,2.0059,1.929,1.9043,1.9481,1.8289,1.7293,1.664,1.5956,1.582,1.6221,1.6065,1.6007,1.6007,1.6007,1.6007,1.6007,1.6007,1.6007,1.6007,1.6007,1.6007,1.6007,1.6007,1.6007,1.6007,1.6007,1.6007,1.6007,1.6007,1.6007,1.6007,1.6007,1.6007,1.6007,1.6007,1.6007,1.6007,1.6007,1.6007,1.6007,1.6007,1.6007,1.6007,1.6007,1.6007,1.6007,1.6007,1.6007,1.6007,1.6007,1.6007,1.6007,1.6007,1.6007,1.6007,1.6007,1.6007,1.5675,1.4757,1.32,0.0,0.0,0.685,0.5006,0.3574,0.2433,0.1629,0.0,0.0,0.0,0.0,0.0,0.0,0.0,0.0,0.0,0.0,0.0,0.0,0.0,0.0,0.0,0.0,0.0,0.0,0.0,0.0,0.0,0.0,0.0,0.0,0.0,0.0,0.0,0.0045,0.0404,0.0539,0.0584,2.7915,2.9695,3.1029,2.987,3.0616,3.1395,3.1395,3.0476,2.8815,2.5976,2.4671,2.3024,2.0342,2.0134,2.0253,2.0361,1.9671,1.959,2.0317,1.9487,1.9074,1.9421,1.801,1.7009,1.6554,1.5782,1.5594,1.6007,1.6007,1.6007,1.6007,1.6007,1.6007,1.6007,1.6007,1.6007,1.6007,1.6007,1.6007,1.6007,1.6007,1.6007,1.6007,1.6007,1.6007,1.6007,1.6007,1.6007,1.6007,1.6007,1.6007,1.6007,1.6007,1.6007,1.6007,1.6007,1.6007,1.6007,1.6007,1.6007,1.6007,1.6007,1.6007,1.6007,1.6007,1.6007,1.6007,1.6007,1.6007,1.6007,1.6007,1.6007,1.6007,1.6007,1.5529,1.4875,1.4013,1.2361,0.0,0.7893,0.632,0.4667,0.2704,0.1762,0.1115,0.0751,0.0266,0.0,0.0,0.0,0.0,0.0,0.0,0.0,0.0,0.0,0.0,0.0,0.0,0.0,0.0,0.0,0.0,0.0,0.0,0.0,0.0,0.0,0.0,0.0,0.0224,0.0314,0.0359,0.0853,0.1032,0.1077,3.1395,3.1395,3.1395,3.1395,3.1395,3.1395,3.1395,3.1139,2.967,2.6066,2.5388,2.3947,2.0577,2.0274,2.0404,2.0637,2.069,2.069,2.0658,2.004,1.9604,1.9484,1.8122,1.7322,1.7199,1.6419,1.6007,1.6007,1.6007,1.6007,1.6007,1.6007,1.6007,1.6007,1.6007,1.6007,1.6007,1.6007,1.6007,1.6007,1.6007,1.6007,1.6007,1.6007,1.6007,1.6007,1.6007,1.6007,1.6007,1.6007,1.6007,1.6007,1.6007,1.6007,1.6007,1.6007,1.6007,1.6007,1.6007,1.6007,1.6007,1.6007,1.6007,1.6007,1.6007,1.6007,1.6007,1.6007,1.6007,1.6007,1.6007,1.5883,1.5696,1.5423,1.4527,1.3636,1.2904,0.0,0.9405,0.682,0.588,0.4318,0.1379,0.1093,0.0799,0.0042,0.0,0.0,0.0,0.0,0.0,0.0,0.0,0.0,0.0,0.0,0.0,0.0,0.0,0.0,0.0,0.0,0.0,0.0,0.0,0.0,0.0,0.0,0.0045,0.0135,0.0539,0.0763,0.0853,0.1347,0.1526,0.1616,3.1395,3.1395,3.1395,3.1395,3.1395,3.1395,3.1395,3.0,2.8124,2.5886,2.4355,2.2653,2.0424,2.0565,2.0813,2.0845,2.105,2.1122,2.0867,2.0268,1.9623,1.8851,1.791,1.7035,1.6213,1.6089,1.6007,1.6007,1.6007,1.6007,1.6007,1.6007,1.6007,1.6007,1.6007,1.6007,1.6007,1.6007,1.6007,1.6007,1.6007,1.6007,1.6007,1.6007,1.6007,1.6007,1.6007,1.6007,1.6007,1.6007,1.6007,1.6007,1.6007,1.6007,1.6007,1.6007,1.6007,1.6007,1.6007,1.6007,1.6007,1.6007,1.6007,1.6007,1.6007,1.6007,1.6007,1.6007,1.6007,1.6007,1.6007,1.5381,1.4393,1.2874,1.2514,1.176,0.9787,0.0,0.6881,0.5287,0.332,0.1576,0.0336,0.021,0.0126,0.0,0.0,0.0,0.0,0.0,0.0,0.0,0.0,0.0,0.0,0.0,0.0,0.0,0.0,0.0,0.0,0.0,0.0,0.0,0.0,0.0,0.0,0.0,0.0224,0.0584,0.0673,0.0943,0.1347,0.1885,0.2066,0.2156,3.1395,3.1395,3.1395,3.1395,3.1395,3.1395,3.1395,2.9762,2.7856,2.6065,2.4213,2.2451,2.0771,2.078,2.0753,2.044,2.0514,2.0373,1.9765,1.9451,1.8899,1.8051,1.7108,1.646,1.6007,1.6007,1.6007,1.6007,1.6007,1.6007,1.6007,1.6007,1.6007,1.6007,1.6007,1.6007,1.6007,1.6007,1.6007,1.6007,1.6007,1.6007,1.6007,1.6007,1.6007,1.6007,1.6007,1.6007,1.6007,1.6007,1.6007,1.6007,1.6007,1.6007,1.6007,1.6007,1.6007,1.6007,1.6007,1.6007,1.6007,1.6007,1.6007,1.6007,1.6007,1.6007,1.6007,1.6007,1.6007,1.5875,1.5381,1.4961,1.4249,1.2968,1.2189,0.0,0.0,0.8325,0.6478,0.4633,0.304,0.1514,0.0126,0.0,0.0,0.0,0.0,0.0,0.0,0.0,0.0,0.0,0.0,0.0,0.0,0.0,0.0,0.0,0.0,0.0,0.0,0.0,0.0,0.0,0.0,0.0,0.0,0.0269,0.0494,0.0763,0.1302,0.1661,0.1885,0.238,0.256,0.2604,3.1395,3.1395,3.1395,3.1395,3.1395,3.1248,3.0807,2.9509,2.7817,2.5618,2.4132,2.2674,2.1087,2.0753,2.0499,2.0028,1.9795,1.9307,1.845,1.8409,1.8092,1.7445,1.6501,1.6007,1.6007,1.6007,1.6007,1.6007,1.6007,1.6007,1.6007,1.6007,1.6007,1.6007,1.6007,1.6007,1.6007,1.6007,1.6007,1.6007,1.6007,1.6007,1.6007,1.6007,1.6007,1.6007,1.6007,1.6007,1.6007,1.6007,1.6007,1.6007,1.6007,1.6007,1.6007,1.6007,1.6007,1.6007,1.6007,1.6007,1.6007,1.6007,1.6007,1.6007,1.6007,1.6007,1.6007,1.6007,1.5834,1.5505,1.4837,1.4383,1.372,1.2653,0.0,0.0,0.0,0.8182,0.612,0.4573,0.3035,0.1514,0.0126,0.0,0.0,0.0,0.0,0.0,0.0,0.0,0.0,0.0,0.0,0.0,0.0,0.0,0.0,0.0,0.0,0.0,0.0,0.0,0.0,0.0,0.0,0.0045,0.018,0.0539,0.0853,0.1122,0.1885,0.2245,0.2425,0.2784,0.2919,0.2919,3.1395,3.1395,3.1395,3.1395,3.1395,3.0807,2.9013,2.8806,2.7548,2.3801,2.3572,2.3034,2.1119,2.042,2.0069,1.9998,1.9266,1.8409,1.7568,1.7486,1.7486,1.7404,1.6501,1.6007,1.6007,1.6007,1.6007,1.6007,1.6007,1.6007,1.6007,1.6007,1.6007,1.6007,1.6007,1.6007,1.6007,1.6007,1.6007,1.6007,1.6007,1.6007,1.6007,1.6007,1.6007,1.6007,1.6007,1.6007,1.6007,1.6007,1.6007,1.6007,1.6007,1.6007,1.6007,1.6007,1.6007,1.6007,1.6007,1.6007,1.6007,1.6007,1.6007,1.6007,1.6007,1.6007,1.6007,1.6007,1.5381,1.4796,1.4713,1.339,1.1741,0.9988,0.0,0.0,0.8408,0.6001,0.4583,0.5237,0.2303,0.0126,0.0,0.0,0.0,0.0,0.0,0.0,0.0,0.0,0.0,0.0,0.0,0.0,0.0,0.0,0.0,0.0,0.0,0.0,0.0,0.0,0.0,0.0,0.0,0.0224,0.0673,0.0673,0.1257,0.2111,0.2156,0.247,0.2874,0.2874,0.2919,0.2919,3.1395,3.1395,3.1395,3.1395,3.0384,2.9417,2.8859,2.6799,2.4868,2.3687,2.2163,2.098,2.039,1.9664,1.8981,1.8419,1.8092,1.7519,1.6583,1.6542,1.6542,1.6542,1.6172,1.6007,1.6007,1.6007,1.6007,1.6007,1.6007,1.6007,1.6007,1.6007,1.6007,1.6007,1.6007,1.6007,1.6007,1.6007,1.6007,1.6007,1.6007,1.6007,1.6007,1.6007,1.6007,1.6007,1.6007,1.6007,1.6007,1.6007,1.6007,1.6007,1.6007,1.6007,1.6007,1.6007,1.6007,1.6007,1.6007,1.6007,1.6007,1.6007,1.6007,1.5875,1.534,1.5175,1.5051,1.4507,1.4135,1.3721,1.3183,1.2567,1.1664,1.0427,0.0,0.9741,0.8296,0.6254,0.4624,0.3806,0.1514,0.0,0.0,0.0,0.0,0.0,0.0,0.0,0.0,0.0,0.0,0.0,0.0,0.0,0.0,0.0,0.0,0.0,0.0,0.0,0.0,0.0,0.018,0.0449,0.0449,0.0718,0.1167,0.1481,0.184,0.2245,0.2515,0.2739,0.2919,0.2919,0.2919,0.2919,3.1395,3.1395,3.1395,3.1395,3.0177,2.8925,2.8138,2.566,2.3514,2.2413,2.0659,1.9473,1.9378,1.8573,1.7878,1.7445,1.7117,1.6706,1.6048,1.6007,1.6007,1.6007,1.6007,1.6007,1.6007,1.6007,1.6007,1.6007,1.6007,1.6007,1.6007,1.6007,1.6007,1.6007,1.6007,1.6007,1.6007,1.6007,1.6007,1.6007,1.6007,1.6007,1.6007,1.6007,1.6007,1.6007,1.6007,1.6007,1.6007,1.6007,1.6007,1.6007,1.6007,1.6007,1.6007,1.6007,1.6007,1.5925,1.5669,1.5587,1.5587,1.5587,1.5381,1.5043,1.4424,1.43,1.4135,1.3507,1.3176,1.281,1.2193,1.1861,1.1445,1.082,1.0695,1.0106,0.8344,0.6543,0.4742,0.2898,0.1093,0.0,0.0,0.0,0.0,0.0,0.0,0.0,0.0,0.0,0.0,0.0,0.0,0.0,0.0,0.0,0.0,0.0,0.0,0.0,0.0,0.0,0.0269,0.0718,0.0718,0.1077,0.1661,0.2066,0.229,0.247,0.2784,0.2919,0.2919,0.2919,0.2919,0.2919,3.1395,3.1395,3.1395,3.1395,3.1048,2.9675,2.6489,2.5793,2.4013,1.9484,1.9119,1.893,1.8083,1.7223,1.6862,1.7322,1.6542,1.6007,1.6007,1.6007,1.6007,1.6007,1.6007,1.6007,1.6007,1.6007,1.6007,1.6007,1.6007,1.6007,1.6007,1.6007,1.6007,1.6007,1.6007,1.6007,1.6007,1.6007,1.6007,1.6007,1.6007,1.6007,1.6007,1.6007,1.6007,1.6007,1.6007,1.6007,1.6007,1.6007,1.6007,1.6007,1.6007,1.6007,1.6007,1.6007,1.6007,1.5793,1.4961,1.4713,1.4713,1.4672,1.4045,1.3383,1.3383,1.3383,1.3383,1.3383,1.2685,1.2069,1.2069,1.132,1.0695,1.0695,1.0695,1.0106,0.8344,0.6543,0.4742,0.2898,0.1093,0.0,0.0,0.0,0.0,0.0,0.0,0.0,0.0,0.0,0.0,0.0,0.0,0.0,0.0,0.0,0.0,0.0,0.0,0.0,0.0,0.0,0.0269,0.0718,0.0718,0.1302,0.22,0.22,0.247,0.2919,0.2919,0.2919,0.2919,0.2919,0.2919,0.2919,3.1395,3.1395,3.1318,3.101,2.8758,2.6612,2.5518,2.2583,2.0096,1.8906,1.771,1.6886,1.6599,1.5826,1.5497,1.5958,1.5752,1.5711,1.5966,1.6007,1.6007,1.6007,1.6007,1.6007,1.6007,1.6007,1.6007,1.6007,1.6007,1.6007,1.6007,1.6007,1.6007,1.6007,1.6007,1.6007,1.6007,1.6007,1.6007,1.6007,1.6007,1.6007,1.6007,1.6007,1.6007,1.6007,1.6007,1.6007,1.6007,1.6007,1.6007,1.6007,1.6007,1.6007,1.6007,1.6007,1.6007,1.5925,1.5669,1.5175,1.4548,1.3928,1.359,1.3217,1.2644,1.2478,1.2312,1.1647,1.132,1.1112,1.1112,1.0904,1.0695,1.0695,1.0695,0.9643,0.6627,0.5748,0.4239,0.1178,0.0337,0.0,0.0,0.0,0.0,0.0,0.0,0.0,0.0,0.0,0.0,0.0,0.0,0.0,0.0,0.0,0.0,0.0,0.0,0.018,0.0494,0.0494,0.0943,0.1751,0.1751,0.2111,0.2694,0.2694,0.2784,0.2919,0.2919,0.2919,0.2919,0.2919,0.2919,0.2919,3.1164,3.0477,2.9858,2.978,2.6785,2.4286,2.3863,2.0881,1.8372,1.7524,1.6435,1.5612,1.5291,1.4762,1.4721,1.534,1.5546,1.5669,1.5752,1.5917,1.6007,1.6007,1.6007,1.6007,1.6007,1.6007,1.6007,1.6007,1.6007,1.6007,1.6007,1.6007,1.6007,1.6007,1.6007,1.6007,1.6007,1.6007,1.6007,1.6007,1.6007,1.6007,1.6007,1.6007,1.6007,1.6007,1.6007,1.6007,1.6007,1.6007,1.6007,1.6007,1.6007,1.6007,1.5925,1.5587,1.5505,1.534,1.4638,1.4059,1.3473,1.2561,1.2602,1.2644,1.1736,1.157,1.1403,1.082,1.0695,1.0695,1.0695,1.0695,1.0695,1.0695,1.0106,0.8678,0.579,0.4784,0.3234,0.0337,0.0,0.0,0.0,0.0,0.0,0.0,0.0,0.0,0.0,0.0,0.0,0.0,0.0,0.0,0.0,0.0,0.0,0.0,0.0,0.0224,0.0718,0.0718,0.1257,0.22,0.22,0.247,0.2919,0.2919,0.2919,0.2919,0.2919,0.2919,0.2919,0.2919,0.2919,0.2919,3.05,2.8934,2.7631,2.772,2.5042,2.2573,2.1662,1.9968,1.7946,1.5646,1.5283,1.4919,1.4108,1.4025,1.4356,1.5216,1.5669,1.5793,1.5422,1.5801,1.6007,1.6007,1.6007,1.6007,1.6007,1.6007,1.6007,1.6007,1.6007,1.6007,1.6007,1.6007,1.6007,1.6007,1.6007,1.6007,1.6007,1.6007,1.6007,1.6007,1.6007,1.6007,1.6007,1.6007,1.6007,1.6007,1.6007,1.6007,1.6007,1.6007,1.6007,1.6007,1.6007,1.5966,1.5711,1.4919,1.4631,1.4259,1.265,1.2235,1.1986,1.107,1.1486,1.1861,1.0904,1.0695,1.0695,1.0695,1.0695,1.0695,1.0695,1.0695,1.0695,1.0695,0.9351,0.763,0.5664,0.399,0.2228,0.0253,0.0,0.0,0.0,0.0,0.0,0.0,0.0,0.0,0.0,0.0,0.0,0.0,0.0,0.0,0.0,0.0,0.0,0.0,0.0045,0.0314,0.0763,0.0808,0.1347,0.2245,0.2245,0.2515,0.2919,0.2919,0.2919,0.2919,0.2919,0.2919,0.2919,0.2919,0.2919,0.2919,2.8342,2.7827,2.6842,2.4409,2.2367,2.0655,1.9491,1.7229,1.5489,1.4919,1.4259,1.3769,1.3569,1.3569,1.3776,1.4315,1.51,1.5505,1.5422,1.5801,1.6007,1.6007,1.6007,1.6007,1.6007,1.6007,1.6007,1.6007,1.6007,1.6007,1.6007,1.6007,1.6007,1.6007,1.6007,1.6007,1.6007,1.6007,1.6007,1.6007,1.6007,1.6007,1.6007,1.6007,1.6007,1.6007,1.6007,1.6007,1.6007,1.6007,1.6007,1.6007,1.6007,1.5546,1.4919,1.4754,1.4217,1.359,1.3224,1.3141,1.2893,1.2027,1.1944,1.1861,1.0904,1.0695,1.0695,1.0695,1.0695,1.0695,1.0695,1.0695,1.0695,1.0695,1.0398,0.9017,0.5831,0.5077,0.3612,0.0379,0.0,0.0,0.0,0.0,0.0,0.0,0.0,0.0,0.0,0.0,0.0,0.0,0.0,0.0,0.0,0.0,0.0,0.0,0.0359,0.0808,0.1257,0.1661,0.22,0.2739,0.2739,0.2784,0.2919,0.2919,0.2919,0.2919,0.2919,0.2919,0.2919,0.2919,0.2919,0.2919,2.7315,2.5662,2.3851,2.2072,1.9856,1.8046,1.7188,1.5358,1.4101,1.4101,1.3687,1.3403,1.3403,1.3403,1.3611,1.4066,1.4893,1.5381,1.5381,1.5801,1.6007,1.6007,1.6007,1.6007,1.6007,1.6007,1.6007,1.6007,1.6007,1.6007,1.6007,1.6007,1.6007,1.6007,1.6007,1.6007,1.6007,1.6007,1.6007,1.6007,1.6007,1.6007,1.6007,1.6007,1.6007,1.6007,1.6007,1.6007,1.6007,1.6007,1.5711,1.5381,1.5381,1.4796,1.4011,1.3597,1.3141,1.2685,1.2229,1.2104,1.2021,1.157,1.1445,1.132,1.082,1.0695,1.0695,1.0695,1.0695,1.0695,1.0695,1.0695,1.0695,1.0695,0.9267,0.7505,0.5664,0.3904,0.2102,0.021,0.0,0.0,0.0,0.0,0.0,0.0,0.0,0.0,0.0,0.0,0.0,0.0,0.0,0.0,0.0,0.0,0.0135,0.0359,0.0584,0.0943,0.1436,0.1975,0.247,0.2919,0.2919,0.2919,0.2919,0.2919,0.2919,0.2919,0.2919,0.2919,0.2919,0.2919,0.2919,0.2919,2.5976,2.3068,2.0493,1.9866,1.7538,1.5612,1.5118,1.4093,1.3403,1.3403,1.3403,1.3403,1.3403,1.3486,1.3694,1.4066,1.4803,1.5298,1.5381,1.5711,1.5925,1.6007,1.6007,1.6007,1.6007,1.6007,1.6007,1.6007,1.6007,1.6007,1.6007,1.6007,1.6007,1.6007,1.6007,1.6007,1.6007,1.6007,1.6007,1.6007,1.6007,1.6007,1.6007,1.6007,1.6007,1.6007,1.6007,1.6007,1.5966,1.5842,1.5298,1.4672,1.4507,1.388,1.3058,1.2318,1.1986,1.1694,1.0904,1.0695,1.0695,1.0695,1.0695,1.0695,1.0695,1.0695,1.0695,1.0695,1.0695,1.0695,1.0695,1.0695,1.0695,1.0695,0.7968,0.5748,0.5454,0.2564,0.0337,0.0042,0.0,0.0,0.0,0.0,0.0,0.0,0.0,0.0,0.0,0.0,0.0,0.0,0.0,0.0,0.0,0.0,0.018,0.0584,0.0763,0.1077,0.1571,0.2066,0.2515,0.2919,0.2919,0.2919,0.2919,0.2919,0.2919,0.2919,0.2919,0.2919,0.2919,0.2919,0.2919,0.2919,2.2077,2.054,1.9044,1.6759,1.5558,1.4589,1.3811,1.3521,1.3403,1.3403,1.3403,1.3403,1.3403,1.3776,1.4025,1.4108,1.4514,1.4961,1.5381,1.5463,1.5628,1.5966,1.6007,1.6007,1.6007,1.6007,1.6007,1.6007,1.6007,1.6007,1.6007,1.6007,1.6007,1.6007,1.6007,1.6007,1.6007,1.6007,1.6007,1.6007,1.6007,1.6007,1.6007,1.6007,1.6007,1.6007,1.6007,1.6007,1.5883,1.5126,1.4796,1.4589,1.3797,1.2975,1.2235,1.211,1.1528,1.0862,1.0737,1.0695,1.0695,1.0695,1.0695,1.0695,1.0695,1.0695,1.0695,1.0695,1.0695,1.0695,1.0695,1.0695,1.0695,1.0695,0.9017,0.717,0.5622,0.3612,0.1766,0.0168,0.0,0.0,0.0,0.0,0.0,0.0,0.0,0.0,0.0,0.0,0.0,0.0,0.0,0.0,0.0,0.0,0.0045,0.009,0.0898,0.1571,0.2111,0.2604,0.2829,0.2919,0.2919,0.2919,0.2919,0.2919,0.2919,0.2919,0.2919,0.2919,0.2919,0.2919,0.2919,0.2919,2.1059,1.9334,1.7678,1.6138,1.5236,1.4424,1.3521,1.3403,1.3403,1.3403,1.3403,1.3403,1.3403,1.3818,1.4315,1.4769,1.501,1.5257,1.5711,1.5752,1.5793,1.6007,1.6007,1.6007,1.6007,1.6007,1.6007,1.6007,1.6007,1.6007,1.6007,1.6007,1.6007,1.6007,1.6007,1.6007,1.6007,1.6007,1.6007,1.6007,1.6007,1.6007,1.6007,1.6007,1.6007,1.6007,1.6007,1.5669,1.5216,1.4837,1.4052,1.3183,1.281,1.2063,1.132,1.132,1.1029,1.0695,1.0695,1.0695,1.0695,1.0695,1.0695,1.0695,1.0695,1.0695,1.0695,1.0695,1.0695,1.0695,1.0695,1.0695,1.0398,0.9392,0.7755,0.5957,0.4155,0.2354,0.0884,0.0084,0.0,0.0,0.0,0.0,0.0,0.0,0.0,0.0,0.0,0.0,0.0,0.0,0.0,0.0,0.0,0.0,0.0135,0.0404,0.1077,0.1526,0.1795,0.256,0.2919,0.2919,0.2919,0.2919,0.2919,0.2919,0.2919,0.2919,0.2919,0.2919,0.2919,0.2919,0.2919,0.2919]},{"header":{"parameterUnit":"m.s-1","parameterCategory":1,"la1":30.6,"la2":28.766,"lo1":-90.7593,"lo2":-88.6598,"dy":0.0162,"dx":0.0183,"nx":116,"ny":114,"refTime":"2023-08-15T18:00:00:Z","depth":0,"parameterNumber":3,"parameterNumberName":"V-component_of_WINDS"},"data":[0.0,0.0,0.0,0.0,0.0,0.0,0.0,0.0,0.0,0.0,0.0,0.0,0.0,0.0,0.0,0.0,0.0,0.0,0.0,0.0,0.0,0.0,0.0,0.0,0.0,0.0,0.0,0.0,0.0,0.0,0.0,0.0,0.0,0.0,0.0,0.0,0.0,0.0,0.0,0.0,0.0,0.0,0.0,0.0,0.0,0.0,0.0,0.0,0.0,0.0,0.0,0.0,0.0,0.0,0.0,0.0,0.0,0.0,0.0,0.0,0.0,0.0,0.0,0.0,0.0,0.0,0.0,0.0,0.0,0.0,0.0,0.0,0.0,0.0,0.0,0.0,0.0,0.0,0.0,0.0,0.0,0.0,0.0,0.0,0.0,0.0,0.0,0.0,0.0,0.0,0.0,0.0,0.0,0.0,0.0,0.0,0.0,0.0,0.0,0.0,0.0,0.0,0.0,0.0,0.0,0.0,0.0,0.0,0.0,0.0,0.0,0.0,0.0,0.0,0.0,0.0,0.0,0.0,0.0,0.0,0.0,0.0,0.0,0.0,0.0,0.0,0.0,0.0,0.0,0.0,0.0,0.0,0.0,0.0,0.0,0.0,0.0,0.0,0.0,0.0,0.0,0.0,0.0,0.0,0.0,0.0,0.0,0.0,0.0,0.0,0.0,0.0,0.0,0.0,0.0,0.0,0.0,0.0,0.0,0.0,0.0,0.0,0.0,0.0,0.0,0.0,0.0,0.0,0.0,0.0,0.0,0.0,0.0,0.0,0.0,0.0,0.0,0.0,0.0,0.0,0.0,0.0,0.0,0.0,0.0,0.0,0.0,0.0,0.0,0.0,0.0,0.0,0.0,0.0,0.0,0.0,0.0,0.0,0.0,0.0,0.0,0.0,0.0,0.0,0.0,0.0,0.0,0.0,0.0,0.0,0.0,0.0,0.0,0.0,0.0,0.0,0.0,0.0,0.0,0.0,0.0,0.0,0.0,0.0,0.0,0.0,0.0,0.0,0.0,0.0,0.0,0.0,0.0,0.0,0.0,0.0,0.0,0.0,0.0,0.0,0.0,0.0,0.0,0.0,0.0,0.0,0.0,0.0,0.0,0.0,0.0,0.0,0.0,0.0,0.0,0.0,0.0,0.0,0.0,0.0,0.0,0.0,0.0,0.0,0.0,0.0,0.0,0.0,0.0,0.0,0.0,0.0,0.0,0.0,0.0,0.0,0.0,0.0,0.0,0.0,0.0,0.0,0.0,0.0,0.0,0.0,0.0,0.0,0.0,0.0,0.0,0.0,0.0,0.0,0.0,0.0,0.0,0.0,0.0,0.0,0.0,0.0,0.0,0.0,0.0,0.0,0.0,0.0,0.0,0.0,0.0,0.0,0.0,0.0,0.0,0.0,0.0,0.0,0.0,0.0,0.0,0.0,0.0,0.0,0.0,0.0,0.0,0.0,0.0,0.0,0.0,0.0,0.0,0.0,0.0,0.0,0.0,0.0,0.0,0.0,0.0,0.0,0.0,0.0,0.0,0.0,0.0,0.0,0.0,0.0,0.0,0.0,0.0,0.0,0.0,0.0,0.0,0.0,0.0,0.0,0.0,0.0,0.0,0.0,0.0,0.0,0.0,0.0,0.0,0.0,0.0,0.0,0.0,0.0,0.0,0.0,0.0,0.0,0.0,0.0,0.0,0.0,0.0,0.0,0.0,0.0,0.0,0.0,0.0,0.0,0.0,0.0,0.0,0.0,0.0,0.0,0.0,0.0,0.0,0.0,0.0,0.0,0.0,0.0,0.0,0.0,0.0,0.0,0.0,0.0,0.0,0.0,0.0,0.0,0.0,0.0,0.0,0.0,0.0,0.0,0.0,0.0,0.0,0.0,0.0,0.0,0.0,0.0,0.0,0.0,0.0,0.0,0.0,0.0,0.0,0.0,0.0,0.0,0.0,0.0,0.0,0.0,0.0,0.0,0.0,0.0,0.0,0.0,0.0,0.0,0.0,0.0,0.0,0.0,0.0,0.0,0.0,0.0,0.0,0.0,0.0,0.0,0.0,0.0,0.0,0.0,0.0,0.0,0.0,0.0,0.0,0.0,0.0,0.0,0.0,0.0,0.0,0.0,0.0,0.0,0.0,0.0,0.0,0.0,0.0,0.0,0.0,0.0,0.0,0.0,0.0,0.0,0.0,0.0,0.0,0.0,0.0,0.0,0.0,0.0,0.0,0.0,0.0,0.0,0.0,0.0,0.0,0.0,0.0,0.0,0.0,0.0,0.0,0.0,0.0,0.0,0.0,0.0,0.0,0.0,0.0,0.0,0.0,0.0,0.0,0.0,0.0,0.0,0.0,0.0,0.0,0.0,0.0,0.0,0.0,0.0,0.0,0.0,0.0,0.0,0.0,0.0,0.0,0.0,0.0,0.0,0.0,0.0,0.0,0.0,0.0,0.0,0.0,0.0,0.0,0.0,0.0,0.0,0.0,0.0,0.0,0.0,0.0,0.0,0.0,0.0,0.0,0.0,0.0,0.0,0.0,0.0,0.0,0.0,0.0,0.0,0.0,0.0,0.0,0.0,0.0,0.0,0.0,0.0,0.0,0.0,0.0,0.0,0.0,0.0,0.0,0.0,0.0,0.0,0.0,0.0,0.0,0.0,0.0,0.0,0.0,0.0,0.0,0.0,0.0,0.0,0.0,0.0,0.0,0.0,0.0,0.0,0.0,0.0,0.0,0.0,0.0,0.0,0.0,0.0,0.0,0.0,0.0,0.0,0.0,0.0,0.0,0.0,0.0,0.0,0.0,0.0,0.0,0.0,0.0,0.0,0.0,0.0,0.0,0.0,0.0,0.0,0.0,0.0,0.0,0.0,0.0,0.0,0.0,0.0,0.0,0.0,0.0,0.0,0.0,0.0,0.0,0.0,0.0,0.0,0.0,0.0,0.0,0.0,0.0,0.0,0.0,0.0,0.0,0.0,0.0,0.0,0.0,0.0,0.0,0.0,0.0,0.0,0.0,0.0,0.0,0.0,0.0,0.0,0.0,0.0,0.0,0.0,0.0,0.0,0.0,0.0,0.0,0.0,0.0,0.0,0.0,0.0,0.0,0.0,0.0,0.0,0.0,0.0,0.0,0.0,0.0,0.0,0.0,0.0,0.0,0.0,0.0,0.0,0.0,0.0,0.0,0.0,0.0,0.0,0.0,0.0,0.0,0.0,0.0,0.0,0.0,0.0,0.0,0.0,0.0,0.0,0.0,0.0,0.0,0.0,0.0,0.0,0.0,0.0,0.0,0.0,0.0,0.0,0.0,0.0,0.0,0.0,0.0,0.0,0.0,0.0,0.0,0.0,0.0,0.0,0.0,0.0,0.0,0.0,0.0,0.0,0.0,0.0,0.0,0.0,0.0,0.0,0.0,0.0,0.0,0.0,0.0,0.0,0.0,0.0,0.0,0.0,0.0,0.0,0.0,0.0,0.0,0.0,0.0,0.0,0.0,0.0,0.0,0.0,0.0,0.0,0.0,0.0,0.0,0.0,0.0,0.0,0.0,0.0,0.0,0.0,0.0,0.0,0.0,0.0,0.0,0.0,0.0,0.0,0.0,0.0,0.0,0.0,0.0,0.0,0.0,0.0,0.0,0.0,0.0,0.0,0.0,0.0,0.0,0.0,0.0,0.0,0.0,0.0,0.0,0.0,0.0,0.0,0.0,0.0,0.0,0.0,0.0,0.0,0.0,0.0,0.0,0.0,0.0,0.0,0.0,0.0,0.0,0.0,0.0,0.0,0.0,0.0,0.0,0.0,0.0,0.0,0.0,0.0,0.0,0.0,0.0,0.0,0.0,0.0,0.0,0.0,0.0,0.0,0.0,0.0,0.0,0.0,0.0,0.0,0.0,0.0,0.0,0.0,0.0,0.0,0.0,0.0,0.0,0.0,0.0,0.0,0.0,0.0,0.0,0.0,0.0,0.0,0.0,0.0,0.0,0.0,0.0,0.0,0.0,0.0,0.0,0.0,0.0,0.0,0.0,0.0,0.0,0.0,0.0,0.0,0.0,0.0,0.0,0.0,0.0,0.0,0.0,0.0,0.0,0.0,0.0,0.0,0.0,0.0,0.0,0.0,0.0,0.0,0.0,0.0,0.0,0.0,0.0,0.0,0.0,0.0,0.0,0.0,0.0,0.0,0.0,0.0,0.0,0.0,0.0,0.0,0.0,0.0,0.0,0.0,0.0,0.0,0.0,0.0,0.0,0.0,0.0,0.0,0.0,0.0,0.0,0.0,0.0,0.0,0.0,0.0,0.0,0.0,0.0,0.0,0.0,0.0,0.0,0.0,0.0,0.0,0.0,0.0,0.0,0.0,0.0,0.0,0.0,0.0,0.0,0.0,0.0,0.0,0.0,0.0,0.0,0.0,0.0,0.0,0.0,0.0,0.0,0.0,0.0,0.0,0.0,0.0,0.0,0.0,0.0,0.0,0.0,0.0,0.0,0.0,0.0,0.0,0.0,0.0,0.0,0.0,0.0,0.0,0.0,0.0,0.0,0.0,0.0,0.0,0.0,0.0,0.0,0.0,0.0,0.0,0.0,0.0,0.0,0.0,0.0,0.0,0.0,0.0,0.0,0.0,0.0,0.0,0.0,0.0,0.0,0.0,0.0,0.0,0.0,0.0,0.0,0.0,0.0,0.0,0.0,0.0,0.0,0.0,0.0,0.0,0.0,0.0,0.0,0.0,0.0,0.0,0.0,0.0,0.0,0.0,0.0,0.0,0.0,0.0,0.0,0.0,0.0,0.0,0.0,0.0,0.0,0.0,0.0,0.0,0.0,0.0,0.0,0.0,0.0,0.0,0.0,0.0,0.0,0.0,0.0,0.0,0.0,0.0,0.0,0.0,0.0,0.0,0.0,0.0,0.0,0.0,0.0,0.0,0.0,0.0,0.0,0.0,0.0,0.0,0.0,0.0,0.0,0.0,0.0,0.0,0.0,0.0,0.0,0.0,0.0,0.0,0.0,0.0,0.0,0.0,0.0,0.0,0.0,0.0,0.0,0.0,0.0,0.0,0.0,0.0,0.0,0.0,0.0,0.0,0.0,0.0,0.0,0.0,0.0,0.0,0.0,0.0,0.0,0.0,0.0,0.0,0.0,0.0,0.0,0.0,0.0,0.0,0.0,0.0,0.0,0.0,0.0,0.0,0.0,0.0,0.0,0.0,0.0,0.0,0.0,0.0,0.0,0.0,0.0,0.0,0.0,0.0,0.0,0.0,0.0,0.0,0.0,0.0,0.0,0.0,0.0,0.0,0.0,0.0,0.0,0.0,0.0,0.0,0.0,0.0,0.0,0.0,0.0,0.0,0.0,0.0,0.0,0.0,0.0,0.0,0.0,0.0,0.0,0.0,0.0,0.0,0.0,0.0,0.0,0.0,0.0,0.0,0.0,0.0,0.0,0.0,0.0,0.0,0.0,0.0,0.0,0.0,0.0,0.0,0.0,0.0,0.0,0.0,0.0,0.0,0.0,0.0,0.0,0.0,0.0,0.0,0.0,0.0,0.0,0.0,0.0,0.0,0.0,0.0,0.0,0.0,0.0,0.0,0.0,0.0,0.0,0.0,0.0,0.0,0.0,0.0,0.0,0.0,0.0,0.0,0.0,0.0,0.0,0.0,0.0,0.0,0.0,0.0,0.0,0.0,0.0,0.0,0.0,0.0,0.0,0.0,0.0,0.0,0.0,0.0,0.0,0.0,0.0,0.0,0.0,0.0,0.0,0.0,0.0,0.0,0.0,0.0,0.0,0.0,0.0,0.0,0.0,0.0,0.0,0.0,0.0,0.0,0.0,0.0,0.0,0.0,0.0,0.0,0.0,0.0,0.0,0.0,0.0,0.0,0.0,0.0,0.0,0.0,0.0,0.0,0.0,0.0,0.0,0.0,0.0,0.0,0.0,0.0,0.0,0.0,0.0,0.0,0.0,0.0,0.0,0.0,0.0,0.0,0.0,0.0,0.0,0.0,0.0,0.0,0.0,0.0,0.0,0.0,0.0,0.0,0.0,0.0,0.0,0.0,0.0,0.0,0.0,0.0,0.0,0.0,0.0,0.0,0.0,0.0,0.0,0.0,0.0,0.0,4.034,0.0,0.0,0.0,0.0,0.0,0.0,0.0,0.0,0.0,0.0,0.0,0.0,0.0,0.0,0.0,0.0,0.0,0.0,0.0,0.0,0.0,0.0,0.0,0.0,0.0,0.0,0.0,0.0,0.0,0.0,0.0,0.0,0.0,0.0,0.0,0.0,0.0,0.0,0.0,0.0,0.0,0.0,0.0,0.0,0.0,0.0,0.0,0.0,0.0,0.0,0.0,0.0,0.0,0.0,0.0,0.0,0.0,0.0,0.0,0.0,0.0,0.0,0.0,0.0,0.0,0.0,0.0,0.0,0.0,0.0,0.0,0.0,0.0,0.0,0.0,0.0,0.0,0.0,0.0,0.0,0.0,0.0,0.0,0.0,0.0,0.0,0.0,0.0,0.0,0.0,0.0,0.0,0.0,0.0,0.0,0.0,0.0,0.0,0.0,0.0,0.0,0.0,0.0,0.0,0.0,0.0,0.0,0.0,0.0,0.0,0.0,0.0,0.0,0.0,0.0,0.0,4.1411,0.0,0.0,0.0,0.0,0.0,0.0,0.0,0.0,0.0,0.0,0.0,0.0,0.0,0.0,0.0,0.0,0.0,0.0,0.0,0.0,0.0,0.0,0.0,0.0,0.0,0.0,0.0,0.0,0.0,0.0,0.0,0.0,0.0,0.0,0.0,0.0,0.0,0.0,0.0,0.0,0.0,0.0,0.0,0.0,0.0,0.0,0.0,0.0,0.0,0.0,0.0,0.0,0.0,0.0,0.0,0.0,0.0,0.0,0.0,0.0,0.0,0.0,0.0,0.0,0.0,0.0,0.0,0.0,0.0,0.0,0.0,0.0,0.0,0.0,0.0,0.0,0.0,0.0,0.0,0.0,0.0,0.0,0.0,0.0,0.0,0.0,0.0,0.0,0.0,0.0,0.0,0.0,0.0,0.0,0.0,0.0,0.0,0.0,0.0,0.0,0.0,0.0,0.0,0.0,0.0,0.0,0.0,0.0,4.2972,4.3262,4.3841,4.3508,4.3957,4.5096,4.6405,4.6906,4.6657,4.3876,0.0,0.0,0.0,0.0,0.0,0.0,0.0,0.0,0.0,0.0,0.0,0.0,0.0,0.0,0.0,0.0,0.0,0.0,0.0,0.0,0.0,0.0,0.0,0.0,0.0,0.0,0.0,0.0,0.0,0.0,0.0,0.0,0.0,0.0,0.0,0.0,0.0,0.0,3.438,3.3715,3.3418,3.3434,3.2696,0.0,0.0,0.0,0.0,0.0,0.0,0.0,0.0,0.0,0.0,0.0,0.0,0.0,0.0,0.0,0.0,0.0,0.0,0.0,0.0,0.0,0.0,0.0,0.0,0.0,0.0,0.0,0.0,0.0,0.0,0.0,0.0,0.0,0.0,0.0,0.0,0.0,0.0,0.0,0.0,0.0,0.0,0.0,3.7829,4.1393,0.0,0.0,0.0,0.0,0.0,0.0,0.0,0.0,0.0,0.0,0.0,0.0,0.0,4.1377,4.2247,4.5337,4.7334,4.8169,5.097,5.2377,5.2438,5.2412,5.2496,5.2539,5.0712,0.0,4.8713,4.8278,0.0,0.0,0.0,0.0,0.0,0.0,0.0,0.0,0.0,0.0,0.0,0.0,0.0,0.0,0.0,0.0,0.0,0.0,0.0,0.0,0.0,0.0,0.0,0.0,0.0,0.0,0.0,0.0,0.0,0.0,0.0,0.0,0.0,0.0,0.0,0.0,3.4298,3.6107,3.7642,3.7325,3.7325,3.763,3.7243,3.5172,3.1995,3.1979,0.0,0.0,0.0,0.0,0.0,0.0,0.0,0.0,0.0,0.0,0.0,0.0,0.0,0.0,0.0,0.0,0.0,0.0,0.0,0.0,0.0,0.0,0.0,0.0,0.0,0.0,0.0,0.0,0.0,0.0,0.0,0.0,0.0,0.0,0.0,0.0,0.0,0.0,0.0,3.7406,4.0344,4.2545,4.2389,4.1007,0.0,0.0,0.0,0.0,0.0,0.0,0.0,0.0,0.0,4.3759,4.5618,4.7038,4.7908,5.1233,5.3092,5.3493,5.4962,5.5683,5.5683,5.5683,5.5683,5.5608,5.4568,5.3856,5.3343,5.1369,5.0529,5.0162,0.0,0.0,0.0,0.0,4.1999,4.3514,0.0,0.0,0.0,0.0,0.0,0.0,0.0,0.0,0.0,0.0,0.0,0.0,0.0,0.0,0.0,3.1517,0.0,0.0,0.0,0.0,0.0,0.0,0.0,0.0,0.0,0.0,0.0,3.4562,3.7021,3.9063,4.0654,4.0654,4.0654,4.0641,4.056,3.8299,3.4562,3.4496,3.3421,0.0,0.0,0.0,0.0,0.0,0.0,0.0,0.0,0.0,0.0,0.0,0.0,0.0,0.0,0.0,0.0,0.0,0.0,0.0,0.0,0.0,0.0,0.0,0.0,0.0,0.0,0.0,0.0,0.0,0.0,0.0,0.0,0.0,0.0,0.0,0.0,0.0,0.0,3.974,4.2285,4.3845,4.427,4.3475,0.0,0.0,0.0,0.0,0.0,0.0,4.5215,4.5821,4.6845,4.8357,5.0846,5.2461,5.3103,5.563,5.6887,5.6887,5.6887,5.6887,5.6887,5.6887,5.6887,5.6896,5.7112,5.7225,5.6991,5.4204,5.3003,5.2893,5.2076,5.0268,4.7971,4.696,4.7305,4.8131,0.0,0.0,0.0,0.0,0.0,0.0,0.0,0.0,0.0,0.0,0.0,0.0,0.0,0.0,3.3523,3.3376,3.3584,3.2719,0.0,0.0,0.0,0.0,0.0,0.0,0.0,0.0,0.0,3.7674,4.0595,4.2097,4.2198,4.2198,4.2198,4.2198,4.2185,4.0493,3.7674,3.7554,3.6865,3.5638,0.0,0.0,0.0,0.0,0.0,0.0,0.0,0.0,0.0,0.0,0.0,0.0,0.0,0.0,0.0,0.0,0.0,0.0,0.0,0.0,0.0,0.0,0.0,0.0,0.0,0.0,0.0,0.0,0.0,0.0,0.0,0.0,0.0,0.0,0.0,0.0,0.0,0.0,0.0,4.6995,5.0241,0.0,0.0,0.0,0.0,4.541,4.6136,4.8076,5.1187,5.1469,5.3003,5.624,5.6503,5.6587,5.6624,5.6812,5.6887,5.6887,5.6887,5.6887,5.6887,5.6887,5.6887,5.6933,5.7704,5.8042,5.7967,5.7028,5.6653,5.6306,5.3115,5.1802,5.1164,4.7192,4.8251,5.1555,0.0,0.0,0.0,0.0,0.0,0.0,0.0,0.0,0.0,0.0,0.0,0.0,0.0,3.3666,3.5733,3.5644,3.6874,3.6772,3.4605,0.0,0.0,0.0,0.0,0.0,0.0,0.0,3.8011,3.8599,4.1068,4.23,4.23,4.23,4.23,4.2286,4.2193,4.1889,4.1428,4.0881,3.963,3.7921,3.6809,3.4885,0.0,0.0,0.0,0.0,0.0,0.0,0.0,0.0,0.0,0.0,0.0,0.0,0.0,0.0,0.0,0.0,0.0,0.0,0.0,0.0,0.0,0.0,0.0,0.0,0.0,0.0,0.0,0.0,0.0,0.0,0.0,0.0,0.0,0.0,0.0,0.0,0.0,4.8936,5.0976,0.0,5.0861,5.1095,5.0854,4.9672,5.1903,5.3858,5.5021,5.5114,5.5911,5.7629,5.7667,5.7938,5.8427,5.8427,5.8427,5.8427,5.8427,5.8427,5.8427,5.8427,5.8427,5.8464,5.8764,5.8877,5.884,5.8649,5.8519,5.8314,5.7112,5.6697,5.6608,5.5141,5.5559,5.6806,0.0,0.0,0.0,0.0,0.0,0.0,0.0,0.0,0.0,0.0,0.0,3.2041,3.2613,3.5833,3.7948,3.7841,3.9379,3.8995,3.5802,0.0,0.0,0.0,0.0,0.0,0.0,3.7932,3.9963,4.0646,4.2377,4.3226,4.3226,4.3226,4.3226,4.3226,4.3132,4.3376,4.3844,4.3349,4.2272,4.0811,3.9758,3.7256,3.4028,0.0,0.0,0.0,0.0,0.0,0.0,0.0,0.0,0.0,0.0,0.0,0.0,0.0,0.0,0.0,0.0,0.0,0.0,0.0,0.0,0.0,0.0,0.0,0.0,0.0,0.0,0.0,0.0,0.0,0.0,0.0,0.0,0.0,0.0,0.0,4.7802,5.0538,5.235,5.3377,5.3377,5.3726,5.3928,5.3928,5.6269,5.7713,5.7713,5.7713,5.7938,5.8492,5.8492,5.8755,5.929,5.929,5.9309,5.9383,5.9383,5.9392,5.9391,5.9391,5.8789,5.7829,5.8902,5.8752,5.7829,5.9049,5.9483,5.9391,5.9391,5.9465,5.9519,5.9519,5.9554,5.9607,0.0,0.0,0.0,0.0,0.0,0.0,0.0,0.0,0.0,0.0,3.2702,3.4616,3.6945,3.8932,4.0083,3.993,4.0708,3.8977,3.368,3.4005,0.0,0.0,0.0,0.0,3.9349,4.0248,4.174,4.3915,4.4633,4.5009,4.5009,4.5009,4.5009,4.5009,4.5009,4.494,4.4803,4.4837,4.4754,4.4378,4.1362,3.9269,3.7686,0.0,0.0,0.0,0.0,0.0,0.0,0.0,0.0,0.0,0.0,0.0,0.0,0.0,0.0,0.0,0.0,0.0,0.0,0.0,0.0,0.0,0.0,0.0,0.0,0.0,0.0,0.0,0.0,0.0,0.0,0.0,0.0,0.0,4.2097,4.7697,5.1772,5.1884,5.4797,5.678,5.678,5.7612,5.8155,5.8155,5.8877,5.929,5.929,5.9215,5.914,5.9149,5.9149,5.9149,5.9149,5.9262,5.9383,5.9521,5.9521,5.9528,5.9607,5.9607,5.7859,5.503,5.8228,5.7784,5.5106,5.8274,5.9616,5.9607,5.9607,5.9607,5.9616,5.9616,5.9616,5.9587,0.0,0.0,0.0,0.0,0.0,0.0,0.0,0.0,0.0,0.0,3.1677,3.4068,3.4512,3.8369,4.0886,4.0848,4.1458,4.0339,3.6722,0.0,0.0,0.0,0.0,0.0,4.091,4.2903,4.4158,4.4701,4.4906,4.5009,4.5009,4.5009,4.5009,4.5009,4.5009,4.4995,4.4988,4.55,4.5711,4.5553,4.3959,4.2104,4.0214,0.0,0.0,0.0,0.0,0.0,0.0,0.0,0.0,0.0,0.0,0.0,0.0,0.0,0.0,0.0,0.0,0.0,0.0,0.0,0.0,0.0,0.0,0.0,0.0,0.0,0.0,0.0,0.0,0.0,0.0,0.0,4.6733,5.0356,4.9246,5.1178,5.3631,5.6056,5.7659,5.8577,5.8577,5.8821,5.899,5.899,5.9178,5.929,5.929,5.7037,5.5804,5.5898,5.5843,5.5869,5.5961,5.8339,5.9545,5.9572,5.9572,5.9581,5.9607,5.9607,5.9125,5.8304,5.9201,5.9087,5.8312,5.9345,5.9748,5.974,5.9633,5.965,5.9757,5.9786,5.9853,5.9522,0.0,0.0,0.0,0.0,0.0,0.0,0.0,0.0,0.0,0.0,3.1719,3.4189,3.5237,3.9131,4.1651,4.1585,4.218,4.0806,3.6634,0.0,0.0,0.0,0.0,4.0412,4.3138,4.4577,4.5264,4.5171,4.5171,4.5356,4.5664,4.5664,4.5836,4.6145,4.6145,4.6117,4.6097,4.6494,4.6651,4.6546,4.5968,4.4537,4.2796,4.3058,4.1706,3.9673,3.9868,3.9659,3.9068,3.794,0.0,0.0,0.0,0.0,0.0,0.0,0.0,0.0,0.0,0.0,0.0,0.0,0.0,0.0,0.0,0.0,0.0,0.0,0.0,0.0,0.0,0.0,0.0,0.0,4.9732,5.4315,5.4931,5.5405,5.6401,5.838,5.9027,5.929,5.929,5.929,5.929,5.929,5.9365,5.9392,5.9392,5.7586,5.5999,5.4694,5.5944,5.5998,5.4698,5.7972,5.9624,5.9668,5.9668,5.9693,5.9727,5.9727,5.8988,5.7756,5.9139,5.895,5.7802,5.9227,5.9841,0.0,0.0,0.0,0.0,0.0,5.9926,5.97,0.0,0.0,0.0,0.0,0.0,0.0,0.0,0.0,0.0,0.0,0.0,3.476,3.7631,4.0578,4.2333,4.2314,4.2665,4.0534,0.0,0.0,0.0,4.0417,4.0835,4.2391,4.5492,4.5561,4.5583,4.5673,4.5673,4.6017,4.672,4.672,4.7065,4.7686,4.7686,4.7617,4.7525,4.7594,4.7572,4.7486,4.7569,4.6642,4.5205,4.5456,4.421,4.2312,4.2384,4.1775,4.0994,4.1337,0.0,0.0,0.0,0.0,0.0,0.0,0.0,0.0,0.0,0.0,0.0,0.0,0.0,0.0,0.0,0.0,0.0,0.0,0.0,0.0,0.0,0.0,0.0,0.0,5.142,5.539,5.9011,5.942,5.9318,5.929,5.929,5.929,5.9309,5.9309,5.9309,5.9327,5.9438,5.953,5.953,0.0,0.0,0.0,0.0,5.7658,5.4767,5.8006,5.9685,5.9799,5.9799,5.9841,5.9893,5.9893,5.8295,5.5722,5.8636,5.8273,5.5775,5.872,5.9902,5.9893,5.9893,5.9902,5.9872,5.9485,5.9606,5.9872,0.0,0.0,0.0,0.0,0.0,0.0,0.0,0.0,0.0,2.9316,3.2554,3.5596,3.7968,4.0867,4.2927,4.3647,4.1971,3.9428,0.0,0.0,3.447,4.0885,4.1129,4.2838,4.6446,4.655,4.6759,4.7272,4.7272,4.7341,4.7479,4.7479,4.7548,4.7686,4.7686,4.7707,4.7713,4.8299,4.8526,4.8581,4.9309,4.8507,4.6935,4.8025,4.8116,4.7828,4.8856,4.9125,4.8745,4.6892,4.62,4.6348,4.7895,0.0,0.0,0.0,0.0,0.0,0.0,0.0,0.0,0.0,0.0,0.0,0.0,0.0,0.0,0.0,0.0,0.0,0.0,0.0,0.0,5.2107,5.5764,5.8787,5.9485,5.9572,5.9463,5.9309,5.929,5.9327,5.9438,5.9447,5.9474,5.9554,5.9572,5.9581,5.9581,5.7079,5.5416,5.4875,5.5427,5.5496,5.4965,5.8202,5.9844,5.9861,0.0,0.0,5.9893,5.9893,5.956,5.9,5.9662,5.9618,5.9102,5.9732,5.995,5.9893,5.9893,5.9934,5.9648,5.6937,5.7666,5.9572,0.0,0.0,0.0,0.0,0.0,0.0,0.0,0.0,0.0,0.0,3.0758,3.3775,3.6829,3.833,4.0012,4.2162,3.9911,0.0,0.0,3.7234,3.8757,4.3925,4.412,4.5149,4.7403,4.7437,4.7605,4.7919,4.7919,4.8127,4.8508,4.8508,4.8716,4.9063,4.9063,4.9063,4.9097,4.943,4.9603,4.968,5.0404,5.013,4.9331,5.003,5.049,5.0859,5.1766,5.2123,5.2057,5.1108,5.0785,5.0991,5.2243,5.1228,4.9285,0.0,0.0,0.0,0.0,0.0,0.0,0.0,0.0,0.0,0.0,0.0,0.0,0.0,0.0,4.7315,4.7304,0.0,5.1658,5.3263,5.57,5.7951,5.9534,5.9786,5.9715,5.9525,5.9499,5.9516,5.9598,5.9607,5.9607,5.9607,5.965,5.9714,5.9714,5.8186,5.6579,5.5039,5.6558,5.6679,5.513,5.8334,5.9958,5.9958,5.9958,5.9958,5.9958,5.9998,6.0013,6.0013,6.006,6.0304,6.0722,6.1186,6.1315,6.1283,6.1283,6.0757,5.976,5.8083,5.8766,6.0291,0.0,0.0,0.0,0.0,0.0,0.0,0.0,0.0,0.0,0.0,2.9261,3.1881,3.5448,3.5651,3.6502,0.0,0.0,0.0,0.0,4.114,4.3288,4.7147,4.7287,4.7622,4.8349,4.8384,4.844,4.8553,4.8553,4.8866,4.9493,4.9493,4.9841,5.0383,5.0383,5.0383,5.0383,5.0383,5.0383,5.0425,5.087,5.1101,5.1244,5.136,5.1825,5.2484,5.3176,5.3419,5.3549,5.4201,5.4428,5.4615,5.5538,5.5669,5.4662,5.0489,5.0944,0.0,0.0,0.0,0.0,0.0,0.0,0.0,0.0,4.8782,4.9573,4.8892,4.9308,4.9738,4.9742,5.0331,5.1722,5.448,5.5502,5.6937,5.957,5.9998,5.9952,5.9823,5.9765,5.974,5.9757,5.9757,5.9732,5.9719,5.9786,5.9857,5.9857,5.9902,5.8737,5.6157,5.8623,5.8874,5.6446,5.8996,6.0341,6.0539,6.0539,6.0539,6.0539,6.0563,6.0593,6.0593,6.0609,6.1035,6.172,6.2414,6.2718,6.2703,6.2703,6.1779,6.0443,6.0443,6.0852,6.143,0.0,0.0,0.0,0.0,0.0,0.0,0.0,0.0,0.0,0.0,0.0,0.0,0.0,0.0,0.0,0.0,0.0,0.0,3.9105,4.1228,4.4224,4.8259,4.8364,4.8649,4.9334,4.9334,4.9616,5.014,5.014,5.0189,5.0293,5.0293,5.0314,5.0383,5.0383,5.0383,5.0383,5.0383,5.0383,5.0397,5.0467,5.0857,5.1386,5.1398,5.1934,5.2802,5.407,5.4583,5.4812,5.5596,5.5936,5.6241,5.7286,5.7099,5.619,5.438,5.3604,5.1699,4.4355,4.0489,3.9212,4.2094,4.6207,4.9525,0.0,5.4223,5.7641,5.4678,5.6421,5.8475,5.8483,5.8622,5.8858,5.9238,5.9422,5.9657,6.003,6.0076,6.0137,6.0227,6.0013,5.9902,5.9982,5.9982,5.9967,6.0038,6.0045,6.0053,6.0053,6.0061,5.9924,5.9558,5.9893,6.0281,6.0715,6.1081,6.1651,6.2382,6.2382,6.2382,6.2382,6.239,6.2398,6.2398,6.2468,6.2536,6.2651,6.2765,6.2765,6.2703,6.2703,6.2581,6.2405,6.2405,6.2443,6.2519,0.0,0.0,0.0,0.0,0.0,0.0,0.0,0.0,0.0,0.0,0.0,0.0,0.0,0.0,0.0,0.0,0.0,0.0,3.8377,4.1993,4.5605,4.9096,4.9223,4.9548,5.0301,5.0287,5.0435,5.0696,5.0696,5.0696,5.0696,5.0696,5.0696,5.0696,5.0696,5.0696,5.0696,5.0696,5.0696,5.0758,5.1484,5.1979,5.2312,5.3119,5.3875,5.418,5.1795,5.1295,0.0,0.0,5.3008,5.3691,5.7028,5.6182,5.4042,5.4422,5.2185,4.8987,4.6471,4.6292,4.7275,4.9157,5.2686,5.5693,5.5716,5.7875,5.9441,5.8096,5.8897,5.9874,5.9942,5.8395,5.7749,5.9733,5.8522,5.8008,5.9937,6.0241,6.0292,6.0359,5.8556,5.7075,5.6566,5.8743,5.9155,5.6666,5.9216,6.0852,6.0852,6.1355,6.1614,6.1652,6.166,6.1865,6.2254,6.2247,6.2384,6.2773,6.2773,6.2773,6.2773,6.2811,6.2833,6.2833,6.3367,6.3611,6.3649,6.4108,6.4314,6.4253,6.4253,6.4253,6.4123,6.3085,6.3007,6.3388,0.0,0.0,0.0,0.0,0.0,0.0,0.0,0.0,0.0,0.0,0.0,0.0,0.0,0.0,0.0,0.0,0.0,0.0,0.0,4.2799,4.653,4.9903,5.0044,5.029,5.0887,5.0887,5.0887,5.0887,5.0887,5.0887,5.0887,5.0887,5.0887,5.0887,5.0887,5.0887,5.0922,5.1119,5.1189,5.13,5.2458,5.3019,5.3274,5.4301,5.4602,5.3978,5.0296,4.9481,0.0,0.0,5.0405,5.189,5.4355,5.3723,5.2142,5.274,4.9439,4.5942,4.7672,4.9322,5.1199,5.3897,5.655,5.8756,5.9704,5.9874,5.9849,5.991,5.9869,5.9907,6.0021,5.8053,5.7284,5.9733,5.8418,5.7902,6.0323,6.0907,6.0561,5.9192,5.7084,5.4467,5.1204,5.6011,5.847,5.6546,5.974,6.1797,6.1797,6.2414,6.2788,6.2841,6.2849,6.2985,6.3274,6.3222,6.3306,6.3535,6.3535,6.3535,6.3535,6.355,6.3572,6.3618,6.4275,6.4542,6.458,6.5191,6.5474,6.5443,6.5487,6.5509,6.5341,6.4053,6.3902,6.4352,0.0,0.0,0.0,0.0,0.0,0.0,0.0,0.0,0.0,0.0,0.0,0.0,0.0,0.0,0.0,0.0,0.0,0.0,4.1137,4.3652,4.67,5.0697,5.0851,5.0887,5.0887,5.0887,5.0887,5.0887,5.0887,5.0887,5.0887,5.0887,5.0887,5.0887,5.0887,5.0887,5.0957,5.1667,5.1983,5.2053,5.2867,5.3542,5.4066,5.4115,5.2862,5.1144,5.0987,0.0,0.0,0.0,4.9629,5.2365,4.8626,4.9596,0.0,4.9522,4.5849,4.3266,4.6537,4.5135,4.4491,5.1888,5.4389,5.5906,5.9173,5.9893,5.991,5.9998,6.0013,6.0029,6.0076,6.0113,6.0165,6.0286,6.0924,6.1433,6.1547,6.2273,6.1012,5.6122,5.6167,5.304,0.0,5.1353,5.8345,6.2342,6.2762,6.2839,6.2839,6.2877,6.2877,6.2884,6.2884,6.3312,6.416,6.416,6.4535,6.5337,6.5337,6.5337,6.5337,6.5337,6.5337,6.5337,6.5337,6.5375,6.539,6.553,6.5594,6.5608,6.5756,6.5808,6.5769,6.5731,6.564,6.5549,0.0,0.0,0.0,0.0,0.0,0.0,0.0,0.0,0.0,0.0,0.0,0.0,0.0,0.0,0.0,0.0,3.1022,3.3152,3.6031,3.9828,4.3512,4.6906,4.9025,5.036,5.0887,5.0887,5.0887,5.0887,5.0887,5.0887,5.0887,5.0887,5.0887,5.0922,5.14,5.1632,5.1681,5.2453,5.2818,5.2853,5.3612,5.4141,5.4213,5.2222,5.1452,5.0762,0.0,0.0,0.0,4.3312,4.3566,4.4587,4.6056,4.5369,4.3416,4.0413,4.2442,4.5439,4.4371,4.6916,5.0637,5.3745,5.6406,5.8585,5.9771,6.0014,6.0038,6.0114,5.7877,5.5922,5.6037,5.4235,5.369,5.6572,5.5383,5.6052,6.1662,5.7886,5.5969,5.9904,5.616,0.0,0.0,0.0,0.0,5.4632,6.0255,6.3778,6.3778,6.4267,6.4573,6.4573,6.4573,6.4688,6.4993,6.4993,6.5146,6.5413,6.5413,6.5413,6.5421,6.5479,6.5523,6.5568,6.6256,6.6528,6.6573,6.7196,6.7447,6.7454,6.75,6.752,6.752,6.752,6.7552,6.7423,0.0,0.0,0.0,0.0,0.0,0.0,0.0,0.0,0.0,0.0,0.0,0.0,0.0,0.0,0.0,0.0,0.0,3.1446,3.3829,0.0,3.98,4.2949,4.4952,4.624,4.673,4.8138,4.884,4.8837,5.0219,5.0887,5.0887,5.0887,5.1049,5.1294,5.1772,5.2158,5.2488,5.3387,5.3732,5.3641,5.3091,5.2941,5.271,4.9478,4.7919,0.0,0.0,0.0,0.0,3.8466,3.9283,4.0506,4.1427,4.0268,3.8596,3.8795,4.201,4.566,4.6228,4.9986,5.4206,5.6216,5.8403,6.003,6.0084,6.0358,6.0571,6.0653,5.8725,5.6501,5.4822,5.2686,5.2126,5.4931,5.3798,5.5097,6.2357,5.8956,5.7046,6.0676,5.7077,5.5702,0.0,0.0,0.0,5.3639,5.8994,6.2402,6.2402,6.2853,6.3847,6.5337,6.5413,6.5413,6.5413,6.5413,6.5597,6.5931,6.5931,6.6114,6.6478,6.657,6.56,6.3981,6.6474,6.6513,6.5006,6.7455,6.8482,6.8488,6.8531,6.855,6.855,6.855,6.8618,6.854,0.0,0.0,0.0,0.0,0.0,0.0,0.0,0.0,0.0,0.0,0.0,0.0,0.0,0.0,0.0,0.0,0.0,0.0,3.4288,0.0,0.0,3.8954,3.9271,3.9345,3.9333,4.3005,4.4871,4.4811,4.8547,5.0373,5.036,5.0395,5.0816,5.154,5.1589,5.2059,5.2874,5.3942,5.4337,5.3992,5.1154,5.0025,4.9659,4.595,0.0,0.0,0.0,0.0,3.4794,3.4036,3.7068,4.0322,3.5775,3.5438,3.7909,4.3938,4.4424,4.4473,5.1364,5.3662,5.5083,5.9033,6.0045,6.0099,6.0182,6.083,6.1355,6.1209,6.1682,6.059,5.5613,5.4556,5.4594,5.5052,5.5632,5.7893,6.3205,6.4428,6.3083,5.8498,5.8651,0.0,0.0,0.0,0.0,5.9102,0.0,5.9408,5.9408,5.9408,6.1242,6.5261,6.5413,6.5413,6.5452,6.549,6.6,6.6971,6.6971,6.747,6.8411,6.8417,6.575,6.1379,6.634,6.5685,6.155,6.6634,6.8743,6.8766,6.8905,6.8953,6.8963,6.8963,6.8974,6.9018,0.0,0.0,0.0,0.0,0.0,0.0,0.0,0.0,0.0,0.0,0.0,0.0,0.0,0.0,0.0,0.0,0.0,0.0,2.9738,0.0,0.0,0.0,0.0,0.0,0.0,0.0,0.0,4.0994,4.2553,4.3273,4.324,4.3768,4.453,4.5388,4.6047,4.679,4.7653,4.8471,4.8972,4.8982,0.0,4.6395,4.6162,0.0,0.0,0.0,0.0,0.0,3.487,3.4643,3.7101,4.0539,4.2366,4.3231,4.3515,4.3278,4.6792,5.0619,5.0086,5.4069,5.8699,5.9779,6.0159,6.0424,6.1062,6.1418,6.0742,5.7672,5.4695,5.1094,4.5976,4.298,4.3591,5.0468,4.9671,5.1053,5.9262,5.7886,5.6702,5.8567,5.8988,5.9828,6.1707,6.3045,0.0,0.0,6.2013,6.3809,6.3809,6.3809,6.4305,6.5375,6.5413,6.5719,6.6369,6.6942,6.7454,6.7885,6.7885,6.8077,6.8411,6.8513,6.7823,6.6705,6.8733,6.885,6.7768,6.9772,7.0659,7.0761,7.0783,7.0876,7.094,7.094,7.0963,7.0985,0.0,0.0,0.0,0.0,0.0,0.0,0.0,0.0,0.0,0.0,0.0,0.0,0.0,0.0,0.0,0.0,0.0,0.0,0.0,2.9692,0.0,0.0,0.0,0.0,0.0,0.0,0.0,0.0,0.0,0.0,4.122,4.1654,4.2266,4.309,4.3569,4.4251,4.5099,4.5779,0.0,0.0,0.0,0.0,0.0,0.0,0.0,0.0,0.0,0.0,3.5969,3.9267,4.0171,4.1026,4.7331,4.8101,4.7079,4.9202,5.1676,5.3669,5.3557,5.6762,6.0129,6.0174,6.0515,6.0428,5.8713,5.8914,5.8061,5.3133,5.0537,4.7471,4.2001,3.9737,4.1113,4.8569,4.8487,5.0206,5.7994,5.7039,5.6434,5.8835,5.9102,6.0745,6.4993,6.5413,6.442,0.0,6.235,6.2624,6.2624,6.2624,6.3648,6.591,6.5987,6.6369,6.7209,6.7676,6.8219,6.8828,6.8828,6.9129,6.9666,6.9737,6.8569,6.6604,0.0,6.9285,6.7467,7.0175,7.1332,7.1406,7.1491,7.154,7.1625,7.168,7.1731,7.1729,0.0,0.0,0.0,0.0,0.0,0.0,0.0,0.0,0.0,0.0,0.0,0.0,0.0,0.0,0.0,0.0,0.0,0.0,0.0,0.0,0.0,0.0,0.0,0.0,0.0,0.0,0.0,0.0,0.0,0.0,0.0,0.0,0.0,0.0,0.0,0.0,0.0,0.0,0.0,0.0,0.0,0.0,0.0,0.0,0.0,0.0,0.0,3.4799,3.7187,4.4844,4.4573,4.2617,5.153,5.1907,5.0331,5.6958,5.6849,5.5274,5.8283,5.9687,6.0332,6.0454,6.1046,6.0523,5.6396,5.5976,5.483,4.9131,4.7952,4.6391,4.1375,4.1036,4.3219,4.8416,4.9824,5.1882,5.6466,5.8147,5.872,5.8185,5.8682,6.0745,6.4993,6.4879,6.484,6.5528,6.2159,6.0095,6.0095,6.0095,6.2197,6.6713,6.698,6.7362,6.8058,6.8172,6.8762,6.9758,6.9758,7.0323,7.1297,7.1297,6.8898,6.4952,6.9363,6.8782,6.503,6.9479,7.1329,7.1363,7.1495,7.1544,7.1594,7.1711,7.1794,7.1842,0.0,0.0,0.0,0.0,0.0,0.0,0.0,0.0,0.0,0.0,2.8428,2.9337,0.0,0.0,0.0,0.0,0.0,0.0,0.0,0.0,0.0,0.0,0.0,0.0,0.0,2.8939,2.9354,2.9539,3.1458,0.0,0.0,0.0,0.0,0.0,0.0,0.0,0.0,0.0,0.0,0.0,0.0,0.0,0.0,0.0,0.0,0.0,3.4439,3.487,3.6386,4.4617,4.7308,4.8515,5.6315,5.8285,5.746,5.611,5.7241,5.8509,5.6523,5.8087,6.0454,6.1175,6.1502,6.1745,6.2326,5.888,5.4333,4.983,4.5125,4.1719,4.1342,4.1423,4.341,4.9175,5.0206,4.9436,4.6986,5.3257,5.6816,5.3333,5.6581,6.0745,6.4993,6.2235,0.0,0.0,6.5788,6.5368,6.5368,6.5368,6.6101,6.763,6.8394,6.8814,6.8967,6.9616,7.0203,7.0667,7.0667,7.0895,7.1297,7.1297,7.0833,7.002,7.091,0.0,7.0059,7.0949,7.1425,7.1638,7.1659,7.1778,7.1903,7.1946,7.195,7.1952,0.0,0.0,0.0,0.0,0.0,0.0,0.0,0.0,2.778,2.7708,2.8062,2.8714,2.9656,3.0483,0.0,0.0,0.0,0.0,0.0,0.0,0.0,0.0,0.0,0.0,0.0,2.828,2.8535,2.8957,0.0,3.0119,3.0205,3.0923,3.1304,3.134,0.0,0.0,0.0,0.0,0.0,0.0,0.0,0.0,0.0,0.0,0.0,0.0,0.0,3.5173,3.6467,4.2223,4.5028,4.7725,5.6975,5.9893,5.9249,5.5822,5.7324,5.9323,5.6026,5.7992,6.1084,6.1509,6.228,6.1791,5.7358,5.4148,4.9901,4.2144,3.7975,3.5683,3.5615,3.5997,3.9088,4.7603,4.9366,5.0206,5.1652,5.5702,5.7765,5.574,5.765,5.9904,6.1929,6.0286,6.0286,6.3197,6.3427,6.4573,6.7171,6.7744,6.8165,6.8555,6.9387,6.9807,6.9807,7.0316,7.0677,7.0898,7.0972,7.1112,7.1297,7.1297,7.1297,7.1297,7.1297,0.0,6.7544,7.0214,6.9859,6.7927,7.0631,7.179,7.1904,7.1952,7.1992,7.1992,0.0,0.0,0.0,0.0,0.0,0.0,0.0,2.773,2.773,2.773,2.773,2.8057,2.8948,2.9815,3.05,0.0,0.0,0.0,0.0,0.0,0.0,0.0,0.0,0.0,0.0,0.0,0.0,2.9238,2.9487,0.0,0.0,0.0,0.0,0.0,3.0506,3.0747,3.1133,0.0,0.0,0.0,0.0,0.0,0.0,0.0,0.0,0.0,0.0,3.5325,3.6467,4.0019,4.2066,4.4762,5.4063,5.7324,5.7392,5.5466,5.6868,5.8698,5.6975,5.898,6.1707,6.2051,6.3205,6.1867,5.3002,4.9868,4.6042,3.6328,3.2665,3.1408,3.1984,3.263,3.6447,4.6686,4.7837,4.983,5.6542,5.7345,5.7612,5.872,5.8988,5.9522,6.063,5.9904,0.0,6.2135,6.2631,6.4389,6.7981,6.9005,6.9464,6.9464,7.0067,7.0411,7.0411,7.0593,7.075,7.0898,7.1037,7.1172,7.1297,7.1297,7.1297,7.1297,7.1297,0.0,0.0,6.9285,6.8475,6.4698,6.9727,7.1776,7.1852,7.1951,7.1992,7.1992,0.0,0.0,0.0,0.0,0.0,0.0,0.0,2.7881,2.7881,2.7881,2.7881,2.796,2.8096,2.9449,3.0642,0.0,0.0,0.0,0.0,0.0,0.0,0.0,0.0,0.0,0.0,0.0,0.0,2.8407,2.9138,0.0,0.0,0.0,0.0,0.0,0.0,3.0136,3.0767,3.2275,0.0,0.0,0.0,0.0,0.0,0.0,0.0,0.0,0.0,3.4946,3.5666,3.9792,4.1308,4.2147,4.6164,4.9003,5.1399,5.4317,5.5393,5.6425,6.0015,6.1273,6.1975,6.3587,6.4084,6.2937,5.8192,5.234,4.6342,4.0759,3.4655,3.1946,3.7215,3.8247,4.0883,4.8793,0.0,4.4551,5.1347,5.1614,5.2843,5.7466,5.8644,6.0936,6.5559,6.251,6.2555,6.7973,6.9816,7.0198,6.912,6.9846,7.0296,7.0296,7.0372,7.0411,7.0411,7.0593,7.075,7.0898,7.1037,7.1172,7.1297,7.1297,7.1297,7.1297,7.1297,0.0,0.0,6.9517,6.886,6.5597,6.999,7.181,7.1992,7.1992,7.1992,7.1992,0.0,0.0,0.0,0.0,0.0,0.0,0.0,2.8097,2.7956,2.8448,2.8069,2.7802,2.7839,2.9259,3.0411,0.0,0.0,0.0,0.0,0.0,0.0,0.0,0.0,0.0,0.0,0.0,2.8227,2.8226,2.8554,0.0,0.0,0.0,0.0,0.0,0.0,2.9775,3.0739,3.1979,0.0,0.0,0.0,0.0,0.0,0.0,0.0,0.0,0.0,0.0,3.5173,3.6841,3.7409,3.7642,3.9016,4.0122,4.1732,4.5723,5.0469,5.4482,5.4721,5.8498,6.2662,6.3893,6.4542,6.2746,5.4492,5.013,4.5387,3.6753,3.2439,3.0914,3.328,3.4082,3.66,0.0,0.0,0.0,5.4747,5.5817,5.7498,6.2586,6.4382,6.4764,6.3732,0.0,6.3854,6.6713,6.7515,6.8967,7.1374,7.1794,7.1947,7.1947,7.145,7.1232,7.1298,7.0966,7.0885,7.1024,7.116,7.1247,7.1297,7.1297,7.1297,7.1297,7.1297,0.0,0.0,6.8274,6.7129,6.146,6.8832,7.1815,7.207,7.2578,7.2773,7.2851,0.0,0.0,0.0,0.0,0.0,2.8356,2.9175,2.8617,2.827,2.8848,2.8208,2.7708,2.7708,2.9182,3.025,3.0384,0.0,0.0,0.0,0.0,0.0,0.0,0.0,0.0,0.0,0.0,2.8213,2.8213,2.8213,2.8205,0.0,0.0,2.8547,2.8868,0.0,0.0,0.0,0.0,0.0,0.0,0.0,0.0,0.0,0.0,0.0,0.0,0.0,0.0,0.0,0.0,0.0,3.45,3.4332,3.427,3.5191,3.9999,4.6645,5.2412,5.2207,5.7619,6.3503,6.4351,6.3847,6.0714,5.1244,4.7264,4.2904,3.3433,3.08,3.0188,3.0188,3.0873,3.3467,0.0,0.0,4.5392,5.5473,5.6886,5.8873,6.4191,6.5872,6.6063,6.4726,6.5918,6.7026,6.7591,6.7859,6.9578,7.317,7.3361,7.3132,7.2635,7.2032,7.1631,7.1474,7.1108,7.0946,7.1043,7.1219,7.0639,6.9479,7.0717,7.0639,6.9517,7.0755,0.0,0.0,6.8042,6.6823,6.0761,6.8912,7.2205,7.25,7.3359,7.3672,7.3789,0.0,0.0,0.0,0.0,0.0,0.0,0.0,2.9495,2.8918,2.8979,2.823,2.7708,2.7708,2.9182,3.0215,3.0188,0.0,0.0,0.0,0.0,0.0,0.0,0.0,0.0,0.0,0.0,2.8213,2.8213,2.8213,2.8213,2.8213,2.832,2.8842,2.9725,0.0,0.0,0.0,0.0,0.0,0.0,0.0,0.0,0.0,0.0,0.0,0.0,0.0,0.0,0.0,0.0,0.0,0.0,0.0,3.2581,3.3675,0.0,4.5045,5.0135,5.5167,6.0262,6.4389,6.5184,6.1631,5.6434,5.0441,4.459,3.8701,3.2745,3.08,3.0188,3.0188,3.0911,3.37,4.0391,4.2221,0.0,5.085,5.1691,5.3874,5.9765,6.0492,6.3434,7.0886,7.2376,7.2902,7.2902,7.3667,0.0,7.4193,7.4193,7.3437,7.1764,7.1688,7.1306,7.0411,7.075,7.0898,7.0905,7.1178,6.913,6.5223,6.9401,6.9014,6.5301,0.0,0.0,0.0,6.9556,6.8911,6.5727,7.0934,7.3104,7.3398,7.4258,7.4609,7.4609,0.0,0.0,0.0,0.0,0.0,0.0,0.0,2.994,2.9238,2.9799,2.8679,2.8028,2.8541,2.9503,3.0363,3.0885,0.0,0.0,0.0,0.0,0.0,0.0,0.0,0.0,0.0,0.0,2.8552,2.9089,2.8491,2.8213,2.8213,2.828,2.8606,2.9138,3.0091,3.1169,0.0,0.0,0.0,0.0,0.0,0.0,0.0,0.0,0.0,0.0,0.0,0.0,0.0,0.0,0.0,0.0,0.0,0.0,0.0,3.4613,3.9065,4.3458,4.5687,4.9557,5.3187,5.4034,5.2614,4.9436,4.3558,4.0769,3.7746,3.1828,3.038,3.0188,3.0188,3.1366,3.4346,4.0506,4.2679,0.0,5.7046,5.8414,6.0637,6.6522,6.8279,7.0389,7.3943,0.0,7.0962,7.4439,7.1726,7.1145,7.404,7.4193,7.3972,7.3437,7.2299,7.1623,7.1428,7.107,7.0946,7.1037,7.1219,6.9092,6.5146,6.9363,6.9014,0.0,0.0,0.0,0.0,7.0208,6.9759,6.6575,7.1794,7.3926,7.416,7.5116,7.5508,7.5586,0.0,0.0,0.0,0.0,0.0,0.0,0.0,3.0611,2.9829,3.0592,2.9294,2.8606,2.9343,3.0077,3.071,3.1224,0.0,0.0,0.0,0.0,0.0,0.0,0.0,0.0,0.0,2.8604,2.8578,2.9059,2.8602,2.8527,2.8851,2.8708,2.9089,2.9911,3.0472,3.1567,0.0,0.0,0.0,0.0,0.0,0.0,3.495,0.0,0.0,0.0,0.0,0.0,0.0,0.0,0.0,0.0,0.0,0.0,0.0,0.0,3.4518,3.76,4.0706,4.46,4.7946,4.8487,4.6762,4.3935,3.9924,3.7521,3.5037,3.1029,3.1984,3.2825,3.0609,3.3394,3.6485,3.7941,4.3324,4.9093,5.425,5.7421,6.0752,6.4726,6.8661,7.21,0.0,7.2452,7.207,7.5242,7.2261,7.1412,7.404,7.359,7.3246,7.3246,7.2261,7.1584,7.1336,7.1063,7.0939,7.103,7.1213,6.9092,6.5146,6.9363,6.9014,0.0,0.0,0.0,0.0,7.1291,7.1315,6.9691,7.3274,7.4788,7.5062,7.6053,7.6406,7.6484,0.0,0.0,0.0,0.0,0.0,0.0,0.0,0.0,0.0,3.1235,2.9996,2.9351,3.0096,3.0791,3.122,3.129,0.0,0.0,0.0,0.0,0.0,0.0,0.0,0.0,0.0,2.8474,2.8445,2.8418,2.8735,2.9205,2.9831,2.9523,3.0149,3.1543,3.12,3.2063,0.0,0.0,0.0,0.0,0.0,0.0,0.0,0.0,0.0,0.0,0.0,0.0,0.0,0.0,0.0,0.0,0.0,0.0,0.0,0.0,0.0,0.0,0.0,4.3703,4.6648,4.6648,4.3095,3.9389,3.8553,3.477,0.0,3.0914,3.519,3.733,3.1832,3.7029,4.0196,3.4304,4.4322,5.0971,4.5501,5.1232,5.6205,5.6708,6.3587,6.9693,7.3314,7.4669,7.5356,7.5395,7.4584,7.4116,7.4116,7.2559,7.1688,7.1612,7.1612,7.1221,7.0411,7.0743,7.0744,7.0437,7.1023,6.8937,6.4682,6.9247,6.9014,0.0,0.0,0.0,0.0,7.2723,7.3358,7.4377,7.5246,7.5755,7.6093,7.6914,7.7187,7.7187,0.0,0.0,0.0,0.0,0.0,0.0,0.0,0.0,0.0,0.0,3.0572,3.02,3.0943,3.114,3.1466,0.0,0.0,0.0,0.0,0.0,0.0,0.0,0.0,0.0,0.0,2.9355,2.9419,2.9586,3.0224,3.0124,2.931,3.0499,3.0713,3.0155,3.1318,3.2629,3.4008,0.0,0.0,0.0,0.0,0.0,0.0,0.0,0.0,0.0,3.3771,3.2899,0.0,0.0,0.0,0.0,0.0,0.0,0.0,0.0,3.1517,3.1835,3.3444,0.0,3.5339,3.5339,3.3929,3.2516,0.0,3.1335,3.1717,3.6031,3.8018,3.8591,3.7177,4.3138,4.6309,4.0387,4.7494,5.3301,5.1926,5.7734,6.1211,5.8797,6.6369,7.0916,6.8691,7.1565,7.3819,7.4469,7.3743,7.3284,7.3284,7.2299,7.1382,7.0724,7.0724,7.0602,7.0411,7.0743,6.9231,6.6064,6.9589,6.739,6.0349,6.7893,6.9014,0.0,0.0,0.0,7.2684,7.3993,7.4707,7.5129,7.6102,7.6613,7.6774,7.7108,7.7187,7.7187,0.0,0.0,0.0,0.0,0.0,0.0,0.0,0.0,0.0,0.0,0.0,0.0,0.0,0.0,0.0,0.0,0.0,0.0,0.0,0.0,0.0,0.0,0.0,0.0,2.926,2.9247,2.935,2.9644,3.0178,3.0407,3.0437,3.0716,3.0861,3.0935,3.1894,3.2703,3.3424,3.4677,3.5175,3.5092,3.5092,0.0,0.0,0.0,0.0,0.0,3.324,3.2288,0.0,3.172,3.0995,3.006,0.0,0.0,0.0,0.0,3.1211,3.0998,3.1381,3.1211,3.156,3.4273,3.2554,3.0914,3.3624,3.2137,3.187,3.7789,3.9011,3.9011,3.9011,4.2985,4.5201,4.2035,4.6314,5.1276,5.4753,5.8734,6.0599,5.8758,6.335,6.6483,0.0,7.0304,7.317,7.3628,7.2864,7.2414,7.2414,7.1565,7.0877,7.0411,7.0411,7.0411,7.0411,7.0677,6.8702,6.4552,6.9061,6.7796,6.1742,6.8318,7.0291,0.0,0.0,0.0,7.3645,7.2214,7.3325,7.5957,7.6517,7.6827,7.7027,7.7093,7.7145,7.7187,0.0,0.0,0.0,0.0,0.0,0.0,0.0,0.0,0.0,0.0,0.0,0.0,0.0,0.0,0.0,0.0,0.0,0.0,0.0,0.0,0.0,0.0,0.0,2.9173,2.8712,2.8942,2.9115,2.9264,2.9732,3.0551,3.1649,3.0716,3.1033,3.2406,3.2526,3.2648,3.2893,3.4484,3.5158,3.5092,3.5084,0.0,0.0,0.0,0.0,0.0,0.0,0.0,0.0,3.1,3.0431,2.9883,3.0832,0.0,0.0,0.0,0.0,0.0,3.1298,3.0939,3.1752,3.7559,3.477,3.2057,3.7712,3.4541,3.229,3.8973,4.0344,4.0382,4.054,4.3296,4.4709,4.2111,4.448,4.8951,5.5677,5.7772,5.8459,5.7963,5.9644,0.0,6.4917,6.9693,7.2673,7.2796,7.1994,7.1573,7.1688,7.0877,7.0411,7.0411,7.0411,7.0411,7.0411,7.0593,6.8611,6.452,6.8956,6.8936,6.5116,6.9491,7.1894,7.2375,0.0,0.0,7.4767,7.0595,7.193,7.6605,7.6635,7.6783,7.6986,7.7033,7.7098,7.7187,0.0,0.0,0.0,0.0,0.0,0.0,0.0,0.0,0.0,0.0,0.0,0.0,0.0,0.0,0.0,0.0,0.0,0.0,0.0,0.0,0.0,0.0,2.9559,2.8822,2.8808,2.9673,2.9981,2.9603,3.0914,3.1105,3.0263,3.1437,3.2137,3.2402,3.2419,3.2889,3.3684,3.4647,3.507,3.5088,3.5048,0.0,0.0,0.0,0.0,0.0,0.0,0.0,0.0,3.0086,2.9584,2.9133,3.0023,0.0,0.0,0.0,0.0,0.0,3.1453,3.1373,3.2474,3.7712,3.5645,3.3501,3.7975,3.4999,3.4197,4.4355,4.6457,4.6686,4.7423,5.6479,5.9192,4.4934,4.8296,5.3645,5.625,5.9797,6.1096,5.823,0.0,6.7553,6.4657,6.8279,7.1107,7.1841,7.1107,7.0916,7.165,7.0877,7.0411,7.0411,7.0411,7.0411,7.0411,7.0593,6.856,6.436,6.8813,6.8758,6.4905,6.994,7.236,7.2645,0.0,7.4148,7.5115,7.5044,7.5651,7.6618,7.6724,7.6858,7.7029,7.7142,7.7187,7.7187,0.0,0.0,0.0,0.0,0.0,0.0,0.0,0.0,0.0,0.0,0.0,0.0,0.0,0.0,0.0,0.0,0.0,0.0,0.0,0.0,0.0,3.0571,2.9691,2.9195,2.9222,3.0596,3.0827,2.9855,3.0977,3.1222,3.0617,3.1833,3.1909,3.1109,3.2546,3.3113,3.3194,3.4491,3.5057,3.5052,0.0,0.0,0.0,0.0,0.0,0.0,0.0,0.0,0.0,0.0,2.9306,2.9445,2.9399,0.0,0.0,0.0,0.0,0.0,3.0796,3.1464,3.4037,4.18,3.8162,3.5488,4.608,4.0005,3.6027,4.9748,4.5316,4.1074,4.7843,5.1244,5.1926,4.8716,5.6473,6.2242,6.0293,6.2089,6.3045,0.0,0.0,6.63,6.4389,6.7973,7.0563,7.0954,7.0648,7.0563,7.0992,7.061,7.0411,7.0411,7.0411,7.0411,7.0411,7.0499,6.8457,6.4364,6.8695,6.8844,6.5453,7.022,7.2918,7.3745,0.0,7.2839,7.5624,7.3264,7.3949,7.6491,7.655,7.671,7.6936,7.7103,7.7187,7.7187,0.0,0.0,0.0,0.0,0.0,0.0,0.0,0.0,0.0,0.0,0.0,0.0,0.0,0.0,0.0,0.0,0.0,0.0,0.0,0.0,3.0912,3.0659,3.041,3.0088,2.9621,3.096,3.1107,3.0022,3.062,3.1008,3.1227,3.1606,3.1459,3.0903,3.2678,3.3345,3.3177,3.4482,3.5043,3.4982,0.0,0.0,0.0,0.0,0.0,0.0,0.0,0.0,0.0,0.0,0.0,0.0,0.0,0.0,0.0,3.014,3.0188,3.0227,3.0456,3.1628,3.4967,4.406,3.9775,3.7415,5.304,4.4513,3.7708,5.3384,4.5545,3.9011,4.9295,4.6997,4.6074,5.3913,6.293,6.7935,6.5062,6.5222,6.565,6.565,6.565,6.565,6.565,6.8547,7.0411,7.0411,7.0411,7.0411,7.0411,7.0411,7.0411,7.0411,7.0411,7.0411,7.0411,7.0411,6.8815,6.5777,6.9069,6.945,6.735,7.0959,7.344,7.4694,7.1085,7.2153,7.6094,7.2181,7.2877,7.6409,7.6427,7.6622,7.6868,7.71,7.7187,7.7187,0.0,0.0,0.0,0.0,0.0,0.0,0.0,0.0,0.0,0.0,0.0,0.0,0.0,0.0,0.0,0.0,0.0,0.0,0.0,0.0,3.1745,3.1959,3.2237,3.1535,2.9715,3.0043,3.0175,3.0072,3.0102,3.0472,3.1189,3.0427,3.1324,3.3497,3.2807,3.3408,3.4893,3.4917,3.4945,3.4978,3.4931,0.0,0.0,0.0,0.0,0.0,0.0,0.0,0.0,0.0,0.0,0.0,0.0,0.0,2.914,2.9956,3.0188,3.038,3.1178,3.2053,3.4193,4.0387,3.8507,3.8907,5.3314,4.5392,3.9121,5.3613,5.2499,5.0665,5.6243,5.4982,5.5097,6.1203,6.3541,6.588,6.9379,0.0,6.9952,6.9952,6.9952,6.9952,6.9952,7.022,7.0411,7.0411,7.0411,7.0411,7.0411,7.0411,7.0411,7.0411,7.0411,7.0411,7.0411,7.0411,7.0266,6.9968,7.0274,7.0791,7.1482,7.2617,7.3786,7.4919,7.5395,7.5896,7.6365,7.6016,7.6055,7.6426,7.6551,7.6751,7.6986,7.7145,7.7187,7.7187,0.0,0.0,0.0,0.0,0.0,0.0,0.0,0.0,0.0,0.0,0.0,0.0,0.0,0.0,0.0,0.0,0.0,0.0,0.0,0.0,3.0872,3.0788,3.0869,3.0632,2.9979,3.1088,3.1131,3.0106,3.0542,3.0886,3.1137,3.1296,3.1956,3.2957,3.3117,3.3296,3.3483,3.4504,3.4647,3.4177,3.4159,3.415,0.0,0.0,0.0,0.0,0.0,0.0,0.0,0.0,2.9144,2.9505,2.8986,2.9223,2.9765,3.0112,3.0188,3.0265,3.0609,3.1697,3.4806,4.3296,3.9922,3.8529,5.3925,4.7914,4.3482,5.888,5.3301,4.6396,4.887,5.409,5.8932,6.1712,6.5474,6.8585,7.0181,7.0411,7.0411,7.0411,7.0411,7.0411,7.0411,7.0411,7.0411,7.0411,7.0411,7.0411,7.0411,7.0411,7.0411,7.0411,7.0411,7.0411,7.0411,7.0411,7.0686,7.1221,7.1221,7.1675,7.262,7.3575,7.4536,7.5425,7.5964,7.6179,7.6113,7.6205,7.6186,7.6121,7.6472,7.6646,7.6804,7.7099,7.7187,7.7187,0.0,0.0,0.0,0.0,0.0,0.0,0.0,0.0,0.0,0.0,0.0,0.0,0.0,0.0,0.0,0.0,0.0,0.0,3.12,3.0916,3.0643,3.0392,3.0322,3.0346,3.0487,3.1595,3.1443,3.0027,3.0524,3.1015,3.1467,3.151,3.1986,3.2811,3.2872,3.2857,3.2883,3.3812,3.3841,3.3278,3.3278,3.3278,0.0,0.0,0.0,0.0,0.0,0.0,0.0,0.0,2.9353,2.9942,0.0,2.9463,3.0188,3.0188,3.0188,3.0265,3.0491,3.1662,3.4886,4.364,4.0061,3.8512,5.4301,4.9601,4.6003,6.0446,5.6434,5.0142,4.9373,5.5772,6.1378,6.1986,6.5665,6.889,7.022,7.0411,7.0411,7.0411,7.0411,7.0411,7.0411,7.0411,7.0411,7.0411,7.0411,7.0411,7.0411,7.0411,7.0411,7.0411,7.0411,7.0411,7.0411,7.0686,7.1107,7.1726,7.2261,7.2788,7.3408,7.4098,7.4878,7.5708,7.593,7.5988,7.5907,7.6045,7.6086,7.6063,7.6431,7.665,7.6727,7.7096,7.7187,7.7187,0.0,0.0,0.0,0.0,0.0,0.0,0.0,0.0,0.0,0.0,0.0,0.0,0.0,0.0,0.0,0.0,0.0,0.0,3.1541,3.1515,3.1395,3.1189,3.1126,3.1151,3.1305,3.1222,3.0764,2.9893,2.9847,3.0667,3.2246,3.0596,3.122,3.3615,3.195,3.2132,3.3729,3.2841,3.244,3.2402,3.2402,3.2402,3.2288,0.0,0.0,0.0,0.0,0.0,0.0,0.0,2.9402,2.9979,2.9147,0.0,0.0,3.0265,3.0227,3.038,3.1251,3.2088,3.4113,4.0005,3.8362,3.9198,5.4333,5.0054,4.5965,5.6886,6.3114,6.5337,6.1141,6.1784,0.0,6.2923,6.3656,6.5689,6.9799,7.0411,7.0411,7.0411,7.0411,7.0411,7.0411,7.0411,7.0411,7.0411,7.0411,7.0411,7.0411,7.0411,7.0411,7.0411,7.0411,7.0411,7.0411,7.1259,7.1726,7.1726,7.3399,7.4193,7.4193,7.4193,7.4762,7.5692,7.5692,7.5787,7.5892,7.5892,7.6036,7.6316,7.6518,7.6709,7.6903,7.7103,7.7187,7.7187,0.0,0.0,0.0,0.0,0.0,0.0,0.0,0.0,0.0,0.0,0.0,0.0,0.0,0.0,0.0,0.0,0.0,0.0,3.0549,3.0293,3.0168,3.0143,3.0165,3.0502,3.1134,3.1098,3.0971,3.0755,3.0667,3.0885,3.1374,3.1454,3.194,3.2869,3.5932,3.5296,3.2234,3.6045,3.5315,3.1564,3.15,3.1509,3.145,0.0,0.0,0.0,0.0,0.0,0.0,0.0,0.0,0.0,2.9869,0.0,3.1029,3.5152,3.3433,3.1297,3.6294,3.48,3.3352,3.9856,4.0119,4.0573,4.7455,4.8525,5.0359,5.8345,6.1218,6.1186,5.755,6.2615,0.0,6.3439,6.6124,6.9005,7.022,7.0411,7.0411,7.0411,7.0411,7.0411,7.0411,7.0411,7.0411,7.0411,7.0411,7.0411,7.0411,7.0411,7.0411,7.0411,7.0992,7.1298,7.1298,7.2185,7.2902,7.3476,7.3972,7.4193,7.4231,7.4813,7.5268,7.5557,7.5644,7.566,7.5633,7.5633,7.5795,7.6036,7.6304,7.6548,7.6796,7.704,7.7143,7.7144,0.0,0.0,0.0,0.0,0.0,0.0,0.0,0.0,0.0,0.0,0.0,0.0,0.0,0.0,0.0,0.0,0.0,0.0,0.0,3.0017,2.9837,2.9705,3.0056,3.0653,3.1506,3.1473,3.1313,3.1026,3.0673,3.0659,3.1017,3.1134,3.1436,3.1949,3.4717,3.4188,3.1417,3.4595,3.3913,3.0692,3.0654,3.0654,3.0633,0.0,0.0,0.0,0.0,0.0,0.0,0.0,0.0,0.0,3.0171,3.1793,3.4006,3.553,3.5152,3.5152,3.9584,3.8171,3.7445,4.5889,4.5125,4.3329,4.7346,4.9824,5.3492,6.1287,6.3166,6.2868,6.1176,6.5704,0.0,6.633,6.8448,7.0411,7.0411,7.0411,7.0411,7.0411,7.0411,7.0411,7.0411,7.0411,7.0411,7.0411,7.0411,7.0411,7.0411,7.0411,7.0563,7.0916,7.1421,7.1879,7.2223,7.3055,7.3705,7.4193,7.4545,7.4736,7.4736,7.528,7.5509,7.5518,7.5591,7.5574,7.5509,7.5509,7.5724,7.6031,7.6239,7.651,7.6846,7.702,7.7092,7.71,0.0,0.0,0.0,0.0,0.0,0.0,0.0,0.0,0.0,0.0,3.043,0.0,0.0,0.0,0.0,0.0,0.0,0.0,0.0,0.0,3.0113,2.9847,3.073,3.1539,3.2202,3.2125,3.1687,3.0888,3.0067,3.0091,3.0852,3.0151,3.0247,3.0973,3.0793,3.0856,3.1038,3.065,3.0233,2.9893,2.9813,2.9839,2.9885,2.9876,0.0,0.0,0.0,0.0,0.0,0.0,0.0,0.0,3.0167,3.3891,3.7406,3.3276,3.595,4.0497,4.1843,4.1805,4.3825,5.4065,5.0932,4.6849,5.2734,5.3766,5.6021,6.4955,6.7133,6.7828,6.9082,6.9914,7.0411,7.0411,7.0411,7.0411,7.0411,7.0411,7.0411,7.0411,7.0411,7.0411,7.0411,7.0411,7.0411,7.0411,7.0411,7.0411,7.0525,7.0525,7.0916,7.1803,7.1879,7.2299,7.3093,7.3896,7.4307,7.4316,7.5127,7.5509,7.5509,7.5509,7.5509,7.5509,7.5509,7.5489,7.5523,7.5523,7.5809,7.625,7.6315,7.6618,7.7006,7.7087,7.7118,7.7097,0.0,0.0,0.0,0.0,0.0,0.0,0.0,0.0,0.0,0.0,0.0,0.0,0.0,0.0,0.0,0.0,0.0,0.0,0.0,0.0,3.0095,3.0697,3.2099,3.2663,3.2202,3.2125,3.1672,3.0807,2.9944,2.9686,2.9917,3.0453,3.0466,3.0201,3.4779,3.4335,3.0385,3.3473,3.2872,2.9846,2.9099,2.925,2.9876,2.9766,2.987,0.0,0.0,0.0,0.0,0.0,0.0,0.0,3.0185,3.1067,3.2787,3.6337,3.8281,4.0463,4.5971,4.4093,4.1605,4.5922,4.6156,4.8531,6.0905,6.1141,6.0453,6.6415,6.5681,6.5253,6.9379,7.0296,7.0411,7.0411,7.0411,7.0411,7.0411,7.0411,7.0411,7.0411,7.0411,7.0411,7.0411,7.0411,7.0411,7.0411,7.0411,7.0678,7.1382,7.1421,7.1841,7.2682,7.3323,7.3743,7.3925,7.4775,7.5242,7.5242,7.5395,7.5509,7.5509,7.5509,7.5509,7.5509,7.5509,7.5633,7.5795,7.5795,7.6077,7.6516,7.6534,7.6712,7.6991,7.7078,7.7106,7.7117,0.0,0.0,0.0,0.0,0.0,0.0,0.0,0.0,0.0,0.0,0.0,0.0,0.0,0.0,0.0,0.0,0.0,0.0,0.0,0.0,3.0847,3.2099,3.2588,3.2611,3.2177,3.1719,3.1079,3.0225,2.9784,2.9589,2.9664,3.017,3.0154,2.9918,3.3095,3.2553,2.9476,3.2043,3.1656,2.9216,2.876,2.904,2.9737,2.9312,2.9642,3.0427,3.0977,0.0,0.0,0.0,0.0,0.0,0.0,0.0,3.4541,3.5229,3.7674,4.096,4.4518,4.5277,4.6074,5.0201,5.3104,5.6473,6.2357,6.3854,6.4848,6.7905,6.7133,6.6827,6.9838,7.0411,7.0411,7.0411,7.0411,7.0411,7.0411,7.0411,7.0411,7.0411,7.0411,7.0411,7.0411,7.0411,7.0411,7.0411,7.0801,7.1221,7.1688,7.2108,7.2711,7.3552,7.3964,7.4393,7.4813,7.528,7.5509,7.5509,7.5509,7.5509,7.5509,7.5509,7.5509,7.5509,7.5509,7.5636,7.5899,7.5899,7.6165,7.6618,7.6621,7.6773,7.7012,7.7082,7.7111,7.7086,0.0,0.0,0.0,0.0,0.0,0.0,0.0,0.0,0.0,0.0,0.0,0.0,0.0,0.0,0.0,0.0,0.0,0.0,0.0,0.0,0.0,3.334,3.2761,3.2322,3.2095,3.1267,3.0412,2.9616,2.9616,3.0096,3.1007,3.1007,3.1137,3.1386,3.1096,3.0191,2.8907,2.9157,2.8909,2.8397,2.8386,2.8797,2.9445,2.8904,2.9573,3.0796,3.094,3.0936,3.0903,3.11,0.0,0.0,0.0,0.0,3.6642,3.2516,3.5916,4.1079,4.1079,4.5583,5.1691,5.7459,6.1096,6.2968,6.1944,6.4351,6.7324,6.9043,6.9425,6.9616,7.0296,7.0411,7.0411,7.0411,7.0411,7.0411,7.0411,7.0411,7.0411,7.0411,7.0411,7.0411,7.0411,7.0411,7.0449,7.0602,7.1298,7.1841,7.2108,7.2826,7.359,7.4393,7.4431,7.4775,7.5471,7.5509,7.5509,7.5509,7.5509,7.5509,7.5509,7.5509,7.5509,7.5509,7.5509,7.5668,7.594,7.594,7.6231,7.6668,7.671,7.6846,7.7012,7.7097,7.7084,7.7099,0.0,0.0,0.0,0.0,0.0,0.0,0.0,0.0,0.0,0.0,0.0,0.0,0.0,0.0,0.0,0.0,0.0,0.0,3.1854,0.0,0.0,3.3378,3.3294,3.2872,3.2113,3.1247,3.0412,2.9616,2.9616,3.1889,3.627,3.627,3.6659,3.7284,3.59,3.3208,2.9585,2.7443,2.6906,2.7558,2.7441,2.7905,2.8716,2.9316,2.9678,2.9884,3.0031,3.0057,3.0098,3.0232,3.0222,0.0,0.0,0.0,3.1258,3.0571,3.4617,3.9317,3.9317,4.4704,5.1544,5.6778,5.6243,5.667,6.5001,6.458,6.3923,6.915,7.022,7.0258,7.0372,7.0411,7.0411,7.0411,7.0411,7.0411,7.0411,7.0411,7.0411,7.0411,7.0411,7.0411,7.0411,7.0411,7.0724,7.1459,7.165,7.2338,7.3781,7.3964,7.4431,7.5318,7.5318,7.5395,7.5509,7.5509,7.5509,7.5509,7.5509,7.5509,7.5509,7.5509,7.5509,7.5509,7.5509,7.5764,7.6157,7.6157,7.6468,7.6942,7.6965,7.6995,7.7016,7.7081,7.7097,7.71,0.0,0.0,0.0,0.0,0.0,0.0,0.0,0.0,0.0,0.0,0.0,0.0,0.0,0.0,0.0,3.2638,3.196,3.1684,3.2067,3.2463,3.2886,3.3375,3.2941,3.2492,3.2103,3.1206,3.0378,2.9616,2.965,3.3712,4.1483,4.153,4.0494,3.8677,4.0282,3.658,2.9288,3.0893,2.9961,2.7339,2.7273,2.8311,2.985,2.9299,2.962,3.0363,3.0031,0.0,2.9913,3.0061,3.0139,3.0188,3.0188,0.0,0.0,0.0,3.2363,3.618,4.2832,4.5015,4.8181,5.9911,5.7428,5.5021,6.6101,6.4993,6.3274,6.9188,7.0411,7.0411,7.0411,7.0411,7.0411,7.0411,7.0411,7.0411,7.0411,7.0411,7.0411,7.0411,7.0411,7.0411,7.0411,7.0839,7.1298,7.1688,7.2559,7.3437,7.4155,7.466,7.5089,7.5471,7.5509,7.5509,7.5509,7.5509,7.5509,7.5509,7.5509,7.5509,7.5509,7.5509,7.5509,7.5518,7.5644,7.5911,7.6216,7.6353,7.6638,7.7014,7.7024,7.7053,7.7075,7.7141,7.7146,7.7147,0.0,0.0,0.0,0.0,0.0,0.0,0.0,0.0,0.0,0.0,0.0,0.0,0.0,0.0,0.0,0.0,3.2236,3.1992,3.2405,3.2217,3.248,3.3376,3.2352,3.1759,3.174,3.0823,3.0236,2.9945,2.9744,3.4458,4.3567,4.4492,4.3456,4.0982,4.3642,4.0422,3.3223,3.5371,3.3672,2.9575,2.9966,3.0333,3.0612,2.9841,3.0285,3.1242,3.0486,0.0,0.0,0.0,0.0,3.0188,3.0188,3.0188,0.0,0.0,0.0,3.3356,4.3716,4.3754,4.436,5.8918,5.6046,5.2416,6.2968,6.2586,6.1624,6.7316,6.9494,7.0411,7.0411,7.0411,7.0411,7.0411,7.0411,7.0411,7.0411,7.0411,7.0411,7.0411,7.0411,7.0487,7.0724,7.1298,7.1879,7.2299,7.3476,7.4316,7.4507,7.5165,7.5509,7.5509,7.5509,7.5509,7.5509,7.5509,7.5509,7.5509,7.5509,7.5509,7.5509,7.5509,7.5523,7.5625,7.5795,7.5991,7.6227,7.6492,7.6752,7.6992,7.7084,7.7115,7.7094,7.7186,7.7187,7.7187,0.0,0.0,0.0,0.0,0.0,0.0,0.0,0.0,0.0,0.0,0.0,0.0,3.3328,3.2612,3.2119,3.2165,3.1419,3.1644,3.3226,3.2555,3.248,3.3376,3.1759,0.0,3.0781,2.9904,2.9922,3.0838,3.0029,3.3233,4.023,4.342,4.5584,4.6806,4.5394,4.4985,4.4902,0.0,0.0,0.0,3.7218,3.463,3.0023,3.1539,0.0,0.0,0.0,0.0,0.0,0.0,0.0,0.0,0.0,3.0188,3.0188,0.0,0.0,0.0,3.7827,3.9317,4.1074,4.9137,4.7755,4.6227,5.3263,5.5326,5.7154,6.2235,6.7087,7.0411,7.0411,7.0411,7.0411,7.0411,7.0411,7.0411,7.0411,7.0411,7.0411,7.0411,7.0411,7.0724,7.1535,7.1688,7.2367,7.3964,7.4155,7.4545,7.5395,7.5471,7.5509,7.5509,7.5509,7.5509,7.5509,7.5509,7.5509,7.5509,7.5509,7.5509,7.5509,7.5509,7.5658,7.587,7.5892,7.5991,7.6227,7.6492,7.6758,7.7017,7.7073,7.7103,7.7111,7.7185,7.7187,7.7187,0.0,0.0,0.0,0.0,0.0,0.0,0.0,0.0,0.0,0.0,0.0,0.0,0.0,3.1714,3.1471,3.2054,3.1342,3.1342,3.2504,3.1262,3.0834,3.1623,3.1119,3.0752,3.0708,3.0983,3.0787,3.0124,2.9833,3.2355,3.7523,3.8142,4.0768,4.5237,5.2106,4.9696,4.073,4.5492,0.0,0.0,0.0,0.0,0.0,0.0,0.0,0.0,0.0,0.0,0.0,0.0,0.0,0.0,0.0,0.0,0.0,3.0188,3.0188,3.1602,3.809,3.744,3.744,4.7717,4.5086,4.2297,5.1238,5.4333,5.6008,5.8383,6.4993,6.957,6.6904,6.8585,7.0411,7.0411,7.0411,7.0411,7.0411,7.0411,7.0411,7.0411,7.0877,7.1374,7.1688,7.2673,7.3552,7.4155,7.1213,7.1183,7.528,7.1909,7.1603,7.5395,7.5509,7.5509,7.5509,7.5509,7.5509,7.5509,7.5509,7.5509,7.5518,7.5668,7.5826,7.5921,7.6213,7.6397,7.6483,7.6747,7.6927,7.7063,7.7092,7.7123,7.7182,7.7187,7.7187,7.7187,0.0,0.0,0.0,0.0,0.0,0.0,0.0,0.0,0.0,0.0,0.0,0.0,0.0,0.0,3.0904,3.1236,3.0712,3.0759,3.1636,3.038,2.9948,3.072,3.0797,3.0792,3.0764,3.1364,3.1166,3.0133,2.9586,3.1104,3.4529,3.4997,3.7618,4.2313,5.1795,5.1215,4.3573,0.0,0.0,3.816,0.0,0.0,3.783,0.0,0.0,0.0,0.0,0.0,0.0,0.0,0.0,0.0,0.0,0.0,0.0,0.0,3.0188,3.1258,3.6027,3.4838,3.4342,4.3056,4.0998,3.8782,4.6085,5.1467,5.5052,5.5638,6.3579,6.957,6.6789,6.8547,7.0411,7.0411,7.0411,7.0411,7.0411,7.0411,7.0525,7.0801,7.1336,7.1917,7.2482,7.3552,7.4307,7.4622,7.1527,0.0,7.528,7.1794,7.145,7.5395,7.5509,7.5509,7.5509,7.5509,7.5509,7.5509,7.5509,7.554,7.5658,7.5802,7.5968,7.6134,7.6458,7.6613,7.6626,7.6904,7.7017,7.7085,7.7097,7.7128,7.7186,7.7187,7.7187,7.7187,0.0,0.0,0.0,0.0,0.0,0.0,0.0,0.0,0.0,0.0,0.0,0.0,0.0,0.0,0.0,2.9696,2.9616,2.9978,3.0884,3.009,2.9973,3.0846,3.0903,3.088,3.0875,3.0922,3.0927,3.094,2.9316,2.9439,3.1151,3.4363,3.6706,3.8444,4.3621,4.9002,5.4357,0.0,5.6168,5.4748,0.0,4.9085,4.7482,0.0,0.0,0.0,4.7175,4.5644,0.0,4.6407,0.0,0.0,0.0,0.0,0.0,0.0,0.0,0.0,0.0,0.0,0.0,3.4537,3.5186,3.5645,3.7254,4.6042,5.3836,5.3913,6.2579,7.0143,7.022,7.0334,7.0411,7.0411,7.0411,7.0411,7.0411,7.0411,7.0763,7.1612,7.1726,7.2414,7.404,7.4231,7.4584,7.5433,7.5356,7.5318,7.5471,7.5509,7.5509,7.5509,7.5509,7.5509,7.5509,7.5509,7.5509,7.5509,7.5518,7.5666,7.5899,7.5914,7.6159,7.6618,7.6622,7.6626,7.6643,7.6907,7.6997,7.7012,7.7089,7.7081,7.71,7.7187,7.7187,7.7187,0.0,0.0,0.0,0.0,0.0,0.0,0.0,0.0,0.0,0.0,0.0,0.0,3.0213,3.009,3.0133,3.0499,2.9978,3.0206,3.1607,3.0326,2.9879,3.0639,3.0794,3.054,2.9901,3.1219,3.1035,2.9271,2.9414,2.9162,0.0,0.0,0.0,3.1598,3.7209,4.0921,4.3561,5.2477,0.0,3.8293,5.397,5.1154,0.0,0.0,0.0,0.0,0.0,4.8588,4.7625,0.0,4.4308,3.8247,0.0,0.0,0.0,0.0,0.0,0.0,3.1935,0.0,0.0,0.0,0.0,0.0,3.5912,4.203,4.8067,4.9284,5.7268,6.442,6.5689,6.8356,7.0411,7.0411,7.0411,7.0411,7.0411,7.0954,7.1421,7.1688,7.275,7.3705,7.4155,7.4775,7.5242,0.0,7.1565,7.0992,7.528,7.5509,7.5509,7.5509,7.5509,7.5509,7.5509,7.5509,7.5509,7.5518,7.5692,7.581,7.5914,7.6249,7.6511,7.6673,7.6822,7.6924,7.6953,7.6983,7.7019,7.7089,7.7098,7.7129,7.7187,7.7187,7.7187,7.7187,0.0,0.0,0.0,0.0,0.0,0.0,0.0,0.0,0.0,0.0,0.0,0.0,2.955,2.956,2.9761,3.0272,2.9849,2.9927,3.0893,2.975,2.9217,2.9668,2.9819,2.9621,2.9143,3.0214,3.0086,0.0,0.0,0.0,0.0,0.0,0.0,0.0,0.0,3.4439,3.5498,0.0,0.0,0.0,5.3067,0.0,0.0,5.42,5.3883,0.0,0.0,0.0,5.331,5.5143,4.9936,0.0,0.0,0.0,0.0,0.0,0.0,0.0,0.0,0.0,0.0,0.0,0.0,0.0,3.5301,4.2068,4.8722,4.9671,5.8077,6.484,6.3396,6.5108,6.6743,6.6743,6.701,6.8118,7.061,7.1382,7.1956,7.2673,7.3628,7.4354,7.4698,7.5204,7.5509,7.5509,7.2291,7.1871,7.5318,7.5509,7.5509,7.5509,7.5509,7.5509,7.5509,7.5509,7.5549,7.566,7.5848,7.6023,7.6227,7.653,7.671,7.6872,7.6971,7.7045,7.7098,7.7053,7.7073,7.712,7.712,7.7138,7.7187,7.7187,7.7187,7.7187,0.0,0.0,0.0,0.0,0.0,0.0,0.0,0.0,0.0,0.0,0.0,2.9669,2.9607,2.9486,2.9456,0.0,2.9354,2.9344,2.9464,2.8676,2.8231,2.8393,2.8504,2.8582,2.8582,2.8732,0.0,0.0,0.0,0.0,0.0,0.0,0.0,0.0,0.0,0.0,0.0,0.0,0.0,5.3593,5.0335,5.4535,0.0,0.0,5.7185,5.7143,6.2842,6.1746,5.8289,6.3001,5.7612,0.0,0.0,0.0,0.0,0.0,3.511,0.0,0.0,0.0,0.0,0.0,0.0,0.0,3.5186,4.3329,5.1015,5.1702,6.0179,6.6055,6.1478,6.0637,6.0637,6.0752,6.144,6.4,6.9892,7.1459,7.2291,7.3132,7.3887,7.466,7.5433,7.5509,7.5509,7.5509,7.5509,7.5509,7.5509,7.5509,7.5509,7.5509,7.5509,7.5509,7.5509,7.5514,7.5652,7.5899,7.5947,7.6227,7.6699,7.6728,7.6874,7.7107,7.7107,7.7108,7.7111,7.7111,7.7123,7.7098,7.7098,7.7145,7.7187,7.7187,7.7187,7.7187,3.3793,0.0,0.0,0.0,0.0,0.0,0.0,0.0,0.0,0.0,2.9545,2.9521,2.9461,2.9444,0.0,0.0,2.8913,2.8777,2.9372,2.8096,2.7647,2.8297,2.8511,2.8605,2.8605,2.9301,2.9321,0.0,0.0,0.0,0.0,0.0,0.0,0.0,0.0,0.0,0.0,0.0,0.0,4.2641,5.0356,0.0,5.339,6.0311,5.8922,5.4315,6.2088,6.2238,5.8773,5.922,5.7848,5.4295,0.0,0.0,0.0,3.4231,0.0,0.0,0.0,0.0,0.0,0.0,0.0,0.0,3.5186,3.6982,3.9962,4.4737,4.7559,5.0239,5.3836,5.453,5.476,5.5441,5.5708,5.7886,6.3809,6.9884,7.2062,6.763,7.1909,7.5318,7.5471,7.5509,7.5509,7.5509,7.5509,7.5509,7.5509,7.5509,7.5509,7.5509,7.5509,7.5509,7.5509,7.5708,7.5833,7.5907,7.6332,7.6582,7.6706,7.6902,7.7059,7.7093,7.7093,7.7139,7.7185,7.7185,7.7144,7.7098,7.7098,7.7145,7.7187,7.7187,7.7187,7.7187,3.2748,0.0,0.0,0.0,0.0,0.0,0.0,0.0,0.0,2.9555,2.9501,2.9434,2.9434,0.0,0.0,0.0,0.0,0.0,0.0,2.7156,2.6726,2.7193,2.7339,2.7403,2.7337,2.82,2.8654,0.0,0.0,0.0,0.0,0.0,0.0,0.0,0.0,0.0,2.9233,2.8734,3.2227,3.878,4.7497,0.0,5.4336,6.1747,6.2065,5.91,6.342,6.4057,6.2398,5.947,5.8498,0.0,0.0,4.6003,4.0387,0.0,3.5033,3.289,0.0,0.0,0.0,3.511,0.0,0.0,0.0,3.7478,4.0416,4.3395,4.6342,4.8405,4.8411,4.8754,4.9219,4.9633,5.0397,5.1996,5.4938,6.3732,6.996,7.0389,7.3446,7.5509,7.5509,7.5509,7.5509,7.5509,7.5509,7.5509,7.5509,7.5509,7.5509,7.5509,7.5509,7.5557,7.5692,7.5818,7.6043,7.6295,7.6557,7.6777,7.6891,7.7026,7.7133,7.7146,7.7146,7.7186,7.7187,7.7187,7.7187,7.7146,7.7146,7.7186,7.7187,7.7187,7.7187,7.7187,3.142,0.0,0.0,0.0,0.0,0.0,0.0,0.0,0.0,2.955,2.9327,2.9555,3.0628,0.0,0.0,0.0,0.0,0.0,0.0,0.0,2.7081,2.6159,2.6336,2.6403,2.6348,2.7176,2.795,2.8596,0.0,0.0,0.0,0.0,0.0,0.0,0.0,0.0,3.1309,3.0713,0.0,3.991,0.0,5.1667,5.6303,6.2418,6.4269,6.3763,6.5128,6.6221,6.6139,6.1051,5.9331,5.9255,5.8848,5.1009,0.0,0.0,0.0,0.0,0.0,0.0,0.0,0.0,0.0,3.5415,0.0,0.0,0.0,4.2326,4.608,4.799,4.3395,4.3133,4.3678,4.3792,0.0,0.0,0.0,5.6167,0.0,6.9777,7.1421,7.2108,7.2108,7.314,7.4287,7.5395,7.5509,7.5509,7.5509,7.5509,7.5509,7.5509,7.554,7.5668,7.5892,7.5975,7.6277,7.6699,7.6745,7.6871,7.7098,7.7101,7.7145,7.7187,7.7187,7.7187,7.7187,7.7187,7.7187,7.7187,7.7187,7.7187,7.7187,7.7187,7.7187,7.7187,3.0924,3.0643,0.0,0.0,0.0,0.0,0.0,0.0,0.0,2.9446,2.8798,3.008,0.0,0.0,0.0,0.0,0.0,0.0,2.7034,0.0,0.0,2.6317,2.6915,2.7316,2.7263,2.8055,2.8529,2.8613,0.0,0.0,0.0,0.0,0.0,0.0,2.8948,0.0,3.6501,3.717,4.0912,0.0,5.2859,5.2992,0.0,6.0951,6.2644,6.0175,6.5634,6.766,6.6988,0.0,6.0262,5.9345,0.0,4.852,4.3591,4.2985,0.0,0.0,0.0,0.0,0.0,0.0,3.5797,0.0,0.0,0.0,3.6218,3.6218,0.0,3.7211,3.7321,0.0,0.0,0.0,0.0,0.0,4.7068,4.9633,5.1244,5.2008,5.6708,5.9911,5.9911,6.4649,6.9884,7.5127,7.5509,7.5509,7.5509,7.5509,7.5509,7.5509,7.5732,7.5862,7.5899,7.6311,7.6579,7.6703,7.6951,7.7068,7.7099,7.7147,7.7187,7.7187,7.7187,7.7187,7.7187,7.7187,7.7187,7.7187,7.7187,7.7187,7.7187,7.7187,7.7187,7.7187,3.0002,2.9904,0.0,0.0,0.0,0.0,0.0,0.0,0.0,2.8093,2.8132,0.0,0.0,0.0,0.0,0.0,0.0,3.8568,0.0,0.0,0.0,3.2005,2.9531,2.7929,2.7339,2.8185,2.8315,2.7775,2.7763,0.0,0.0,0.0,0.0,0.0,2.9784,0.0,3.7397,0.0,4.2762,0.0,0.0,0.0,0.0,6.1793,6.5095,6.4024,6.3679,6.5765,6.7362,0.0,6.053,0.0,0.0,0.0,0.0,0.0,0.0,0.0,0.0,0.0,0.0,0.0,0.0,0.0,4.0377,0.0,3.5339,0.0,0.0,0.0,0.0,0.0,0.0,0.0,3.9198,0.0,0.0,0.0,4.6538,5.3384,0.0,0.0,6.2662,6.2166,6.4038,6.996,7.0381,7.0381,7.0381,7.3637,7.5566,7.5732,7.5825,7.6029,7.63,7.6548,7.6734,7.6946,7.7062,7.7135,7.7146,7.7187,7.7187,7.7187,7.7187,7.7187,7.7187,7.7187,7.7187,7.7187,7.7187,7.7187,7.7187,7.7187,7.7187,7.7187,2.8592,0.0,0.0,0.0,0.0,0.0,0.0,0.0,0.0,0.0,0.0,0.0,3.7292,3.4829,0.0,0.0,4.338,4.3481,0.0,0.0,3.8495,0.0,0.0,0.0,0.0,0.0,2.7993,2.6864,0.0,0.0,0.0,0.0,0.0,0.0,0.0,3.3564,3.7867,0.0,4.6012,5.0553,5.2808,5.4655,5.6716,6.2826,6.6413,6.7828,6.4389,6.5872,6.805,5.8459,6.0905,0.0,5.7925,0.0,0.0,0.0,0.0,0.0,4.5425,0.0,0.0,0.0,0.0,0.0,0.0,0.0,0.0,0.0,0.0,0.0,0.0,0.0,0.0,0.0,0.0,4.0229,0.0,4.0153,0.0,0.0,0.0,0.0,0.0,5.9453,5.9682,6.3962,6.5796,6.6705,6.6705,7.2352,7.5692,7.5892,7.6023,7.6249,7.6613,7.6706,7.6877,7.7101,7.7089,7.7144,7.7187,7.7187,7.7187,7.7187,7.7187,7.7187,7.7187,7.7187,7.7187,7.7187,7.7187,7.7187,7.7187,7.7187,7.7187,7.7187,2.6538,2.7899,0.0,0.0,0.0,0.0,0.0,0.0,0.0,0.0,0.0,0.0,0.0,0.0,0.0,0.0,0.0,4.4607,4.4106,0.0,4.4546,0.0,0.0,3.1591,0.0,0.0,0.0,2.6048,0.0,0.0,0.0,0.0,0.0,0.0,2.7897,3.2336,3.8959,4.6368,5.2965,5.8912,6.4626,6.7576,6.8103,0.0,6.4764,6.9234,6.9838,0.0,0.0,6.335,6.1554,0.0,0.0,0.0,0.0,0.0,0.0,0.0,0.0,0.0,0.0,4.5654,0.0,0.0,0.0,0.0,3.764,0.0,0.0,0.0,0.0,0.0,0.0,0.0,0.0,0.0,0.0,0.0,0.0,0.0,0.0,0.0,0.0,5.4645,5.7963,5.8154,6.3465,6.6705,6.6705,7.254,7.5885,7.5899,7.6339,7.6561,7.6613,7.684,7.7024,7.7101,7.7089,7.7144,7.7187,7.7187,7.7187,7.7187,7.7187,7.7187,7.7187,7.7187,7.7187,7.7187,7.7187,7.7187,7.7187,7.7187,7.7187,7.7187,2.7515,0.0,0.0,0.0,0.0,0.0,0.0,2.8765,0.0,0.0,3.538,0.0,0.0,4.5853,4.5466,0.0,0.0,5.436,5.0873,5.1244,0.0,0.0,0.0,3.9831,0.0,0.0,0.0,0.0,0.0,0.0,0.0,0.0,0.0,0.0,0.0,3.2725,0.0,0.0,0.0,0.0,0.0,6.4235,6.4413,0.0,6.8476,7.0029,7.0296,7.0411,0.0,6.3579,6.4191,6.6743,6.2815,6.0637,6.0523,6.5864,6.0905,0.0,0.0,0.0,5.9529,5.781,0.0,0.0,0.0,0.0,0.0,0.0,0.0,0.0,0.0,0.0,0.0,0.0,0.0,0.0,0.0,0.0,0.0,0.0,0.0,0.0,0.0,0.0,4.7876,5.1779,5.3919,5.5059,5.5059,6.4564,7.0105,7.0252,7.4402,7.67,7.6843,7.7012,7.7062,7.7089,7.7143,7.7187,7.7187,7.7187,7.7187,7.7187,7.7187,7.7187,7.7187,7.7187,7.7187,7.7187,7.7187,7.7187,7.7187,7.7187,7.7578,7.8125,2.721,0.0,0.0,0.0,0.0,0.0,0.0,0.0,0.0,0.0,3.9905,0.0,5.1073,0.0,5.0318,0.0,5.5428,5.6923,5.6877,5.3001,0.0,5.783,4.9573,0.0,0.0,0.0,0.0,0.0,0.0,2.6677,0.0,0.0,0.0,0.0,0.0,3.2339,3.7381,4.6831,5.349,0.0,0.0,6.3513,0.0,0.0,6.8844,7.0411,0.0,7.0411,6.9799,6.6017,6.724,6.9723,6.5948,6.5337,6.6674,6.9922,6.6101,6.1631,6.5452,6.6483,0.0,6.458,6.1554,0.0,5.6243,0.0,0.0,0.0,0.0,0.0,0.0,0.0,0.0,0.0,0.0,0.0,0.0,4.0306,0.0,0.0,0.0,0.0,0.0,4.4437,4.4131,4.5851,4.7919,4.9138,0.0,6.0613,6.7249,6.7453,7.3515,7.6816,7.7004,7.7058,7.7086,7.7098,7.7186,7.7187,7.7187,7.7187,7.7187,7.7187,7.7187,7.7187,7.7187,7.7187,7.7187,7.7187,7.7187,7.7383,7.7656,7.7656,7.8203,7.9062,2.5858,2.5872,0.0,0.0,2.7186,0.0,0.0,0.0,4.043,0.0,4.7699,4.6829,5.2284,4.8623,4.7778,5.2867,5.0833,5.2751,6.0963,5.0147,0.0,0.0,4.967,4.5885,5.4296,0.0,0.0,0.0,0.0,0.0,0.0,0.0,0.0,0.0,2.9482,0.0,3.4441,4.6151,5.234,5.4808,6.0306,6.552,6.9494,6.4718,6.6017,7.0411,7.0411,7.0411,7.0411,7.0449,7.0449,7.0487,7.0525,7.1107,7.1764,7.1764,7.2338,7.3017,7.3055,7.3055,7.1718,6.6147,0.0,0.0,0.0,0.0,5.7886,0.0,0.0,0.0,0.0,0.0,0.0,0.0,0.0,0.0,0.0,0.0,0.0,0.0,0.0,0.0,4.084,4.5354,4.6353,4.0726,4.5517,4.8859,0.0,6.0268,6.6842,6.7607,7.3139,7.6382,7.7008,7.6766,7.6825,7.71,7.7186,7.7187,7.7187,7.7187,7.7187,7.7187,7.7187,7.7187,7.7187,7.7187,7.7187,7.7187,7.7265,7.7812,7.8633,7.8633,7.9101,7.9883,2.7277,2.7158,2.797,0.0,3.1061,3.4114,0.0,0.0,0.0,0.0,5.0079,5.2119,5.4857,5.6672,5.574,5.0947,5.301,0.0,0.0,0.0,0.0,6.3204,6.0157,5.7338,5.5339,5.2373,0.0,4.6409,0.0,0.0,3.7653,0.0,0.0,0.0,0.0,3.2685,3.5201,4.6386,5.4698,6.0198,5.8155,6.0325,6.468,0.0,6.6017,7.0411,7.0411,7.0411,7.0487,7.1145,7.1374,7.1497,7.2138,7.2482,7.2682,7.2682,7.2826,7.3132,7.3743,7.3896,7.3667,7.2834,6.9464,6.5987,0.0,0.0,0.0,0.0,0.0,0.0,0.0,0.0,0.0,0.0,0.0,0.0,0.0,0.0,0.0,4.0306,0.0,4.1948,4.0458,4.1681,4.1948,4.042,4.1782,4.4641,4.9139,0.0,5.8435,6.7461,6.5073,6.7963,7.6972,7.2632,7.2688,7.7187,7.7187,7.7187,7.7187,7.7187,7.7187,7.7187,7.7187,7.7187,7.7187,7.7187,7.7187,7.7265,7.789,7.9062,8.0351,8.0351,8.0508,8.0781,2.8286,2.8024,0.0,2.9247,0.0,0.0,4.0574,4.3569,0.0,5.3349,5.4037,0.0,5.8241,6.065,6.0101,5.5333,5.4429,0.0,5.556,0.0,0.0,6.4022,6.2915,6.0417,5.6757,5.6682,0.0,5.192,0.0,0.0,4.3113,0.0,0.0,0.0,0.0,3.3876,3.6201,4.758,5.6147,6.1949,5.964,6.17,0.0,6.4153,6.6598,7.103,7.1412,7.1298,7.1107,7.1947,7.2261,7.2338,7.2834,7.3246,7.3514,7.3514,7.3781,7.421,7.466,7.4775,7.4889,7.5395,7.2987,7.0533,7.0533,6.7981,6.5612,0.0,0.0,0.0,0.0,0.0,0.0,0.0,0.0,0.0,0.0,0.0,0.0,0.0,4.256,4.3172,4.0619,4.0318,4.0304,4.0389,4.0456,0.0,0.0,0.0,5.5664,5.9908,6.1956,6.4975,6.9175,6.5886,6.7264,7.3281,7.3281,7.4648,7.7187,7.7187,7.7187,7.7187,7.7187,7.7187,7.7187,7.7187,7.7422,7.789,7.9101,8.0156,8.1054,8.1445,8.1562,8.164,2.9265,2.8914,0.0,0.0,0.0,0.0,0.0,4.813,0.0,6.0454,0.0,5.7018,6.0715,6.1584,6.1734,6.1323,0.0,5.5174,6.2464,5.334,5.3057,6.5148,6.2219,5.9966,5.9243,5.9356,0.0,0.0,0.0,0.0,0.0,0.0,0.0,0.0,0.0,0.0,0.0,4.887,5.6478,6.2013,6.2777,6.575,6.9417,6.6483,6.8058,7.1994,7.2864,7.2605,7.1994,7.2864,7.317,7.317,7.3284,7.3819,7.4384,7.4384,7.4889,7.5509,7.5509,7.5509,7.5509,7.5509,7.5509,7.5509,7.5509,7.5509,7.5509,7.5509,7.5509,7.3943,0.0,0.0,0.0,0.0,0.0,0.0,0.0,0.0,0.0,0.0,0.0,0.0,4.1073,4.0407,4.0389,4.0535,4.0526,0.0,0.0,0.0,5.4842,5.1285,6.0635,6.3979,6.0318,5.9566,6.2617,6.9375,6.8594,7.1367,7.7187,7.7187,7.7187,7.7187,7.7187,7.7187,7.7187,7.7187,7.7773,7.8828,8.039,8.1054,8.125,8.2031,8.2304,8.2304,3.1595,0.0,0.0,0.0,0.0,4.3886,5.1444,5.6428,5.8693,5.6894,5.8603,5.9233,5.7273,5.9931,6.0885,5.8338,5.7566,0.0,0.0,0.0,0.0,6.6322,6.5872,6.5421,6.5271,6.5936,6.6285,0.0,0.0,0.0,0.0,0.0,0.0,0.0,3.4783,4.0471,4.9801,4.8394,0.0,6.3778,6.3893,6.4879,6.6674,7.0151,7.2032,7.2873,7.3705,7.3476,7.2902,7.3705,7.4002,7.4125,7.486,7.5165,7.528,7.528,7.5395,7.5509,7.5509,7.5509,7.5509,7.5509,7.5509,7.5509,7.5509,7.5509,7.5509,7.5509,7.5509,7.5165,7.4134,0.0,0.0,0.0,0.0,0.0,0.0,0.0,0.0,0.0,0.0,4.6978,4.1085,4.0488,4.0539,4.0652,0.0,0.0,0.0,0.0,4.8241,0.0,5.472,0.0,0.0,0.0,6.4726,7.5547,7.0586,7.1367,7.7187,7.7187,7.7187,7.7187,7.7187,7.7187,7.7187,7.7187,7.8086,7.9609,8.0586,8.1445,8.2109,8.2226,8.2304,8.2304,3.5425,0.0,0.0,0.0,0.0,0.0,0.0,5.6982,6.088,5.9011,6.037,6.0907,5.9253,6.1113,6.2037,6.0851,5.9756,6.0294,6.3025,6.1581,6.2632,6.7224,6.7411,0.0,6.3646,6.6913,6.7165,6.4172,0.0,0.0,0.0,0.0,0.0,3.4993,3.8261,4.3135,0.0,0.0,0.0,6.4466,6.7523,6.9013,6.9655,7.252,7.3628,7.3743,7.4584,7.463,7.4363,7.4736,7.4851,7.4966,7.5356,7.5509,7.5509,7.5509,7.5509,7.5509,7.5509,7.5509,7.5509,7.5509,7.5509,7.5509,7.5509,7.5509,7.5509,7.5509,7.5509,7.4554,7.1489,6.6292,0.0,0.0,0.0,0.0,0.0,0.0,0.0,0.0,0.0,0.0,0.0,0.0,0.0,0.0,0.0,0.0,0.0,0.0,4.8379,0.0,0.0,0.0,6.339,0.0,6.3672,7.25,6.9609,7.1367,7.7187,7.7187,7.7187,7.7187,7.7187,7.7187,7.7265,7.8125,7.9258,8.0469,8.1328,8.1914,8.2304,8.2304,8.2304,8.2304,0.0,3.7225,0.0,0.0,4.2717,4.7707,5.0868,5.6335,6.0554,6.1828,6.2007,6.2029,6.2209,6.2914,6.3057,6.2363,6.1703,6.1944,6.3513,6.2895,6.3711,6.6575,6.7701,6.6414,6.251,6.6865,6.6977,0.0,0.0,0.0,0.0,0.0,0.0,0.0,0.0,0.0,0.0,0.0,6.4382,6.672,7.1374,7.3361,7.3599,7.424,7.4469,7.4584,7.5242,7.5509,7.5509,7.5509,7.5509,7.5509,7.5509,7.5509,7.5509,7.5509,7.5509,7.5509,7.5509,7.5509,7.5509,7.5509,7.5509,7.5509,7.5509,7.5509,7.5509,7.5509,7.5509,7.4095,6.9425,6.7553,0.0,0.0,0.0,0.0,0.0,0.0,0.0,0.0,0.0,0.0,4.9889,0.0,0.0,0.0,0.0,0.0,4.2937,0.0,0.0,0.0,0.0,5.7796,5.9099,0.0,6.2851,7.0117,6.8828,7.1367,7.7187,7.7187,7.7187,7.7187,7.7187,7.7305,7.7617,7.9297,8.039,8.1094,8.1953,8.2304,8.2304,8.2304,8.2304,8.2304,0.0,0.0,0.0,0.0,0.0,5.1095,6.0291,5.8937,5.816,6.1789,6.2269,6.2519,6.3183,6.3827,6.2254,5.7507,6.2847,6.2747,5.3887,6.2772,6.6602,6.2567,6.6677,6.8854,6.8404,6.893,6.893,0.0,0.0,0.0,0.0,0.0,0.0,0.0,0.0,0.0,0.0,6.3625,6.763,7.3323,7.3858,7.4545,7.528,7.5356,7.5395,7.5395,7.5471,7.5509,7.5509,7.5509,7.5509,7.5509,7.5509,7.5509,7.5509,7.5509,7.5509,7.5509,7.5509,7.5509,7.5509,7.5509,7.5509,7.5509,7.5509,7.5509,7.5509,7.5509,7.5509,7.5318,7.4783,7.0304,6.4764,0.0,0.0,0.0,0.0,0.0,0.0,4.9104,0.0,0.0,0.0,4.4804,0.0,0.0,4.1021,0.0,0.0,0.0,0.0,4.9916,5.0648,5.359,5.914,5.9219,6.4961,7.6289,7.082,7.1367,7.7187,7.7187,7.7187,7.7187,7.7187,7.7656,7.8515,8.0195,8.0937,8.1094,8.1953,8.2304,8.2304,8.2304,8.2304,8.2304,0.0,0.0,0.0,0.0,0.0,0.0,0.0,6.0647,6.2057,6.4126,6.3571,6.325,6.4055,6.4647,6.4475,6.318,6.6039,6.6336,6.2518,6.6639,6.8329,6.6339,6.8141,6.9192,6.9192,6.9192,6.9257,0.0,0.0,0.0,0.0,0.0,0.0,0.0,0.0,6.2242,6.5146,6.8699,7.2062,7.4966,7.4966,7.5204,7.5509,7.5509,7.5509,7.5509,7.5509,7.5509,7.5509,7.5509,7.5509,7.5509,7.5509,7.5509,7.5509,7.5509,7.5509,7.5509,7.5509,7.5509,7.5509,7.5509,7.5509,7.5509,7.5509,7.5509,7.5509,7.5509,7.5509,7.5509,7.5509,7.356,7.0037,0.0,0.0,0.0,0.0,0.0,0.0,0.0,0.0,5.5932,0.0,5.152,0.0,0.0,0.0,0.0,0.0,0.0,0.0,5.5298,0.0,6.0154,6.9922,6.6406,6.8828,7.7187,7.4765,7.4883,7.7187,7.7187,7.7187,7.7226,7.7734,7.8437,7.9297,8.0508,8.1328,8.1797,8.2148,8.2304,8.2304,8.2304,8.2304,8.2304,5.6405,0.0,5.2006,0.0,5.6119,5.7939,5.7917,6.2128,6.4974,6.4102,6.4383,6.4921,6.5479,6.6068,6.6121,6.5295,6.7307,6.7453,6.4667,6.7465,6.8554,6.709,6.8404,0.0,6.9192,6.9192,6.9423,6.9889,6.2201,0.0,0.0,0.0,0.0,0.0,6.4771,6.7828,6.8623,7.2826,7.4927,7.5509,7.5509,7.5509,7.5509,7.5509,7.5509,7.5509,7.5509,7.5509,7.5509,7.5509,7.5509,7.5509,7.5509,7.5509,7.5509,7.5509,7.5509,7.5509,7.5509,7.5509,7.5509,7.5509,7.5509,7.5509,7.5509,7.5509,7.5509,7.5509,7.5509,7.5509,7.5509,7.5509,7.356,6.7668,0.0,0.0,0.0,0.0,0.0,0.0,5.8636,5.7406,6.3443,5.5082,0.0,0.0,0.0,0.0,0.0,0.0,0.0,0.0,0.0,0.0,7.1797,6.7695,6.9453,7.7187,7.7187,7.7187,7.7187,7.7187,7.7344,7.7617,7.8476,7.9336,8.0156,8.1015,8.1758,8.2304,8.2304,8.2304,8.2304,8.2304,8.2304,8.2304,6.2036,6.2143,6.2607,6.4147,6.4468,6.3183,5.9295,6.3413,6.5197,6.0339,6.441,6.7755,6.7755,6.8311,6.6252,6.0303,6.5539,6.4687,5.4088,6.3308,6.7015,0.0,0.0,6.9192,6.9192,6.9192,6.9724,7.0767,0.0,0.0,6.4992,0.0,6.6025,6.5566,7.2338,7.5356,7.5395,7.5433,7.5471,7.5509,7.5509,7.5509,7.5509,7.5509,7.5509,7.5509,7.5509,7.5509,7.5509,7.5509,7.5509,7.5509,7.5509,7.5509,7.5509,7.5509,7.5509,7.5509,7.5509,7.5509,7.5509,7.5509,7.5509,7.5509,7.5509,7.5509,7.5509,7.5509,7.5509,7.5509,7.5509,7.5509,7.356,6.7668,0.0,0.0,0.0,0.0,0.0,0.0,5.1818,5.0707,5.6729,5.2169,0.0,0.0,0.0,0.0,0.0,0.0,0.0,5.0023,4.449,0.0,5.9297,5.9336,6.5312,7.7187,7.7187,7.7187,7.7187,7.7187,7.7656,7.8515,7.9336,8.0195,8.1054,8.1914,8.2304,8.2304,8.2304,8.2304,8.2304,8.2304,8.2304,8.2304,5.4848,5.988,6.3984,6.1756,6.4091,6.5982,6.5233,6.7088,6.7975,6.6227,6.7987,6.9317,6.8977,6.8686,6.7926,0.0,6.5015,6.4134,0.0,6.4134,6.496,6.6752,6.511,6.4172,6.4172,6.4857,6.5502,6.598,0.0,0.0,0.0,6.6529,6.8699,7.2376,7.4554,7.5509,7.5509,7.5509,7.5509,7.5509,7.5509,7.5509,7.5509,7.5509,7.5509,7.5509,7.5509,7.5509,7.5509,7.5509,7.5509,7.5509,7.5509,7.5509,7.5509,7.5509,7.5509,7.5509,7.5509,7.5509,7.5509,7.5509,7.5509,7.5509,7.5509,7.5509,7.5509,7.5509,7.5509,7.5509,7.5509,7.5509,7.356,6.7668,7.0075,0.0,0.0,0.0,0.0,0.0,5.851,5.7389,6.3384,5.8948,0.0,0.0,0.0,0.0,0.0,0.0,0.0,0.0,6.0586,0.0,7.1406,6.7383,6.9336,7.7187,7.7187,7.7187,7.7226,7.7812,7.8242,7.8594,7.9961,8.0742,8.1054,8.1953,8.2304,8.2304,8.2304,8.2304,8.2304,8.2304,8.2304,8.2304,5.7204,6.1843,6.5661,6.3754,6.5911,6.741,6.6141,6.8088,6.8916,6.6547,6.8488,6.9919,6.9432,6.8966,0.0,6.9364,6.6432,6.5889,6.9005,6.6612,6.6462,6.953,6.7071,6.5617,6.5617,6.638,0.0,6.7514,6.8507,6.9357,6.9999,6.9999,7.1947,7.5509,7.5509,7.5509,7.5509,7.5509,7.5509,7.5509,7.5509,7.5509,7.5509,7.5509,7.5509,7.5509,7.5509,7.5509,7.5509,7.5509,7.5509,7.5509,7.5509,7.5509,7.5509,7.5509,7.5509,7.5509,7.5509,7.5509,7.5509,7.5509,7.5509,7.5509,7.5509,7.5509,7.5509,7.5509,7.5509,7.5509,7.5509,7.5509,7.4287,7.061,7.3102,7.421,7.0533,0.0,0.0,0.0,0.0,0.0,0.0,6.389,6.1747,0.0,0.0,0.0,0.0,0.0,0.0,6.4648,6.4805,6.7734,7.375,7.0078,7.1211,7.7187,7.7187,7.7187,7.7226,7.8086,7.8672,7.9023,8.039,8.1172,8.1523,8.207,8.2304,8.2304,8.2304,8.2304,8.2304,8.2304,8.2304,8.2304,6.6089,6.6748,6.7588,0.0,6.9177,0.0,6.3535,6.7209,6.8478,6.2902,6.6675,6.9695,6.9233,6.9267,6.9305,6.9305,0.0,0.0,0.0,6.9766,7.0228,7.0577,7.1169,7.1474,7.1522,7.1803,7.2662,7.4028,7.5001,7.5509,7.5509,7.5509,7.5509,7.5509,7.5509,7.5509,7.5509,7.5509,7.5509,7.5509,7.5509,7.5509,7.5509,7.5509,7.5509,7.5509,7.5509,7.5509,7.5509,7.5509,7.5509,7.5509,7.5509,7.5509,7.5509,7.5509,7.5509,7.5509,7.5509,7.5509,7.5509,7.5509,7.5509,7.5509,7.5509,7.5509,7.5509,7.5509,7.5509,7.5509,7.5509,7.5509,7.5509,7.5509,7.5509,7.5356,7.4936,0.0,0.0,0.0,0.0,0.0,6.6307,6.7266,6.7682,0.0,0.0,0.0,0.0,0.0,5.4219,6.0273,6.0469,6.3164,6.8789,6.8828,7.164,7.7187,7.7187,7.7226,7.7305,7.8203,7.9023,7.9844,8.0703,8.1562,8.2304,8.2304,8.2304,8.2304,8.2304,8.2304,8.2304,8.2304,8.2304,8.2304,0.0,0.0,6.8623,6.5375,6.7802,6.9836,6.873,6.9532,6.9699,6.8129,6.8891,6.9496,6.9239,6.9793,7.0179,7.0179,6.6725,6.6162,6.9954,6.7411,6.7522,7.1454,6.8256,6.6418,6.6585,6.7435,7.0272,7.5104,7.5377,7.5509,7.5509,7.5509,7.5509,7.5509,7.5509,7.5509,7.5509,7.5509,7.5509,7.5509,7.5509,7.5509,7.5509,7.5509,7.5509,7.5509,7.5509,7.5509,7.5509,7.5509,7.5509,7.5509,7.5509,7.5509,7.5509,7.5509,7.5509,7.5509,7.5509,7.5509,7.5509,7.5509,7.5509,7.5509,7.5509,7.5509,7.5509,7.5509,7.5509,7.5509,7.5509,7.5509,7.5509,7.5509,7.5509,7.3943,6.9425,6.771,0.0,0.0,6.3184,6.5904,6.7483,7.1912,7.2833,0.0,0.0,0.0,6.8125,6.5508,6.6719,7.2734,7.293,7.3633,7.5078,7.5078,7.5781,7.7187,7.7187,7.7539,7.8203,7.9023,7.9883,8.0742,8.1601,8.2109,8.2304,8.2304,8.2304,8.2304,8.2304,8.2304,8.2304,8.2304,8.2303,8.2302,6.2699,6.6696,6.9693,6.7088,6.8766,7.0514,7.0514,7.0406,7.0216,6.9941,6.9791,6.9694,6.9791,7.0217,7.063,7.1006,6.8602,6.8179,7.0855,6.9386,6.9662,7.2482,7.059,6.9512,6.9621,7.0281,7.2202,7.5509,7.5509,7.5509,7.5509,7.5509,7.5509,7.5509,7.5509,7.5509,7.5509,7.5509,7.5509,7.5509,7.5509,7.5509,7.5509,7.5509,7.5509,7.5509,7.5509,7.5509,7.5509,7.5509,7.5509,7.5509,7.5509,7.5509,7.5509,7.5509,7.5509,7.5509,7.5509,7.5509,7.5509,7.5509,7.5509,7.5509,7.5509,7.5509,7.5509,7.5509,7.5509,7.5509,7.5509,7.5509,7.5509,7.5509,7.3255,7.0359,6.7187,6.453,0.0,6.259,6.5634,6.8904,7.1824,7.5135,7.5734,7.2496,6.9726,0.0,7.2187,6.9687,7.0976,7.6992,7.7187,7.7187,7.7187,7.7187,7.7187,7.7187,7.7617,7.8047,7.8555,7.9765,8.0547,8.1054,8.1914,8.2304,8.2304,8.2304,8.2304,8.2304,8.2304,8.2304,8.2304,8.23,8.2298,8.2297,7.0514,7.0514,7.0514,7.0514,7.0514,7.0514,7.0514,7.0457,7.0325,6.9949,6.9991,7.0167,7.0455,7.0705,7.1156,7.182,7.2008,7.2008,7.1895,7.2881,7.3484,7.3516,7.4588,7.5218,7.5247,7.5421,7.5509,7.5509,7.5509,7.5509,7.5509,7.5509,7.5509,7.5509,7.5509,7.5509,7.5509,7.5509,7.5509,7.5509,7.5509,7.5509,7.5509,7.5509,7.5509,7.5509,7.5509,7.5509,7.5509,7.5509,7.5509,7.5509,7.5509,7.5509,7.5509,7.5509,7.5509,7.5509,7.5509,7.5509,7.5509,7.5509,7.5509,7.5509,7.5509,7.5509,7.5509,7.5509,7.5509,7.5509,7.5509,7.5535,7.5255,7.4355,7.0032,6.6467,6.5618,0.0,6.1551,6.6997,6.8498,7.1236,7.6589,7.7101,7.7144,7.7187,7.2461,7.1797,7.6914,7.2344,7.1914,7.7031,7.7187,7.7187,7.7187,7.7187,7.7187,7.7226,7.8086,7.8555,7.8711,8.0273,8.1054,8.125,8.1992,8.2304,8.2304,8.2304,8.2304,8.2304,8.2303,8.2301,8.23,8.2293,8.229,8.2289,7.0514,7.0514,7.0514,7.0514,7.0514,7.0514,7.0514,7.0355,7.0159,6.9933,7.0357,7.0636,7.05,7.1719,7.2583,7.2695,7.3409,7.351,7.277,7.3709,7.4369,7.4568,7.496,7.5284,7.5465,7.5492,7.5509,7.5509,7.5509,7.5509,7.5509,7.5509,7.5509,7.5509,7.5509,7.5509,7.5509,7.5509,7.5509,7.5509,7.5509,7.5509,7.5509,7.5509,7.5509,7.5509,7.5509,7.5509,7.5509,7.5509,7.5509,7.5509,7.5509,7.5509,7.5509,7.5509,7.5509,7.5509,7.5509,7.5509,7.5509,7.5509,7.5509,7.5509,7.5509,7.5509,7.5509,7.5509,7.5509,7.5509,7.5509,7.5599,7.4044,6.9044,6.7522,6.5237,6.0305,0.0,6.652,6.7645,7.2424,7.6038,7.7069,7.7187,7.7187,7.7187,7.6328,7.6211,7.7148,7.6328,7.6211,7.7187,7.7187,7.7187,7.7187,7.7187,7.7187,7.7226,7.8086,7.8867,7.9531,8.0547,8.1406,8.2109,8.2226,8.2304,8.2304,8.2304,8.2304,8.2302,8.2302,8.2299,8.2293,8.2283,8.2318,8.2315,7.0514,7.0514,7.0514,7.0514,7.0514,7.0514,7.0514,7.0329,7.0266,7.0533,7.0695,7.1069,7.17,7.247,7.3128,7.3703,7.4128,7.4248,7.3927,7.4373,7.4757,7.5007,7.5227,7.5412,7.5509,7.5509,7.5509,7.5509,7.5509,7.5509,7.5509,7.5509,7.5509,7.5509,7.5509,7.5509,7.5509,7.5509,7.5509,7.5509,7.5509,7.5509,7.5509,7.5509,7.5509,7.5509,7.5509,7.5509,7.5509,7.5509,7.5509,7.5509,7.5509,7.5509,7.5509,7.5509,7.5509,7.5509,7.5509,7.5509,7.5509,7.5509,7.5509,7.5509,7.5509,7.5509,7.5509,7.5509,7.5509,7.5497,7.5599,7.5644,7.4827,7.2164,6.9129,0.0,0.0,6.5725,6.7659,6.785,7.3296,7.7094,7.7187,7.7187,7.7187,7.7187,7.7187,7.7187,7.7187,7.7187,7.7187,7.7187,7.7187,7.7187,7.7187,7.7187,7.7422,7.789,7.875,7.9609,8.0429,8.1289,8.1914,8.2304,8.2304,8.2304,8.2304,8.2304,8.2303,8.2301,8.2294,8.2288,8.2283,8.2309,8.2304,8.2302,7.0514,7.0514,7.0514,7.0514,7.0514,7.0494,7.0432,7.0478,7.0617,7.0987,7.1218,7.1777,7.2788,7.3128,7.3605,7.4422,7.4525,7.4653,7.4869,7.4879,7.4997,7.519,7.5403,7.5509,7.5509,7.5509,7.5509,7.5509,7.5509,7.5509,7.5509,7.5509,7.5509,7.5509,7.5509,7.5509,7.5509,7.5509,7.5509,7.5509,7.5509,7.5509,7.5509,7.5509,7.5509,7.5509,7.5509,7.5509,7.5509,7.5509,7.5509,7.5509,7.5509,7.5509,7.5509,7.5509,7.5509,7.5509,7.5509,7.5509,7.5509,7.5509,7.5509,7.5509,7.5509,7.5509,7.5509,7.5509,7.5506,7.5574,7.5668,7.5756,7.5402,7.4123,0.0,0.0,0.0,6.7553,6.8242,6.9772,7.4156,7.7094,7.7187,7.7187,7.7187,7.7187,7.7187,7.7187,7.7187,7.7187,7.7187,7.7187,7.7187,7.7187,7.7187,7.7383,7.7851,7.8515,7.9531,8.0351,8.1015,8.1914,8.2304,8.2304,8.2304,8.2304,8.2304,8.2303,8.23,8.2297,8.2283,8.2313,8.2308,8.2296,8.2292,8.2292,7.0514,7.0514,7.0514,7.0514,7.0514,7.0432,7.0261,7.0852,7.1183,7.0876,7.2145,7.3056,7.2901,7.3789,7.4411,7.4471,7.4664,7.4879,7.5161,7.5181,7.5181,7.52,7.5403,7.5509,7.5509,7.5509,7.5509,7.5509,7.5509,7.5509,7.5509,7.5509,7.5509,7.5509,7.5509,7.5509,7.5509,7.5509,7.5509,7.5509,7.5509,7.5509,7.5509,7.5509,7.5509,7.5509,7.5509,7.5509,7.5509,7.5509,7.5509,7.5509,7.5509,7.5509,7.5509,7.5509,7.5509,7.5509,7.5509,7.5509,7.5509,7.5509,7.5509,7.5509,7.5509,7.5509,7.5509,7.5509,7.5599,7.5676,7.5692,7.5938,7.4392,6.8889,0.0,0.0,6.7565,6.7742,6.9928,7.5482,7.6762,7.7187,7.7187,7.7187,7.7187,7.7187,7.7187,7.7187,7.7187,7.7187,7.7187,7.7187,7.7187,7.7187,7.7187,7.8008,7.8437,7.8515,8.0117,8.0937,8.1015,8.1914,8.2304,8.2304,8.2304,8.2304,8.2302,8.2302,8.2295,8.2317,8.2315,8.2307,8.2293,8.2293,8.2292,8.2292,7.0514,7.0514,7.0514,7.0514,7.0403,7.0474,7.0873,7.0968,7.1336,7.2231,7.2917,7.3469,7.3838,7.4358,7.4737,7.4917,7.4997,7.5133,7.5385,7.5394,7.5394,7.5394,7.5474,7.5509,7.5509,7.5509,7.5509,7.5509,7.5509,7.5509,7.5509,7.5509,7.5509,7.5509,7.5509,7.5509,7.5509,7.5509,7.5509,7.5509,7.5509,7.5509,7.5509,7.5509,7.5509,7.5509,7.5509,7.5509,7.5509,7.5509,7.5509,7.5509,7.5509,7.5509,7.5509,7.5509,7.5509,7.5509,7.5509,7.5509,7.5509,7.5509,7.5509,7.5497,7.5608,7.5641,7.5666,7.5732,7.5803,7.5879,7.5974,7.6118,7.551,7.3325,0.0,7.3064,7.3164,7.3327,7.427,7.6624,7.7094,7.7187,7.7187,7.7187,7.7187,7.7187,7.7187,7.7187,7.7187,7.7187,7.7187,7.7187,7.7187,7.7187,7.7187,7.8047,7.875,7.9258,8.0429,8.1289,8.1836,8.2148,8.2304,8.2303,8.2303,8.2301,8.2296,8.2291,8.2284,8.2313,8.2305,8.2298,8.2292,8.2292,8.2292,8.2292,7.0514,7.0514,7.0514,7.0514,7.045,7.0593,7.1204,7.1346,7.1835,7.3167,7.356,7.3964,7.4594,7.4839,7.5008,7.519,7.5265,7.5358,7.5501,7.5509,7.5509,7.5509,7.5509,7.5509,7.5509,7.5509,7.5509,7.5509,7.5509,7.5509,7.5509,7.5509,7.5509,7.5509,7.5509,7.5509,7.5509,7.5509,7.5509,7.5509,7.5509,7.5509,7.5509,7.5509,7.5509,7.5509,7.5509,7.5509,7.5509,7.5509,7.5509,7.5509,7.5509,7.5509,7.5509,7.5509,7.5509,7.5527,7.554,7.5557,7.5557,7.5557,7.5599,7.5628,7.5748,7.5772,7.5803,7.5877,7.5935,7.6038,7.6179,7.6231,7.6295,7.6386,7.6403,7.6444,7.6578,7.6713,7.6846,7.6977,7.7101,7.7187,7.7187,7.7187,7.7187,7.7187,7.7187,7.7187,7.7187,7.7187,7.7187,7.7187,7.7461,7.7617,7.7617,7.8437,7.9297,8.0117,8.0976,8.1719,8.2304,8.2304,8.2304,8.2301,8.2301,8.2297,8.2288,8.2318,8.2312,8.2307,8.2296,8.2292,8.2292,8.2292,8.2292,8.2292,7.0514,7.0514,7.0514,7.0514,7.0667,7.0874,7.1084,7.1962,7.2822,7.3355,7.4096,7.4709,7.4959,7.5161,7.5283,7.5218,7.5394,7.5509,7.5509,7.5509,7.5509,7.5509,7.5509,7.5509,7.5509,7.5509,7.5509,7.5509,7.5509,7.5509,7.5509,7.5509,7.5509,7.5509,7.5509,7.5509,7.5509,7.5509,7.5509,7.5509,7.5509,7.5509,7.5509,7.5509,7.5509,7.5509,7.5509,7.5509,7.5509,7.5509,7.5509,7.5509,7.5509,7.5509,7.5509,7.5509,7.5509,7.5514,7.5644,7.5692,7.5692,7.57,7.578,7.5899,7.5899,7.5899,7.5899,7.5899,7.6059,7.6198,7.6198,7.6313,7.6403,7.6403,7.6403,7.6444,7.6578,7.6713,7.6846,7.6977,7.7101,7.7187,7.7187,7.7187,7.7187,7.7187,7.7187,7.7187,7.7187,7.7187,7.7187,7.7187,7.8047,7.8515,7.8515,7.9297,8.0156,8.1015,8.1875,8.2304,8.2304,8.2304,8.2304,8.2301,8.2301,8.2294,8.2314,8.2314,8.2307,8.2292,8.2292,8.2292,8.2292,8.2292,8.2292,8.2292,7.0514,7.0514,7.0548,7.0684,7.0956,7.1414,7.2185,7.287,7.3554,7.4272,7.4847,7.5197,7.5261,7.5468,7.5536,7.548,7.5523,7.5532,7.5518,7.5509,7.5509,7.5509,7.5509,7.5509,7.5509,7.5509,7.5509,7.5509,7.5509,7.5509,7.5509,7.5509,7.5509,7.5509,7.5509,7.5509,7.5509,7.5509,7.5509,7.5509,7.5509,7.5509,7.5509,7.5509,7.5509,7.5509,7.5509,7.5509,7.5509,7.5509,7.5509,7.5509,7.5509,7.5509,7.5509,7.5509,7.5509,7.5527,7.554,7.5641,7.5724,7.5841,7.5862,7.5928,7.6066,7.6093,7.612,7.6225,7.6313,7.6344,7.6344,7.6374,7.6403,7.6403,7.6403,7.6465,7.6706,7.6777,7.6875,7.71,7.7187,7.7187,7.7187,7.7187,7.7187,7.7187,7.7187,7.7187,7.7187,7.7187,7.7187,7.7187,7.8047,7.8789,7.9336,8.0195,8.0742,8.1015,8.1875,8.2304,8.2303,8.2303,8.2299,8.2286,8.2286,8.2317,8.2299,8.2299,8.2296,8.2292,8.2292,8.2292,8.2292,8.2292,8.2292,8.2292,7.0616,7.0831,7.1094,7.1126,7.1641,7.232,7.3036,7.3579,7.4205,7.4971,7.5297,7.5472,7.5578,7.5723,7.5731,7.5608,7.5566,7.554,7.5523,7.5489,7.5509,7.5509,7.5509,7.5509,7.5509,7.5509,7.5509,7.5509,7.5509,7.5509,7.5509,7.5509,7.5509,7.5509,7.5509,7.5509,7.5509,7.5509,7.5509,7.5509,7.5509,7.5509,7.5509,7.5509,7.5509,7.5509,7.5509,7.5509,7.5509,7.5509,7.5509,7.5509,7.5509,7.5509,7.5527,7.5557,7.5574,7.5608,7.5747,7.5856,7.5923,7.6079,7.6072,7.6066,7.625,7.6276,7.6301,7.6386,7.6403,7.6403,7.6403,7.6403,7.6403,7.6403,7.6444,7.6541,7.6774,7.6843,7.6963,7.7187,7.7187,7.7187,7.7187,7.7187,7.7187,7.7187,7.7187,7.7187,7.7187,7.7187,7.7344,7.7695,7.8515,7.9375,8.0195,8.1094,8.1523,8.1523,8.2031,8.2304,8.2301,8.2301,8.2295,8.2314,8.2314,8.2307,8.2292,8.2292,8.2292,8.2292,8.2292,8.2292,8.2292,8.2292,8.2292,8.2292,7.0778,7.139,7.1863,7.1745,7.2599,7.3404,7.3719,7.4196,7.4751,7.5425,7.554,7.5652,7.5887,7.5902,7.5841,7.5633,7.554,7.5514,7.5591,7.5553,7.5509,7.5509,7.5509,7.5509,7.5509,7.5509,7.5509,7.5509,7.5509,7.5509,7.5509,7.5509,7.5509,7.5509,7.5509,7.5509,7.5509,7.5509,7.5509,7.5509,7.5509,7.5509,7.5509,7.5509,7.5509,7.5509,7.5509,7.5509,7.5509,7.5509,7.5509,7.5509,7.5509,7.5518,7.5532,7.5652,7.5708,7.5779,7.6104,7.6172,7.6212,7.635,7.6288,7.6231,7.6374,7.6403,7.6403,7.6403,7.6403,7.6403,7.6403,7.6403,7.6403,7.6403,7.6501,7.6613,7.6783,7.6928,7.7038,7.7187,7.7187,7.7187,7.7187,7.7187,7.7187,7.7187,7.7187,7.7187,7.7187,7.7265,7.7695,7.8476,7.9375,8.0195,8.0976,8.1875,8.2304,8.2304,8.2304,8.2304,8.2301,8.2301,8.2293,8.2313,8.2313,8.2305,8.2292,8.2292,8.2292,8.2292,8.2292,8.2292,8.2292,8.2292,8.2292,8.2292,7.0703,7.1326,7.1911,7.1907,7.3018,7.4008,7.4363,7.4999,7.5498,7.5652,7.5779,7.591,7.5985,7.5985,7.5948,7.5848,7.5696,7.5574,7.5591,7.5553,7.5509,7.5509,7.5509,7.5509,7.5509,7.5509,7.5509,7.5509,7.5509,7.5509,7.5509,7.5509,7.5509,7.5509,7.5509,7.5509,7.5509,7.5509,7.5509,7.5509,7.5509,7.5509,7.5509,7.5509,7.5509,7.5509,7.5509,7.5509,7.5509,7.5509,7.5509,7.5509,7.5509,7.5566,7.5652,7.5684,7.5787,7.5862,7.5967,7.5981,7.6024,7.6205,7.6218,7.6231,7.6374,7.6403,7.6403,7.6403,7.6403,7.6403,7.6403,7.6403,7.6403,7.6403,7.6405,7.6541,7.6771,7.6824,7.6946,7.7186,7.7187,7.7187,7.7187,7.7187,7.7187,7.7187,7.7187,7.7187,7.7187,7.7851,7.8281,7.8476,7.9922,8.082,8.1015,8.1875,8.2304,8.2304,8.2304,8.2301,8.2295,8.2288,8.2314,8.2298,8.2298,8.2296,8.2292,8.2292,8.2292,8.2292,8.2292,8.2292,8.2292,8.2292,8.2292,8.2292,7.1273,7.1843,7.2465,7.2904,7.3943,7.4807,7.5009,7.5485,7.5849,7.5849,7.5924,7.6015,7.6015,7.6015,7.5978,7.5895,7.5737,7.5599,7.5599,7.5553,7.5509,7.5509,7.5509,7.5509,7.5509,7.5509,7.5509,7.5509,7.5509,7.5509,7.5509,7.5509,7.5509,7.5509,7.5509,7.5509,7.5509,7.5509,7.5509,7.5509,7.5509,7.5509,7.5509,7.5509,7.5509,7.5509,7.5509,7.5509,7.5509,7.5509,7.5532,7.5599,7.5599,7.5676,7.5826,7.5901,7.5981,7.6059,7.6133,7.6153,7.6166,7.6276,7.6295,7.6313,7.6386,7.6403,7.6403,7.6403,7.6403,7.6403,7.6403,7.6403,7.6403,7.6403,7.6511,7.6625,7.6783,7.6893,7.7041,7.7187,7.7187,7.7187,7.7187,7.7187,7.7187,7.7187,7.7187,7.7383,7.7812,7.8242,7.8867,7.9687,8.0547,8.1211,8.1601,8.207,8.2304,8.2304,8.2302,8.2299,8.2292,8.2281,8.2307,8.2292,8.2292,8.2292,8.2292,8.2292,8.2292,8.2292,8.2292,8.2292,8.2292,8.2292,8.2292,8.2292,7.1855,7.2472,7.312,7.398,7.4848,7.5472,7.5573,7.581,7.6015,7.6015,7.6015,7.6015,7.6015,7.6,7.5963,7.5895,7.5715,7.5616,7.5599,7.5532,7.5527,7.5509,7.5509,7.5509,7.5509,7.5509,7.5509,7.5509,7.5509,7.5509,7.5509,7.5509,7.5509,7.5509,7.5509,7.5509,7.5509,7.5509,7.5509,7.5509,7.5509,7.5509,7.5509,7.5509,7.5509,7.5509,7.5509,7.5509,7.5518,7.5544,7.5616,7.57,7.5732,7.581,7.5995,7.6159,7.6212,7.6257,7.6374,7.6403,7.6403,7.6403,7.6403,7.6403,7.6403,7.6403,7.6403,7.6403,7.6403,7.6403,7.6403,7.6403,7.6403,7.6403,7.6618,7.6777,7.6799,7.7027,7.7187,7.7187,7.7187,7.7187,7.7187,7.7187,7.7187,7.7187,7.7344,7.7734,7.8476,7.8789,7.957,8.0976,8.1133,8.1562,8.2304,8.2304,8.2304,8.2302,8.2301,8.2297,8.2289,8.2318,8.2305,8.2292,8.2292,8.2292,8.2292,8.2292,8.2292,8.2292,8.2292,8.2292,8.2292,8.2292,8.2292,8.2292,7.1513,7.2376,7.3309,7.4065,7.5005,7.5716,7.5902,7.5954,7.6015,7.6015,7.6015,7.6015,7.6015,7.5948,7.5902,7.5887,7.5771,7.5644,7.5599,7.5583,7.5549,7.5518,7.5509,7.5509,7.5509,7.5509,7.5509,7.5509,7.5509,7.5509,7.5509,7.5509,7.5509,7.5509,7.5509,7.5509,7.5509,7.5509,7.5509,7.5509,7.5509,7.5509,7.5509,7.5509,7.5509,7.5509,7.5509,7.5509,7.5535,7.5611,7.5676,7.5716,7.5825,7.601,7.6172,7.6192,7.6282,7.638,7.6397,7.6403,7.6403,7.6403,7.6403,7.6403,7.6403,7.6403,7.6403,7.6403,7.6403,7.6403,7.6403,7.6403,7.6403,7.6403,7.6541,7.6657,7.6786,7.6946,7.7089,7.7187,7.7187,7.7187,7.7187,7.7187,7.7187,7.7187,7.789,7.8398,7.8476,7.9883,8.0781,8.0976,8.1719,8.2187,8.2304,8.2304,8.2304,8.2304,8.23,8.2289,8.2317,8.2302,8.2295,8.2292,8.2292,8.2292,8.2292,8.2292,8.2292,8.2292,8.2292,8.2292,8.2292,8.2292,8.2292,8.2292,7.2105,7.295,7.3811,7.4722,7.531,7.5748,7.5954,7.6015,7.6015,7.6015,7.6015,7.6015,7.6015,7.594,7.5848,7.5761,7.5674,7.5625,7.5532,7.5523,7.5514,7.5509,7.5509,7.5509,7.5509,7.5509,7.5509,7.5509,7.5509,7.5509,7.5509,7.5509,7.5509,7.5509,7.5509,7.5509,7.5509,7.5509,7.5509,7.5509,7.5509,7.5509,7.5509,7.5509,7.5509,7.5509,7.5509,7.554,7.5633,7.5668,7.5818,7.5974,7.6038,7.616,7.6313,7.6313,7.6356,7.6403,7.6403,7.6403,7.6403,7.6403,7.6403,7.6403,7.6403,7.6403,7.6403,7.6403,7.6403,7.6403,7.6403,7.6403,7.6405,7.6496,7.66,7.6761,7.688,7.7034,7.7143,7.7187,7.7187,7.7187,7.7187,7.7187,7.7187,7.7187,7.8008,7.8711,7.914,8.0312,8.1211,8.1719,8.2109,8.2304,8.2304,8.2304,8.2304,8.2304,8.2297,8.229,8.2285,8.2304,8.2292,8.2292,8.2292,8.2292,8.2292,8.2292,8.2292,8.2292,8.2292,8.2292,8.2292,8.2292,8.2292,8.2292]}]]